Wetterdaten: Mittwoch, 14.11.2018
Datum Zeit Temp. A. Pool Temp. Temp. 5cm Feuchte A. Luftdruck Regen Wind Richtung Richtung Sonnenschein ET UV Solar Taupunkt Windchill Windben Empfang
14.11.2018 00:00 8,4 C 9,4 C 4,4 C 91 % 1031,4 hPa 0,0 l/m 3,7 km/h (1 Bft) S-SW 210 0 min 0,000 mm 0,0 UV-I 0 W/m 7,0 C 8,4 C 4,8 km/h (1 Bft) 92,11 %
14.11.2018 00:02 8,1 C 9,4 C 4,4 C 90 % 1031,4 hPa 0,0 l/m 4,8 km/h (1 Bft) S-SW 210 0 min 0,000 mm 0,0 UV-I 0 W/m 6,6 C 8,1 C 6,4 km/h (2 Bft) 94,87 %
14.11.2018 00:04 7,8 C 9,4 C 3,9 C 91 % 1031,4 hPa 0,0 l/m 4,8 km/h (1 Bft) SW 219 0 min 0,000 mm 0,0 UV-I 0 W/m 6,4 C 7,8 C 6,4 km/h (2 Bft) 93,62 %
14.11.2018 00:06 7,7 C 9,4 C 3,3 C 92 % 1031,4 hPa 0,0 l/m 5,1 km/h (1 Bft) S-SW 202 0 min 0,000 mm 0,0 UV-I 0 W/m 6,5 C 7,7 C 8,0 km/h (2 Bft) 93,62 %
14.11.2018 00:08 7,6 C 9,4 C 3,3 C 92 % 1031,4 hPa 0,0 l/m 4,1 km/h (1 Bft) SW 232 0 min 0,000 mm 0,0 UV-I 0 W/m 6,4 C 7,6 C 6,4 km/h (2 Bft) 94,00 %
14.11.2018 00:10 7,7 C 9,4 C 3,3 C 93 % 1031,4 hPa 0,0 l/m 4,2 km/h (1 Bft) SW 231 0 min 0,000 mm 0,0 UV-I 0 W/m 6,6 C 7,7 C 6,4 km/h (2 Bft) 93,75 %
14.11.2018 00:12 7,6 C 9,4 C 3,3 C 93 % 1031,4 hPa 0,0 l/m 5,3 km/h (1 Bft) SW 232 0 min 0,000 mm 0,0 UV-I 0 W/m 6,5 C 7,6 C 6,4 km/h (2 Bft) 95,74 %
14.11.2018 00:14 7,7 C 9,4 C 3,3 C 93 % 1031,4 hPa 0,0 l/m 4,6 km/h (1 Bft) SW 236 0 min 0,000 mm 0,0 UV-I 0 W/m 6,6 C 7,7 C 8,0 km/h (2 Bft) 96,00 %
14.11.2018 00:16 7,8 C 9,4 C 3,3 C 94 % 1031,4 hPa 0,0 l/m 1,7 km/h (1 Bft) SW 236 0 min 0,000 mm 0,0 UV-I 0 W/m 6,9 C 7,8 C 4,8 km/h (1 Bft) 93,62 %
14.11.2018 00:18 7,8 C 9,4 C 2,8 C 93 % 1031,4 hPa 0,0 l/m 0,7 km/h (0 Bft) SW 236 0 min 0,000 mm 0,0 UV-I 0 W/m 6,7 C 7,8 C 1,6 km/h (1 Bft) 95,74 %
14.11.2018 00:20 7,8 C 9,4 C 2,8 C 93 % 1031,5 hPa 0,0 l/m 2,0 km/h (1 Bft) SW 236 0 min 0,000 mm 0,0 UV-I 0 W/m 6,7 C 7,8 C 3,2 km/h (1 Bft) 97,14 %
14.11.2018 00:22 7,8 C 9,4 C 3,3 C 93 % 1031,5 hPa 0,0 l/m 1,2 km/h (1 Bft) SW 236 0 min 0,000 mm 0,0 UV-I 0 W/m 6,7 C 7,8 C 3,2 km/h (1 Bft) 93,62 %
14.11.2018 00:24 7,8 C 9,4 C 3,3 C 93 % 1031,5 hPa 0,0 l/m 0,7 km/h (0 Bft) SW 236 0 min 0,000 mm 0,0 UV-I 0 W/m 6,7 C 7,8 C 1,6 km/h (1 Bft) 95,74 %
14.11.2018 00:26 7,8 C 9,4 C 2,8 C 93 % 1031,5 hPa 0,0 l/m 0,3 km/h (0 Bft) SW 236 0 min 0,000 mm 0,0 UV-I 0 W/m 6,7 C 7,8 C 1,6 km/h (1 Bft) 94,00 %
14.11.2018 00:28 7,8 C 9,4 C 2,8 C 93 % 1031,5 hPa 0,0 l/m 0,0 km/h (0 Bft) SW 236 0 min 0,000 mm 0,0 UV-I 0 W/m 6,7 C 7,8 C 0,0 km/h (0 Bft) 93,62 %
14.11.2018 00:30 7,8 C 9,4 C 2,2 C 93 % 1031,5 hPa 0,0 l/m 0,0 km/h (0 Bft) SW 236 0 min 0,000 mm 0,0 UV-I 0 W/m 6,7 C 7,8 C 0,0 km/h (0 Bft) 95,74 %
14.11.2018 00:32 7,7 C 9,4 C 2,2 C 93 % 1031,5 hPa 0,0 l/m 0,0 km/h (0 Bft) SW 236 0 min 0,000 mm 0,0 UV-I 0 W/m 6,6 C 7,7 C 0,0 km/h (0 Bft) 95,74 %
14.11.2018 00:34 7,6 C 9,4 C 2,2 C 93 % 1031,5 hPa 0,0 l/m 0,9 km/h (0 Bft) SW 236 0 min 0,000 mm 0,0 UV-I 0 W/m 6,5 C 7,6 C 3,2 km/h (1 Bft) 95,74 %
14.11.2018 00:36 7,5 C 9,4 C 2,8 C 93 % 1031,5 hPa 0,0 l/m 1,9 km/h (1 Bft) SW 236 0 min 0,000 mm 0,0 UV-I 0 W/m 6,4 C 7,5 C 3,2 km/h (1 Bft) 95,74 %
14.11.2018 00:38 7,3 C 9,4 C 3,3 C 93 % 1031,5 hPa 0,0 l/m 2,0 km/h (1 Bft) SW 236 0 min 0,000 mm 0,0 UV-I 0 W/m 6,2 C 7,3 C 3,2 km/h (1 Bft) 93,62 %
14.11.2018 00:40 7,1 C 9,4 C 3,9 C 93 % 1031,5 hPa 0,0 l/m 2,0 km/h (1 Bft) SW 236 0 min 0,000 mm 0,0 UV-I 0 W/m 6,0 C 7,1 C 3,2 km/h (1 Bft) 91,49 %
14.11.2018 00:42 7,1 C 9,4 C 3,9 C 94 % 1031,5 hPa 0,0 l/m 2,7 km/h (1 Bft) SW 236 0 min 0,000 mm 0,0 UV-I 0 W/m 6,2 C 7,1 C 3,2 km/h (1 Bft) 93,62 %
14.11.2018 00:44 7,2 C 9,4 C 4,4 C 94 % 1031,5 hPa 0,0 l/m 2,6 km/h (1 Bft) SW 236 0 min 0,000 mm 0,0 UV-I 0 W/m 6,3 C 7,2 C 3,2 km/h (1 Bft) 95,74 %
14.11.2018 00:46 7,1 C 9,4 C 4,4 C 94 % 1031,5 hPa 0,0 l/m 2,5 km/h (1 Bft) SW 236 0 min 0,000 mm 0,0 UV-I 0 W/m 6,2 C 7,1 C 3,2 km/h (1 Bft) 95,83 %
14.11.2018 00:48 6,9 C 9,4 C 5,0 C 94 % 1031,5 hPa 0,0 l/m 2,8 km/h (1 Bft) SW 236 0 min 0,000 mm 0,0 UV-I 0 W/m 6,0 C 6,9 C 3,2 km/h (1 Bft) 100,00 %
14.11.2018 00:50 6,8 C 9,4 C 5,0 C 94 % 1031,6 hPa 0,0 l/m 2,6 km/h (1 Bft) SW 236 0 min 0,000 mm 0,0 UV-I 0 W/m 5,9 C 6,8 C 3,2 km/h (1 Bft) 100,00 %
14.11.2018 00:52 6,7 C 9,4 C 5,0 C 94 % 1031,5 hPa 0,0 l/m 1,6 km/h (1 Bft) SW 236 0 min 0,000 mm 0,0 UV-I 0 W/m 5,8 C 6,7 C 3,2 km/h (1 Bft) 100,00 %
14.11.2018 00:54 6,8 C 9,4 C 5,0 C 94 % 1031,5 hPa 0,0 l/m 1,4 km/h (1 Bft) SW 236 0 min 0,000 mm 0,0 UV-I 0 W/m 5,9 C 6,8 C 1,6 km/h (1 Bft) 97,87 %
14.11.2018 00:56 6,9 C 9,4 C 5,0 C 95 % 1031,5 hPa 0,0 l/m 1,3 km/h (1 Bft) SW 236 0 min 0,000 mm 0,0 UV-I 0 W/m 6,2 C 6,9 C 3,2 km/h (1 Bft) 95,74 %
14.11.2018 00:58 6,9 C 9,4 C 5,0 C 95 % 1031,5 hPa 0,0 l/m 1,6 km/h (1 Bft) SW 236 0 min 0,000 mm 0,0 UV-I 0 W/m 6,2 C 6,9 C 3,2 km/h (1 Bft) 100,00 %
14.11.2018 01:00 7,0 C 9,4 C 5,0 C 95 % 1031,5 hPa 0,0 l/m 1,9 km/h (1 Bft) SW 236 0 min 0,000 mm 0,0 UV-I 0 W/m 6,3 C 7,0 C 3,2 km/h (1 Bft) 100,00 %
14.11.2018 01:02 7,1 C 9,4 C 5,0 C 95 % 1031,5 hPa 0,0 l/m 2,1 km/h (1 Bft) SW 236 0 min 0,000 mm 0,0 UV-I 0 W/m 6,4 C 7,1 C 3,2 km/h (1 Bft) 97,87 %
14.11.2018 01:04 7,1 C 9,4 C 4,4 C 95 % 1031,5 hPa 0,0 l/m 3,5 km/h (1 Bft) SW 236 0 min 0,000 mm 0,0 UV-I 0 W/m 6,4 C 7,1 C 4,8 km/h (1 Bft) 100,00 %
14.11.2018 01:06 6,9 C 9,4 C 4,4 C 95 % 1031,5 hPa 0,0 l/m 2,3 km/h (1 Bft) SW 236 0 min 0,000 mm 0,0 UV-I 0 W/m 6,2 C 6,9 C 4,8 km/h (1 Bft) 97,87 %
14.11.2018 01:08 6,9 C 9,4 C 4,4 C 95 % 1031,5 hPa 0,0 l/m 2,4 km/h (1 Bft) SW 236 0 min 0,000 mm 0,0 UV-I 0 W/m 6,2 C 6,9 C 3,2 km/h (1 Bft) 95,74 %
14.11.2018 01:10 6,9 C 9,4 C 3,9 C 95 % 1031,5 hPa 0,0 l/m 3,5 km/h (1 Bft) SW 235 0 min 0,000 mm 0,0 UV-I 0 W/m 6,2 C 6,9 C 4,8 km/h (1 Bft) 95,74 %
14.11.2018 01:12 6,7 C 9,4 C 3,3 C 94 % 1031,5 hPa 0,0 l/m 3,5 km/h (1 Bft) SW 235 0 min 0,000 mm 0,0 UV-I 0 W/m 5,8 C 6,7 C 4,8 km/h (1 Bft) 94,00 %
14.11.2018 01:14 6,7 C 9,4 C 3,3 C 95 % 1031,5 hPa 0,0 l/m 2,5 km/h (1 Bft) SW 235 0 min 0,000 mm 0,0 UV-I 0 W/m 6,0 C 6,7 C 3,2 km/h (1 Bft) 98,00 %
14.11.2018 01:16 6,8 C 9,4 C 2,8 C 95 % 1031,5 hPa 0,0 l/m 3,7 km/h (1 Bft) SW 235 0 min 0,000 mm 0,0 UV-I 0 W/m 6,1 C 6,8 C 4,8 km/h (1 Bft) 95,74 %
14.11.2018 01:18 6,8 C 9,4 C 2,8 C 95 % 1031,5 hPa 0,0 l/m 4,5 km/h (1 Bft) SW 235 0 min 0,000 mm 0,0 UV-I 0 W/m 6,1 C 6,8 C 4,8 km/h (1 Bft) 97,87 %
14.11.2018 01:20 6,7 C 9,4 C 2,8 C 95 % 1031,5 hPa 0,0 l/m 4,5 km/h (1 Bft) SW 235 0 min 0,000 mm 0,0 UV-I 0 W/m 6,0 C 6,7 C 6,4 km/h (2 Bft) 100,00 %
14.11.2018 01:22 6,7 C 9,4 C 2,8 C 95 % 1031,5 hPa 0,0 l/m 4,6 km/h (1 Bft) SW 225 0 min 0,000 mm 0,0 UV-I 0 W/m 6,0 C 6,7 C 6,4 km/h (2 Bft) 95,74 %
14.11.2018 01:24 6,7 C 9,4 C 2,8 C 95 % 1031,5 hPa 0,0 l/m 4,8 km/h (1 Bft) SW 223 0 min 0,000 mm 0,0 UV-I 0 W/m 6,0 C 6,7 C 6,4 km/h (2 Bft) 97,87 %
14.11.2018 01:26 6,7 C 9,4 C 3,3 C 95 % 1031,5 hPa 0,0 l/m 5,5 km/h (1 Bft) SW 215 0 min 0,000 mm 0,0 UV-I 0 W/m 6,0 C 6,7 C 6,4 km/h (2 Bft) 98,00 %
14.11.2018 01:28 6,6 C 9,4 C 3,3 C 95 % 1031,5 hPa 0,0 l/m 5,3 km/h (1 Bft) SW 222 0 min 0,000 mm 0,0 UV-I 0 W/m 5,9 C 6,6 C 6,4 km/h (2 Bft) 100,00 %
14.11.2018 01:30 6,4 C 9,4 C 2,8 C 95 % 1031,5 hPa 0,0 l/m 5,1 km/h (1 Bft) SW 227 0 min 0,000 mm 0,0 UV-I 0 W/m 5,7 C 6,4 C 6,4 km/h (2 Bft) 100,00 %
14.11.2018 01:32 6,7 C 9,4 C 2,8 C 95 % 1031,5 hPa 0,0 l/m 5,8 km/h (2 Bft) SW 215 0 min 0,000 mm 0,0 UV-I 0 W/m 6,0 C 6,7 C 8,0 km/h (2 Bft) 100,00 %
14.11.2018 01:34 6,7 C 9,4 C 3,3 C 95 % 1031,5 hPa 0,0 l/m 5,3 km/h (1 Bft) SW 218 0 min 0,000 mm 0,0 UV-I 0 W/m 6,0 C 6,7 C 6,4 km/h (2 Bft) 100,00 %
14.11.2018 01:36 6,7 C 9,4 C 3,3 C 95 % 1031,5 hPa 0,0 l/m 5,9 km/h (2 Bft) SW 231 0 min 0,000 mm 0,0 UV-I 0 W/m 6,0 C 6,7 C 8,0 km/h (2 Bft) 100,00 %
14.11.2018 01:38 6,7 C 9,4 C 3,3 C 96 % 1031,5 hPa 0,0 l/m 5,8 km/h (2 Bft) SW 219 0 min 0,000 mm 0,0 UV-I 0 W/m 6,1 C 6,7 C 8,0 km/h (2 Bft) 95,65 %
14.11.2018 01:40 6,8 C 9,4 C 3,9 C 96 % 1031,5 hPa 0,0 l/m 6,5 km/h (2 Bft) W-SW 241 0 min 0,000 mm 0,0 UV-I 0 W/m 6,2 C 6,7 C 8,0 km/h (2 Bft) 100,00 %
14.11.2018 01:42 6,9 C 9,4 C 3,9 C 96 % 1031,5 hPa 0,0 l/m 6,3 km/h (2 Bft) SW 232 0 min 0,000 mm 0,0 UV-I 0 W/m 6,3 C 6,9 C 11,3 km/h (2 Bft) 100,00 %
14.11.2018 01:44 6,9 C 9,4 C 3,9 C 96 % 1031,4 hPa 0,0 l/m 5,8 km/h (2 Bft) W-SW 242 0 min 0,000 mm 0,0 UV-I 0 W/m 6,3 C 6,9 C 8,0 km/h (2 Bft) 100,00 %
14.11.2018 01:46 7,0 C 9,4 C 3,3 C 96 % 1031,4 hPa 0,0 l/m 5,4 km/h (1 Bft) W 264 0 min 0,000 mm 0,0 UV-I 0 W/m 6,4 C 7,0 C 9,7 km/h (2 Bft) 95,12 %
14.11.2018 01:48 7,1 C 9,4 C 3,9 C 96 % 1031,4 hPa 0,0 l/m 4,7 km/h (1 Bft) W 263 0 min 0,000 mm 0,0 UV-I 0 W/m 6,5 C 7,1 C 9,7 km/h (2 Bft) 100,00 %
14.11.2018 01:50 7,2 C 9,4 C 3,9 C 96 % 1031,4 hPa 0,0 l/m 2,9 km/h (1 Bft) W 263 0 min 0,000 mm 0,0 UV-I 0 W/m 6,6 C 7,2 C 4,8 km/h (1 Bft) 97,87 %
14.11.2018 01:52 7,1 C 9,4 C 3,9 C 95 % 1031,4 hPa 0,0 l/m 3,3 km/h (1 Bft) W-SW 238 0 min 0,000 mm 0,0 UV-I 0 W/m 6,4 C 7,1 C 6,4 km/h (2 Bft) 100,00 %
14.11.2018 01:54 7,1 C 9,4 C 3,9 C 95 % 1031,5 hPa 0,0 l/m 5,8 km/h (2 Bft) SW 223 0 min 0,000 mm 0,0 UV-I 0 W/m 6,4 C 7,1 C 6,4 km/h (2 Bft) 100,00 %
14.11.2018 01:56 6,9 C 9,4 C 4,4 C 95 % 1031,4 hPa 0,0 l/m 5,0 km/h (1 Bft) SW 225 0 min 0,000 mm 0,0 UV-I 0 W/m 6,2 C 6,9 C 6,4 km/h (2 Bft) 97,87 %
14.11.2018 01:58 6,8 C 9,4 C 3,9 C 95 % 1031,5 hPa 0,0 l/m 5,9 km/h (2 Bft) SW 214 0 min 0,000 mm 0,0 UV-I 0 W/m 6,1 C 6,8 C 8,0 km/h (2 Bft) 100,00 %
14.11.2018 02:00 6,7 C 9,4 C 3,3 C 94 % 1031,4 hPa 0,0 l/m 4,9 km/h (1 Bft) SW 218 0 min 0,000 mm 0,0 UV-I 0 W/m 5,8 C 6,7 C 6,4 km/h (2 Bft) 100,00 %
14.11.2018 02:02 6,4 C 9,4 C 2,8 C 94 % 1031,4 hPa 0,0 l/m 5,6 km/h (1 Bft) SW 222 0 min 0,000 mm 0,0 UV-I 0 W/m 5,5 C 6,4 C 8,0 km/h (2 Bft) 100,00 %
14.11.2018 02:04 6,3 C 9,4 C 2,8 C 95 % 1031,4 hPa 0,0 l/m 5,5 km/h (1 Bft) SW 227 0 min 0,000 mm 0,0 UV-I 0 W/m 5,6 C 6,3 C 8,0 km/h (2 Bft) 100,00 %
14.11.2018 02:06 6,4 C 9,4 C 2,8 C 95 % 1031,4 hPa 0,0 l/m 5,3 km/h (1 Bft) SW 224 0 min 0,000 mm 0,0 UV-I 0 W/m 5,7 C 6,4 C 6,4 km/h (2 Bft) 100,00 %
14.11.2018 02:08 6,4 C 9,4 C 2,8 C 95 % 1031,4 hPa 0,0 l/m 4,8 km/h (1 Bft) SW 232 0 min 0,000 mm 0,0 UV-I 0 W/m 5,7 C 6,4 C 6,4 km/h (2 Bft) 100,00 %
14.11.2018 02:10 6,5 C 9,4 C 2,8 C 95 % 1031,4 hPa 0,0 l/m 5,8 km/h (2 Bft) SW 223 0 min 0,000 mm 0,0 UV-I 0 W/m 5,8 C 6,5 C 8,0 km/h (2 Bft) 97,87 %
14.11.2018 02:12 6,5 C 9,4 C 2,8 C 95 % 1031,4 hPa 0,0 l/m 5,5 km/h (1 Bft) SW 223 0 min 0,000 mm 0,0 UV-I 0 W/m 5,8 C 6,5 C 6,4 km/h (2 Bft) 100,00 %
14.11.2018 02:14 6,6 C 9,4 C 3,3 C 95 % 1031,4 hPa 0,0 l/m 5,4 km/h (1 Bft) SW 223 0 min 0,000 mm 0,0 UV-I 0 W/m 5,9 C 6,6 C 6,4 km/h (2 Bft) 98,00 %
14.11.2018 02:16 6,6 C 9,4 C 3,3 C 95 % 1031,4 hPa 0,0 l/m 4,6 km/h (1 Bft) SW 222 0 min 0,000 mm 0,0 UV-I 0 W/m 5,9 C 6,6 C 6,4 km/h (2 Bft) 97,87 %
14.11.2018 02:18 6,5 C 9,4 C 3,3 C 95 % 1031,4 hPa 0,0 l/m 4,6 km/h (1 Bft) SW 236 0 min 0,000 mm 0,0 UV-I 0 W/m 5,8 C 6,5 C 6,4 km/h (2 Bft) 100,00 %
14.11.2018 02:20 6,5 C 9,4 C 3,3 C 95 % 1031,4 hPa 0,0 l/m 3,7 km/h (1 Bft) SW 233 0 min 0,000 mm 0,0 UV-I 0 W/m 5,8 C 6,5 C 6,4 km/h (2 Bft) 97,87 %
14.11.2018 02:22 6,4 C 9,4 C 3,9 C 95 % 1031,4 hPa 0,0 l/m 4,5 km/h (1 Bft) SW 223 0 min 0,000 mm 0,0 UV-I 0 W/m 5,7 C 6,4 C 6,4 km/h (2 Bft) 97,87 %
14.11.2018 02:24 6,4 C 9,4 C 3,3 C 95 % 1031,4 hPa 0,0 l/m 3,9 km/h (1 Bft) SW 228 0 min 0,000 mm 0,0 UV-I 0 W/m 5,7 C 6,4 C 6,4 km/h (2 Bft) 97,87 %
14.11.2018 02:26 6,5 C 9,4 C 3,3 C 95 % 1031,4 hPa 0,0 l/m 4,0 km/h (1 Bft) SW 227 0 min 0,000 mm 0,0 UV-I 0 W/m 5,8 C 6,5 C 6,4 km/h (2 Bft) 93,62 %
14.11.2018 02:28 6,5 C 9,4 C 2,8 C 95 % 1031,4 hPa 0,0 l/m 4,6 km/h (1 Bft) SW 225 0 min 0,000 mm 0,0 UV-I 0 W/m 5,8 C 6,5 C 6,4 km/h (2 Bft) 92,00 %
14.11.2018 02:30 6,5 C 9,4 C 2,8 C 95 % 1031,4 hPa 0,0 l/m 3,7 km/h (1 Bft) SW 231 0 min 0,000 mm 0,0 UV-I 0 W/m 5,8 C 6,5 C 4,8 km/h (1 Bft) 97,14 %
14.11.2018 02:32 6,6 C 9,4 C 2,8 C 95 % 1031,4 hPa 0,0 l/m 3,0 km/h (1 Bft) SW 232 0 min 0,000 mm 0,0 UV-I 0 W/m 5,9 C 6,6 C 4,8 km/h (1 Bft) 96,00 %
14.11.2018 02:34 6,6 C 9,4 C 2,2 C 95 % 1031,4 hPa 0,0 l/m 3,5 km/h (1 Bft) SW 233 0 min 0,000 mm 0,0 UV-I 0 W/m 5,9 C 6,6 C 6,4 km/h (2 Bft) 92,00 %
14.11.2018 02:36 6,7 C 9,4 C 2,2 C 96 % 1031,3 hPa 0,0 l/m 3,5 km/h (1 Bft) W-SW 252 0 min 0,000 mm 0,0 UV-I 0 W/m 6,1 C 6,7 C 4,8 km/h (1 Bft) 95,74 %
14.11.2018 02:38 6,7 C 9,4 C 2,2 C 96 % 1031,3 hPa 0,0 l/m 3,6 km/h (1 Bft) W-SW 252 0 min 0,000 mm 0,0 UV-I 0 W/m 6,1 C 6,7 C 4,8 km/h (1 Bft) 91,49 %
14.11.2018 02:40 6,7 C 9,4 C 2,8 C 95 % 1031,3 hPa 0,0 l/m 3,3 km/h (1 Bft) W-SW 252 0 min 0,000 mm 0,0 UV-I 0 W/m 6,0 C 6,7 C 4,8 km/h (1 Bft) 91,49 %
14.11.2018 02:42 6,8 C 9,4 C 2,2 C 95 % 1031,3 hPa 0,0 l/m 3,2 km/h (1 Bft) W-SW 249 0 min 0,000 mm 0,0 UV-I 0 W/m 6,1 C 6,8 C 4,8 km/h (1 Bft) 97,87 %
14.11.2018 02:44 6,7 C 9,4 C 2,2 C 95 % 1031,3 hPa 0,0 l/m 3,4 km/h (1 Bft) W-SW 244 0 min 0,000 mm 0,0 UV-I 0 W/m 6,0 C 6,7 C 4,8 km/h (1 Bft) 95,83 %
14.11.2018 02:46 6,7 C 9,4 C 1,7 C 95 % 1031,3 hPa 0,0 l/m 3,8 km/h (1 Bft) W-SW 246 0 min 0,000 mm 0,0 UV-I 0 W/m 6,0 C 6,7 C 4,8 km/h (1 Bft) 97,87 %
14.11.2018 02:48 6,7 C 9,4 C 2,2 C 95 % 1031,3 hPa 0,0 l/m 4,0 km/h (1 Bft) W-SW 245 0 min 0,000 mm 0,0 UV-I 0 W/m 6,0 C 6,7 C 4,8 km/h (1 Bft) 98,00 %
14.11.2018 02:50 6,7 C 9,4 C 2,2 C 95 % 1031,3 hPa 0,0 l/m 2,9 km/h (1 Bft) W-SW 245 0 min 0,000 mm 0,0 UV-I 0 W/m 6,0 C 6,7 C 6,4 km/h (2 Bft) 97,87 %
14.11.2018 02:52 6,7 C 9,4 C 2,8 C 95 % 1031,3 hPa 0,0 l/m 3,3 km/h (1 Bft) W 259 0 min 0,000 mm 0,0 UV-I 0 W/m 6,0 C 6,7 C 4,8 km/h (1 Bft) 97,87 %
14.11.2018 02:54 6,7 C 9,4 C 2,8 C 95 % 1031,3 hPa 0,0 l/m 3,2 km/h (1 Bft) W 260 0 min 0,000 mm 0,0 UV-I 0 W/m 6,0 C 6,7 C 4,8 km/h (1 Bft) 95,74 %
14.11.2018 02:56 6,7 C 9,4 C 2,8 C 95 % 1031,3 hPa 0,0 l/m 3,0 km/h (1 Bft) W 260 0 min 0,000 mm 0,0 UV-I 0 W/m 6,0 C 6,7 C 3,2 km/h (1 Bft) 97,87 %
14.11.2018 02:58 6,7 C 9,4 C 2,2 C 95 % 1031,3 hPa 0,0 l/m 2,4 km/h (1 Bft) W 260 0 min 0,000 mm 0,0 UV-I 0 W/m 6,0 C 6,7 C 3,2 km/h (1 Bft) 97,87 %
14.11.2018 03:00 6,6 C 9,4 C 1,7 C 95 % 1031,3 hPa 0,0 l/m 2,7 km/h (1 Bft) W 260 0 min 0,000 mm 0,0 UV-I 0 W/m 5,9 C 6,6 C 3,2 km/h (1 Bft) 97,87 %
14.11.2018 03:02 6,6 C 9,4 C 1,1 C 95 % 1031,3 hPa 0,0 l/m 1,9 km/h (1 Bft) W 260 0 min 0,000 mm 0,0 UV-I 0 W/m 5,9 C 6,6 C 3,2 km/h (1 Bft) 97,37 %
14.11.2018 03:04 6,4 C 9,4 C 1,1 C 95 % 1031,3 hPa 0,0 l/m 1,8 km/h (1 Bft) W 260 0 min 0,000 mm 0,0 UV-I 0 W/m 5,7 C 6,4 C 3,2 km/h (1 Bft) 100,00 %
14.11.2018 03:06 6,3 C 9,4 C 1,7 C 95 % 1031,3 hPa 0,0 l/m 1,7 km/h (1 Bft) W 260 0 min 0,000 mm 0,0 UV-I 0 W/m 5,6 C 6,3 C 3,2 km/h (1 Bft) 97,87 %
14.11.2018 03:08 6,2 C 9,4 C 1,7 C 95 % 1031,3 hPa 0,0 l/m 1,6 km/h (1 Bft) W 260 0 min 0,000 mm 0,0 UV-I 0 W/m 5,5 C 6,2 C 3,2 km/h (1 Bft) 98,00 %
14.11.2018 03:10 6,2 C 9,4 C 1,7 C 95 % 1031,2 hPa 0,0 l/m 1,9 km/h (1 Bft) W 260 0 min 0,000 mm 0,0 UV-I 0 W/m 5,5 C 6,2 C 3,2 km/h (1 Bft) 97,87 %
14.11.2018 03:12 6,2 C 9,4 C 2,2 C 95 % 1031,2 hPa 0,0 l/m 2,7 km/h (1 Bft) W 266 0 min 0,000 mm 0,0 UV-I 0 W/m 5,5 C 6,2 C 3,2 km/h (1 Bft) 97,87 %
14.11.2018 03:14 6,2 C 9,4 C 2,8 C 95 % 1031,2 hPa 0,0 l/m 3,3 km/h (1 Bft) W-SW 250 0 min 0,000 mm 0,0 UV-I 0 W/m 5,5 C 6,2 C 11,3 km/h (2 Bft) 100,00 %
14.11.2018 03:16 6,3 C 9,4 C 3,9 C 95 % 1031,2 hPa 0,0 l/m 3,2 km/h (1 Bft) W-NW 290 0 min 0,000 mm 0,0 UV-I 0 W/m 5,6 C 6,3 C 4,8 km/h (1 Bft) 100,00 %
14.11.2018 03:18 6,2 C 9,4 C 4,4 C 95 % 1031,2 hPa 0,0 l/m 3,1 km/h (1 Bft) W-NW 282 0 min 0,000 mm 0,0 UV-I 0 W/m 5,5 C 6,2 C 4,8 km/h (1 Bft) 100,00 %
14.11.2018 03:20 6,3 C 9,4 C 5,0 C 95 % 1031,2 hPa 0,0 l/m 4,4 km/h (1 Bft) W-NW 282 0 min 0,000 mm 0,0 UV-I 0 W/m 5,6 C 6,3 C 6,4 km/h (2 Bft) 98,00 %
14.11.2018 03:22 6,3 C 9,4 C 4,4 C 95 % 1031,2 hPa 0,0 l/m 4,7 km/h (1 Bft) W-NW 290 0 min 0,000 mm 0,0 UV-I 0 W/m 5,6 C 6,3 C 9,7 km/h (2 Bft) 100,00 %
14.11.2018 03:24 6,3 C 9,4 C 4,4 C 96 % 1031,2 hPa 0,0 l/m 4,8 km/h (1 Bft) W-NW 286 0 min 0,000 mm 0,0 UV-I 0 W/m 5,7 C 6,3 C 11,3 km/h (2 Bft) 97,87 %
14.11.2018 03:26 6,4 C 9,4 C 4,4 C 96 % 1031,2 hPa 0,0 l/m 5,1 km/h (1 Bft) W-NW 290 0 min 0,000 mm 0,0 UV-I 0 W/m 5,8 C 6,4 C 9,7 km/h (2 Bft) 100,00 %
14.11.2018 03:28 6,6 C 9,4 C 4,4 C 96 % 1031,2 hPa 0,0 l/m 3,5 km/h (1 Bft) NW 317 0 min 0,000 mm 0,0 UV-I 0 W/m 6,0 C 6,6 C 6,4 km/h (2 Bft) 100,00 %
14.11.2018 03:30 6,6 C 9,4 C 3,9 C 96 % 1031,1 hPa 0,0 l/m 3,8 km/h (1 Bft) NW 311 0 min 0,000 mm 0,0 UV-I 0 W/m 6,0 C 6,6 C 6,4 km/h (2 Bft) 100,00 %
14.11.2018 03:32 6,6 C 9,4 C 3,9 C 96 % 1031,1 hPa 0,0 l/m 2,8 km/h (1 Bft) NW 313 0 min 0,000 mm 0,0 UV-I 0 W/m 6,0 C 6,6 C 4,8 km/h (1 Bft) 97,87 %
14.11.2018 03:34 6,6 C 9,4 C 3,3 C 96 % 1031,1 hPa 0,0 l/m 3,2 km/h (1 Bft) NW 304 0 min 0,000 mm 0,0 UV-I 0 W/m 6,0 C 6,6 C 4,8 km/h (1 Bft) 100,00 %
14.11.2018 03:36 6,6 C 9,4 C 3,9 C 96 % 1031,1 hPa 0,0 l/m 4,1 km/h (1 Bft) W-NW 288 0 min 0,000 mm 0,0 UV-I 0 W/m 6,0 C 6,6 C 12,9 km/h (3 Bft) 100,00 %
14.11.2018 03:38 6,6 C 9,4 C 3,3 C 96 % 1031,1 hPa 0,0 l/m 2,8 km/h (1 Bft) W-NW 292 0 min 0,000 mm 0,0 UV-I 0 W/m 6,0 C 6,6 C 4,8 km/h (1 Bft) 95,74 %
14.11.2018 03:40 6,5 C 9,4 C 2,8 C 96 % 1031,1 hPa 0,0 l/m 3,2 km/h (1 Bft) W-NW 292 0 min 0,000 mm 0,0 UV-I 0 W/m 5,9 C 6,5 C 4,8 km/h (1 Bft) 95,74 %
14.11.2018 03:42 6,6 C 9,4 C 3,3 C 96 % 1031,1 hPa 0,0 l/m 2,8 km/h (1 Bft) NW 305 0 min 0,000 mm 0,0 UV-I 0 W/m 6,0 C 6,6 C 4,8 km/h (1 Bft) 94,29 %
14.11.2018 03:44 6,7 C 9,4 C 3,3 C 96 % 1031,1 hPa 0,0 l/m 3,0 km/h (1 Bft) W-NW 301 0 min 0,000 mm 0,0 UV-I 0 W/m 6,1 C 6,7 C 4,8 km/h (1 Bft) 96,00 %
14.11.2018 03:46 6,7 C 9,4 C 3,3 C 96 % 1031,1 hPa 0,0 l/m 1,0 km/h (0 Bft) W-NW 301 0 min 0,000 mm 0,0 UV-I 0 W/m 6,1 C 6,7 C 3,2 km/h (1 Bft) 95,74 %
14.11.2018 03:48 6,7 C 9,4 C 2,8 C 96 % 1031,1 hPa 0,0 l/m 1,0 km/h (0 Bft) W-NW 301 0 min 0,000 mm 0,0 UV-I 0 W/m 6,1 C 6,7 C 3,2 km/h (1 Bft) 95,74 %
14.11.2018 03:50 6,7 C 9,4 C 2,2 C 96 % 1031,0 hPa 0,0 l/m 0,4 km/h (0 Bft) W-NW 301 0 min 0,000 mm 0,0 UV-I 0 W/m 6,1 C 6,7 C 3,2 km/h (1 Bft) 93,62 %
14.11.2018 03:52 6,6 C 9,4 C 1,7 C 96 % 1031,0 hPa 0,0 l/m 2,0 km/h (1 Bft) W-NW 300 0 min 0,000 mm 0,0 UV-I 0 W/m 6,0 C 6,6 C 3,2 km/h (1 Bft) 96,00 %
14.11.2018 03:54 6,7 C 9,4 C 1,7 C 96 % 1031,0 hPa 0,0 l/m 1,9 km/h (1 Bft) W-NW 300 0 min 0,000 mm 0,0 UV-I 0 W/m 6,1 C 6,7 C 3,2 km/h (1 Bft) 95,74 %
14.11.2018 03:56 6,7 C 9,4 C 1,1 C 96 % 1030,9 hPa 0,0 l/m 2,1 km/h (1 Bft) W-NW 300 0 min 0,000 mm 0,0 UV-I 0 W/m 6,1 C 6,7 C 3,2 km/h (1 Bft) 93,62 %
14.11.2018 03:58 6,6 C 9,4 C 1,1 C 95 % 1030,9 hPa 0,0 l/m 1,1 km/h (1 Bft) W-NW 300 0 min 0,000 mm 0,0 UV-I 0 W/m 5,9 C 6,6 C 1,6 km/h (1 Bft) 91,67 %
14.11.2018 04:00 6,6 C 9,4 C 1,1 C 95 % 1030,9 hPa 0,0 l/m 2,9 km/h (1 Bft) W-NW 301 0 min 0,000 mm 0,0 UV-I 0 W/m 5,9 C 6,6 C 4,8 km/h (1 Bft) 97,87 %
14.11.2018 04:02 6,5 C 9,4 C 1,1 C 95 % 1031,0 hPa 0,0 l/m 2,9 km/h (1 Bft) W-NW 302 0 min 0,000 mm 0,0 UV-I 0 W/m 5,8 C 6,5 C 4,8 km/h (1 Bft) 93,75 %
14.11.2018 04:04 6,2 C 9,4 C 1,1 C 95 % 1030,9 hPa 0,0 l/m 1,4 km/h (1 Bft) W-NW 302 0 min 0,000 mm 0,0 UV-I 0 W/m 5,5 C 6,2 C 3,2 km/h (1 Bft) 97,87 %
14.11.2018 04:06 5,9 C 9,4 C 1,1 C 95 % 1031,0 hPa 0,0 l/m 1,2 km/h (1 Bft) W-NW 302 0 min 0,000 mm 0,0 UV-I 0 W/m 5,2 C 5,9 C 1,6 km/h (1 Bft) 97,87 %
14.11.2018 04:08 5,8 C 9,4 C 0,6 C 95 % 1031,0 hPa 0,0 l/m 0,1 km/h (0 Bft) W-NW 302 0 min 0,000 mm 0,0 UV-I 0 W/m 5,1 C 5,8 C 1,6 km/h (1 Bft) 97,87 %
14.11.2018 04:10 5,7 C 9,4 C 0,6 C 95 % 1031,0 hPa 0,0 l/m 0,0 km/h (0 Bft) W-NW 302 0 min 0,000 mm 0,0 UV-I 0 W/m 5,0 C 5,7 C 0,0 km/h (0 Bft) 95,74 %
14.11.2018 04:12 5,7 C 9,4 C 0,6 C 96 % 1031,0 hPa 0,0 l/m 1,1 km/h (1 Bft) W-NW 302 0 min 0,000 mm 0,0 UV-I 0 W/m 5,1 C 5,7 C 3,2 km/h (1 Bft) 97,96 %
14.11.2018 04:14 5,7 C 9,4 C 0,0 C 95 % 1031,0 hPa 0,0 l/m 2,4 km/h (1 Bft) W-NW 303 0 min 0,000 mm 0,0 UV-I 0 W/m 5,0 C 5,7 C 3,2 km/h (1 Bft) 95,74 %
14.11.2018 04:16 5,5 C 9,4 C 1,1 C 95 % 1031,0 hPa 0,0 l/m 2,5 km/h (1 Bft) W-NW 303 0 min 0,000 mm 0,0 UV-I 0 W/m 4,8 C 5,5 C 3,2 km/h (1 Bft) 94,29 %
14.11.2018 04:18 5,4 C 9,4 C 1,7 C 95 % 1031,0 hPa 0,0 l/m 3,3 km/h (1 Bft) W-NW 303 0 min 0,000 mm 0,0 UV-I 0 W/m 4,7 C 5,4 C 4,8 km/h (1 Bft) 98,11 %
14.11.2018 04:20 5,2 C 9,4 C 1,1 C 95 % 1031,0 hPa 0,0 l/m 3,1 km/h (1 Bft) W-NW 303 0 min 0,000 mm 0,0 UV-I 0 W/m 4,5 C 5,2 C 3,2 km/h (1 Bft) 92,00 %
14.11.2018 04:22 5,0 C 9,4 C 1,1 C 95 % 1031,0 hPa 0,0 l/m 2,9 km/h (1 Bft) W-NW 303 0 min 0,000 mm 0,0 UV-I 0 W/m 4,3 C 5,0 C 3,2 km/h (1 Bft) 100,00 %
14.11.2018 04:24 4,9 C 9,4 C 0,6 C 95 % 1031,0 hPa 0,0 l/m 3,0 km/h (1 Bft) W-NW 302 0 min 0,000 mm 0,0 UV-I 0 W/m 4,2 C 4,9 C 3,2 km/h (1 Bft) 97,87 %
14.11.2018 04:26 4,9 C 9,4 C 0,0 C 96 % 1031,0 hPa 0,0 l/m 2,5 km/h (1 Bft) S-SW 204 0 min 0,000 mm 0,0 UV-I 0 W/m 4,3 C 4,9 C 3,2 km/h (1 Bft) 97,87 %
14.11.2018 04:28 4,9 C 9,4 C 0,0 C 96 % 1031,0 hPa 0,0 l/m 2,4 km/h (1 Bft) S-SW 204 0 min 0,000 mm 0,0 UV-I 0 W/m 4,3 C 4,9 C 3,2 km/h (1 Bft) 97,37 %
14.11.2018 04:30 4,8 C 9,4 C 0,6 C 96 % 1031,0 hPa 0,0 l/m 1,8 km/h (1 Bft) S-SW 204 0 min 0,000 mm 0,0 UV-I 0 W/m 4,2 C 4,8 C 3,2 km/h (1 Bft) 95,83 %
14.11.2018 04:32 4,7 C 9,4 C 0,6 C 96 % 1031,0 hPa 0,0 l/m 2,1 km/h (1 Bft) S-SW 205 0 min 0,000 mm 0,0 UV-I 0 W/m 4,1 C 4,7 C 3,2 km/h (1 Bft) 91,49 %
14.11.2018 04:34 4,7 C 9,4 C 0,6 C 96 % 1031,0 hPa 0,0 l/m 1,7 km/h (1 Bft) S-SW 205 0 min 0,000 mm 0,0 UV-I 0 W/m 4,1 C 4,7 C 3,2 km/h (1 Bft) 98,28 %
14.11.2018 04:36 4,8 C 9,4 C 0,6 C 96 % 1031,0 hPa 0,0 l/m 2,1 km/h (1 Bft) S-SW 205 0 min 0,000 mm 0,0 UV-I 0 W/m 4,2 C 4,8 C 3,2 km/h (1 Bft) 97,22 %
14.11.2018 04:38 4,9 C 9,4 C 0,6 C 96 % 1031,0 hPa 0,0 l/m 2,5 km/h (1 Bft) S-SW 205 0 min 0,000 mm 0,0 UV-I 0 W/m 4,3 C 4,9 C 3,2 km/h (1 Bft) 97,87 %
14.11.2018 04:40 5,1 C 9,4 C 0,6 C 97 % 1031,0 hPa 0,0 l/m 3,0 km/h (1 Bft) S-SW 205 0 min 0,000 mm 0,0 UV-I 0 W/m 4,7 C 5,1 C 3,2 km/h (1 Bft) 100,00 %
14.11.2018 04:42 5,3 C 9,4 C 1,1 C 97 % 1031,1 hPa 0,0 l/m 2,5 km/h (1 Bft) S-SW 205 0 min 0,000 mm 0,0 UV-I 0 W/m 4,9 C 5,3 C 3,2 km/h (1 Bft) 100,00 %
14.11.2018 04:44 5,3 C 9,4 C 1,7 C 97 % 1031,1 hPa 0,0 l/m 1,8 km/h (1 Bft) S-SW 205 0 min 0,000 mm 0,0 UV-I 0 W/m 4,9 C 5,3 C 3,2 km/h (1 Bft) 100,00 %
14.11.2018 04:46 5,1 C 9,4 C 1,7 C 96 % 1031,1 hPa 0,0 l/m 0,8 km/h (0 Bft) S-SW 205 0 min 0,000 mm 0,0 UV-I 0 W/m 4,5 C 5,1 C 1,6 km/h (1 Bft) 100,00 %
14.11.2018 04:48 5,0 C 9,4 C 1,7 C 96 % 1031,1 hPa 0,0 l/m 1,1 km/h (1 Bft) S-SW 205 0 min 0,000 mm 0,0 UV-I 0 W/m 4,4 C 5,0 C 3,2 km/h (1 Bft) 98,00 %
14.11.2018 04:50 4,9 C 9,4 C 2,2 C 96 % 1031,0 hPa 0,0 l/m 2,8 km/h (1 Bft) S-SW 205 0 min 0,000 mm 0,0 UV-I 0 W/m 4,3 C 4,9 C 3,2 km/h (1 Bft) 95,74 %
14.11.2018 04:52 5,1 C 9,4 C 2,2 C 96 % 1031,0 hPa 0,0 l/m 1,3 km/h (1 Bft) S-SW 205 0 min 0,000 mm 0,0 UV-I 0 W/m 4,5 C 5,1 C 3,2 km/h (1 Bft) 95,74 %
14.11.2018 04:54 5,6 C 9,4 C 1,7 C 97 % 1031,0 hPa 0,0 l/m 1,2 km/h (1 Bft) S-SW 205 0 min 0,000 mm 0,0 UV-I 0 W/m 5,2 C 5,6 C 1,6 km/h (1 Bft) 95,92 %
14.11.2018 04:56 5,5 C 9,4 C 2,2 C 97 % 1031,1 hPa 0,0 l/m 0,9 km/h (0 Bft) S-SW 205 0 min 0,000 mm 0,0 UV-I 0 W/m 5,1 C 5,5 C 1,6 km/h (1 Bft) 94,00 %
14.11.2018 04:58 5,3 C 9,4 C 1,7 C 97 % 1031,1 hPa 0,0 l/m 0,8 km/h (0 Bft) S-SW 205 0 min 0,000 mm 0,0 UV-I 0 W/m 4,9 C 5,3 C 1,6 km/h (1 Bft) 95,74 %
14.11.2018 05:00 5,1 C 9,4 C 2,2 C 97 % 1031,0 hPa 0,0 l/m 1,5 km/h (1 Bft) S-SW 205 0 min 0,000 mm 0,0 UV-I 0 W/m 4,7 C 5,1 C 3,2 km/h (1 Bft) 95,12 %
14.11.2018 05:02 4,9 C 9,4 C 2,2 C 96 % 1031,0 hPa 0,0 l/m 3,4 km/h (1 Bft) S-SW 205 0 min 0,000 mm 0,0 UV-I 0 W/m 4,3 C 4,9 C 4,8 km/h (1 Bft) 93,62 %
14.11.2018 05:04 5,0 C 9,4 C 1,7 C 96 % 1031,0 hPa 0,0 l/m 3,4 km/h (1 Bft) S-SW 205 0 min 0,000 mm 0,0 UV-I 0 W/m 4,4 C 5,0 C 4,8 km/h (1 Bft) 95,74 %
14.11.2018 05:06 5,1 C 9,4 C 1,7 C 97 % 1031,1 hPa 0,0 l/m 3,7 km/h (1 Bft) S-SW 205 0 min 0,000 mm 0,0 UV-I 0 W/m 4,7 C 5,1 C 4,8 km/h (1 Bft) 93,62 %
14.11.2018 05:08 5,0 C 9,4 C 1,7 C 97 % 1031,1 hPa 0,0 l/m 3,5 km/h (1 Bft) S-SW 205 0 min 0,000 mm 0,0 UV-I 0 W/m 4,6 C 5,0 C 4,8 km/h (1 Bft) 95,74 %
14.11.2018 05:10 4,8 C 9,4 C 1,1 C 96 % 1031,1 hPa 0,0 l/m 4,3 km/h (1 Bft) S-SW 205 0 min 0,000 mm 0,0 UV-I 0 W/m 4,2 C 4,8 C 4,8 km/h (1 Bft) 97,87 %
14.11.2018 05:12 4,7 C 9,4 C 0,6 C 97 % 1031,1 hPa 0,0 l/m 3,7 km/h (1 Bft) S-SW 205 0 min 0,000 mm 0,0 UV-I 0 W/m 4,3 C 4,7 C 4,8 km/h (1 Bft) 92,00 %
14.11.2018 05:14 4,7 C 9,4 C 0,6 C 97 % 1031,1 hPa 0,0 l/m 3,9 km/h (1 Bft) S-SW 210 0 min 0,000 mm 0,0 UV-I 0 W/m 4,3 C 4,7 C 6,4 km/h (2 Bft) 95,74 %
14.11.2018 05:16 4,6 C 9,4 C 0,6 C 96 % 1031,1 hPa 0,0 l/m 3,7 km/h (1 Bft) S-SW 210 0 min 0,000 mm 0,0 UV-I 0 W/m 4,0 C 4,6 C 4,8 km/h (1 Bft) 97,92 %
14.11.2018 05:18 4,6 C 9,4 C 0,6 C 96 % 1031,2 hPa 0,0 l/m 3,1 km/h (1 Bft) S-SW 210 0 min 0,000 mm 0,0 UV-I 0 W/m 4,0 C 4,6 C 3,2 km/h (1 Bft) 97,87 %
14.11.2018 05:20 4,4 C 9,4 C 0,0 C 97 % 1031,2 hPa 0,0 l/m 1,9 km/h (1 Bft) S-SW 210 0 min 0,000 mm 0,0 UV-I 0 W/m 4,0 C 4,4 C 3,2 km/h (1 Bft) 97,87 %
14.11.2018 05:22 4,4 C 9,4 C 0,0 C 96 % 1031,2 hPa 0,0 l/m 1,5 km/h (1 Bft) S-SW 210 0 min 0,000 mm 0,0 UV-I 0 W/m 3,8 C 4,4 C 3,2 km/h (1 Bft) 97,30 %
14.11.2018 05:24 4,3 C 9,4 C 0,0 C 96 % 1031,3 hPa 0,0 l/m 1,0 km/h (0 Bft) S-SW 210 0 min 0,000 mm 0,0 UV-I 0 W/m 3,7 C 4,3 C 1,6 km/h (1 Bft) 95,74 %
14.11.2018 05:26 4,3 C 9,4 C -0,6 C 96 % 1031,3 hPa 0,0 l/m 1,5 km/h (1 Bft) S-SW 210 0 min 0,000 mm 0,0 UV-I 0 W/m 3,7 C 4,3 C 1,6 km/h (1 Bft) 97,87 %
14.11.2018 05:28 4,4 C 9,4 C -0,6 C 97 % 1031,3 hPa 0,0 l/m 2,1 km/h (1 Bft) S-SW 210 0 min 0,000 mm 0,0 UV-I 0 W/m 4,0 C 4,4 C 3,2 km/h (1 Bft) 100,00 %
14.11.2018 05:30 4,3 C 9,4 C 0,0 C 97 % 1031,3 hPa 0,0 l/m 0,5 km/h (0 Bft) S-SW 210 0 min 0,000 mm 0,0 UV-I 0 W/m 3,9 C 4,3 C 1,6 km/h (1 Bft) 98,00 %
14.11.2018 05:32 4,4 C 9,4 C -0,6 C 97 % 1031,3 hPa 0,0 l/m 0,1 km/h (0 Bft) S-SW 209 0 min 0,000 mm 0,0 UV-I 0 W/m 4,0 C 4,4 C 1,6 km/h (1 Bft) 100,00 %
14.11.2018 05:34 4,4 C 9,4 C 0,0 C 97 % 1031,3 hPa 0,0 l/m 0,0 km/h (0 Bft) S-SW 209 0 min 0,000 mm 0,0 UV-I 0 W/m 4,0 C 4,4 C 0,0 km/h (0 Bft) 100,00 %
14.11.2018 05:36 4,5 C 9,4 C 0,0 C 97 % 1031,3 hPa 0,0 l/m 0,0 km/h (0 Bft) S-SW 210 0 min 0,000 mm 0,0 UV-I 0 W/m 4,1 C 4,5 C 0,0 km/h (0 Bft) 100,00 %
14.11.2018 05:38 4,5 C 9,4 C 0,0 C 97 % 1031,3 hPa 0,0 l/m 0,9 km/h (0 Bft) S-SW 210 0 min 0,000 mm 0,0 UV-I 0 W/m 4,1 C 4,5 C 3,2 km/h (1 Bft) 100,00 %
14.11.2018 05:40 4,4 C 9,4 C 0,0 C 97 % 1031,3 hPa 0,0 l/m 2,5 km/h (1 Bft) S-SW 209 0 min 0,000 mm 0,0 UV-I 0 W/m 4,0 C 4,4 C 3,2 km/h (1 Bft) 97,87 %
14.11.2018 05:42 4,2 C 9,4 C 0,0 C 97 % 1031,3 hPa 0,0 l/m 2,9 km/h (1 Bft) S-SW 209 0 min 0,000 mm 0,0 UV-I 0 W/m 3,8 C 4,2 C 3,2 km/h (1 Bft) 100,00 %
14.11.2018 05:44 3,9 C 9,4 C 0,0 C 97 % 1031,3 hPa 0,0 l/m 2,8 km/h (1 Bft) S-SW 209 0 min 0,000 mm 0,0 UV-I 0 W/m 3,5 C 3,9 C 3,2 km/h (1 Bft) 100,00 %
14.11.2018 05:46 3,8 C 9,4 C 0,0 C 97 % 1031,3 hPa 0,0 l/m 2,5 km/h (1 Bft) S-SW 209 0 min 0,000 mm 0,0 UV-I 0 W/m 3,4 C 3,8 C 3,2 km/h (1 Bft) 95,74 %
14.11.2018 05:48 3,8 C 9,4 C 0,0 C 97 % 1031,3 hPa 0,0 l/m 3,3 km/h (1 Bft) S-SW 209 0 min 0,000 mm 0,0 UV-I 0 W/m 3,4 C 3,8 C 4,8 km/h (1 Bft) 97,87 %
14.11.2018 05:50 4,0 C 9,4 C 0,0 C 97 % 1031,4 hPa 0,0 l/m 3,4 km/h (1 Bft) S-SW 209 0 min 0,000 mm 0,0 UV-I 0 W/m 3,6 C 4,0 C 4,8 km/h (1 Bft) 100,00 %
14.11.2018 05:52 4,1 C 9,4 C 0,6 C 97 % 1031,3 hPa 0,0 l/m 3,2 km/h (1 Bft) S-SW 209 0 min 0,000 mm 0,0 UV-I 0 W/m 3,7 C 4,1 C 4,8 km/h (1 Bft) 100,00 %
14.11.2018 05:54 4,2 C 9,4 C 0,6 C 97 % 1031,3 hPa 0,0 l/m 2,2 km/h (1 Bft) S-SW 209 0 min 0,000 mm 0,0 UV-I 0 W/m 3,8 C 4,2 C 3,2 km/h (1 Bft) 100,00 %
14.11.2018 05:56 4,1 C 9,4 C 0,0 C 97 % 1031,4 hPa 0,0 l/m 0,7 km/h (0 Bft) S-SW 209 0 min 0,000 mm 0,0 UV-I 0 W/m 3,7 C 4,1 C 1,6 km/h (1 Bft) 100,00 %
14.11.2018 05:58 4,1 C 9,4 C 0,6 C 97 % 1031,4 hPa 0,0 l/m 0,7 km/h (0 Bft) S-SW 209 0 min 0,000 mm 0,0 UV-I 0 W/m 3,7 C 4,1 C 1,6 km/h (1 Bft) 100,00 %
14.11.2018 06:00 4,1 C 9,4 C 0,6 C 97 % 1031,4 hPa 0,0 l/m 0,6 km/h (0 Bft) S-SW 209 0 min 0,000 mm 0,0 UV-I 0 W/m 3,7 C 4,1 C 3,2 km/h (1 Bft) 97,37 %
14.11.2018 06:02 4,1 C 9,4 C 1,1 C 97 % 1031,4 hPa 0,0 l/m 0,1 km/h (0 Bft) S-SW 209 0 min 0,000 mm 0,0 UV-I 0 W/m 3,7 C 4,1 C 1,6 km/h (1 Bft) 100,00 %
14.11.2018 06:04 4,2 C 9,4 C 1,1 C 97 % 1031,4 hPa 0,0 l/m 0,0 km/h (0 Bft) S-SW 209 0 min 0,000 mm 0,0 UV-I 0 W/m 3,8 C 4,2 C 0,0 km/h (0 Bft) 100,00 %
14.11.2018 06:06 4,2 C 9,4 C 1,7 C 97 % 1031,3 hPa 0,0 l/m 0,3 km/h (0 Bft) S-SW 209 0 min 0,000 mm 0,0 UV-I 0 W/m 3,8 C 4,2 C 1,6 km/h (1 Bft) 98,00 %
14.11.2018 06:08 4,3 C 9,4 C 2,2 C 97 % 1031,3 hPa 0,0 l/m 2,8 km/h (1 Bft) N-NW 346 0 min 0,000 mm 0,0 UV-I 0 W/m 3,9 C 4,3 C 6,4 km/h (2 Bft) 95,74 %
14.11.2018 06:10 4,7 C 9,4 C 2,8 C 97 % 1031,3 hPa 0,0 l/m 3,0 km/h (1 Bft) N-NW 346 0 min 0,000 mm 0,0 UV-I 0 W/m 4,3 C 4,7 C 4,8 km/h (1 Bft) 97,87 %
14.11.2018 06:12 5,0 C 9,4 C 3,3 C 97 % 1031,4 hPa 0,0 l/m 2,2 km/h (1 Bft) N-NW 345 0 min 0,000 mm 0,0 UV-I 0 W/m 4,6 C 5,0 C 3,2 km/h (1 Bft) 100,00 %
14.11.2018 06:14 4,9 C 9,4 C 3,3 C 97 % 1031,4 hPa 0,0 l/m 2,6 km/h (1 Bft) NW 320 0 min 0,000 mm 0,0 UV-I 0 W/m 4,5 C 4,9 C 4,8 km/h (1 Bft) 95,74 %
14.11.2018 06:16 4,8 C 9,4 C 3,9 C 97 % 1031,3 hPa 0,0 l/m 1,4 km/h (1 Bft) NW 320 0 min 0,000 mm 0,0 UV-I 0 W/m 4,4 C 4,8 C 3,2 km/h (1 Bft) 97,87 %
14.11.2018 06:18 4,7 C 9,4 C 3,9 C 97 % 1031,3 hPa 0,0 l/m 1,1 km/h (1 Bft) NW 320 0 min 0,000 mm 0,0 UV-I 0 W/m 4,3 C 4,7 C 1,6 km/h (1 Bft) 97,87 %
14.11.2018 06:20 4,7 C 9,4 C 4,4 C 97 % 1031,3 hPa 0,0 l/m 1,0 km/h (0 Bft) NW 320 0 min 0,000 mm 0,0 UV-I 0 W/m 4,3 C 4,7 C 3,2 km/h (1 Bft) 98,08 %
14.11.2018 06:22 4,7 C 9,4 C 4,4 C 97 % 1031,4 hPa 0,0 l/m 1,6 km/h (1 Bft) NW 320 0 min 0,000 mm 0,0 UV-I 0 W/m 4,3 C 4,7 C 3,2 km/h (1 Bft) 98,00 %
14.11.2018 06:24 4,7 C 9,4 C 4,4 C 97 % 1031,3 hPa 0,0 l/m 2,0 km/h (1 Bft) NW 320 0 min 0,000 mm 0,0 UV-I 0 W/m 4,3 C 4,7 C 3,2 km/h (1 Bft) 97,87 %
14.11.2018 06:26 4,7 C 9,4 C 4,4 C 97 % 1031,3 hPa 0,0 l/m 1,5 km/h (1 Bft) NW 320 0 min 0,000 mm 0,0 UV-I 0 W/m 4,3 C 4,7 C 3,2 km/h (1 Bft) 95,92 %
14.11.2018 06:28 4,8 C 9,4 C 4,4 C 97 % 1031,3 hPa 0,0 l/m 1,4 km/h (1 Bft) NW 320 0 min 0,000 mm 0,0 UV-I 0 W/m 4,4 C 4,8 C 1,6 km/h (1 Bft) 100,00 %
14.11.2018 06:30 4,8 C 9,4 C 5,0 C 97 % 1031,3 hPa 0,0 l/m 0,7 km/h (0 Bft) NW 320 0 min 0,000 mm 0,0 UV-I 0 W/m 4,4 C 4,8 C 1,6 km/h (1 Bft) 100,00 %
14.11.2018 06:32 4,9 C 9,4 C 5,0 C 97 % 1031,3 hPa 0,0 l/m 1,4 km/h (1 Bft) NW 321 0 min 0,000 mm 0,0 UV-I 0 W/m 4,5 C 4,9 C 3,2 km/h (1 Bft) 100,00 %
14.11.2018 06:34 5,1 C 9,4 C 5,0 C 97 % 1031,4 hPa 0,0 l/m 2,0 km/h (1 Bft) NW 321 0 min 0,000 mm 0,0 UV-I 0 W/m 4,7 C 5,1 C 3,2 km/h (1 Bft) 100,00 %
14.11.2018 06:36 5,3 C 9,4 C 5,0 C 97 % 1031,5 hPa 0,0 l/m 2,9 km/h (1 Bft) NW 323 0 min 0,000 mm 0,0 UV-I 0 W/m 4,9 C 5,3 C 4,8 km/h (1 Bft) 100,00 %
14.11.2018 06:38 5,3 C 9,4 C 5,6 C 97 % 1031,5 hPa 0,0 l/m 3,2 km/h (1 Bft) NW 323 0 min 0,000 mm 0,0 UV-I 0 W/m 4,9 C 5,3 C 4,8 km/h (1 Bft) 95,74 %
14.11.2018 06:40 5,4 C 9,4 C 5,6 C 97 % 1031,6 hPa 0,0 l/m 2,8 km/h (1 Bft) N 5 0 min 0,000 mm 0,0 UV-I 0 W/m 5,0 C 5,4 C 4,8 km/h (1 Bft) 100,00 %
14.11.2018 06:42 5,5 C 9,4 C 5,6 C 97 % 1031,6 hPa 0,0 l/m 2,6 km/h (1 Bft) N 5 0 min 0,000 mm 0,0 UV-I 0 W/m 5,1 C 5,5 C 4,8 km/h (1 Bft) 97,87 %
14.11.2018 06:44 5,6 C 9,4 C 5,6 C 97 % 1031,6 hPa 0,0 l/m 3,0 km/h (1 Bft) N 5 0 min 0,000 mm 0,0 UV-I 0 W/m 5,2 C 5,6 C 4,8 km/h (1 Bft) 98,00 %
14.11.2018 06:46 5,8 C 9,4 C 5,6 C 98 % 1031,6 hPa 0,0 l/m 4,5 km/h (1 Bft) N-NW 340 0 min 0,000 mm 0,0 UV-I 0 W/m 5,5 C 5,8 C 8,0 km/h (2 Bft) 100,00 %
14.11.2018 06:48 5,9 C 9,4 C 6,1 C 97 % 1031,6 hPa 0,0 l/m 4,8 km/h (1 Bft) N-NO 32 0 min 0,000 mm 0,0 UV-I 0 W/m 5,5 C 5,9 C 8,0 km/h (2 Bft) 100,00 %
14.11.2018 06:50 6,0 C 9,4 C 6,1 C 98 % 1031,6 hPa 0,0 l/m 3,6 km/h (1 Bft) N 5 0 min 0,000 mm 0,0 UV-I 0 W/m 5,7 C 6,0 C 4,8 km/h (1 Bft) 100,00 %
14.11.2018 06:52 6,1 C 9,4 C 6,1 C 98 % 1031,6 hPa 0,0 l/m 3,5 km/h (1 Bft) N-NW 342 0 min 0,000 mm 0,0 UV-I 0 W/m 5,8 C 6,1 C 4,8 km/h (1 Bft) 100,00 %
14.11.2018 06:54 6,1 C 9,4 C 6,1 C 98 % 1031,6 hPa 0,0 l/m 2,6 km/h (1 Bft) N-NW 342 0 min 0,000 mm 0,0 UV-I 0 W/m 5,8 C 6,1 C 3,2 km/h (1 Bft) 100,00 %
14.11.2018 06:56 6,1 C 9,4 C 6,1 C 98 % 1031,5 hPa 0,0 l/m 1,8 km/h (1 Bft) N-NW 342 0 min 0,000 mm 0,0 UV-I 0 W/m 5,8 C 6,1 C 3,2 km/h (1 Bft) 97,87 %
14.11.2018 06:58 6,1 C 9,4 C 6,1 C 98 % 1031,5 hPa 0,0 l/m 1,0 km/h (0 Bft) N-NW 342 0 min 0,000 mm 0,0 UV-I 0 W/m 5,8 C 6,1 C 1,6 km/h (1 Bft) 100,00 %
14.11.2018 07:00 6,1 C 9,4 C 6,1 C 98 % 1031,5 hPa 0,0 l/m 0,9 km/h (0 Bft) N-NW 342 0 min 0,000 mm 0,0 UV-I 1 W/m 5,8 C 6,1 C 1,6 km/h (1 Bft) 100,00 %
14.11.2018 07:02 6,1 C 9,4 C 6,1 C 98 % 1031,5 hPa 0,0 l/m 0,2 km/h (0 Bft) N-NW 342 0 min 0,000 mm 0,0 UV-I 5 W/m 5,8 C 6,1 C 1,6 km/h (1 Bft) 100,00 %
14.11.2018 07:04 6,1 C 9,4 C 6,1 C 97 % 1031,5 hPa 0,0 l/m 1,2 km/h (1 Bft) N-NW 342 0 min 0,000 mm 0,0 UV-I 5 W/m 5,7 C 6,1 C 3,2 km/h (1 Bft) 97,87 %
14.11.2018 07:06 6,0 C 9,4 C 6,1 C 98 % 1031,5 hPa 0,0 l/m 2,2 km/h (1 Bft) N-NW 342 0 min 0,000 mm 0,0 UV-I 5 W/m 5,7 C 6,0 C 3,2 km/h (1 Bft) 100,00 %
14.11.2018 07:08 6,0 C 9,4 C 6,1 C 98 % 1031,5 hPa 0,0 l/m 1,6 km/h (1 Bft) N-NW 342 0 min 0,000 mm 0,0 UV-I 5 W/m 5,7 C 6,0 C 3,2 km/h (1 Bft) 100,00 %
14.11.2018 07:10 5,9 C 9,4 C 6,1 C 98 % 1031,5 hPa 0,0 l/m 2,6 km/h (1 Bft) N-NW 339 0 min 0,000 mm 0,0 UV-I 5 W/m 5,6 C 5,9 C 3,2 km/h (1 Bft) 100,00 %
14.11.2018 07:12 5,8 C 9,4 C 6,1 C 98 % 1031,4 hPa 0,0 l/m 2,9 km/h (1 Bft) N-NW 339 0 min 0,000 mm 0,0 UV-I 5 W/m 5,5 C 5,8 C 3,2 km/h (1 Bft) 100,00 %
14.11.2018 07:14 5,7 C 9,4 C 6,1 C 97 % 1031,5 hPa 0,0 l/m 2,6 km/h (1 Bft) N-NW 339 0 min 0,000 mm 0,0 UV-I 7 W/m 5,3 C 5,7 C 3,2 km/h (1 Bft) 96,23 %
14.11.2018 07:16 5,7 C 9,4 C 6,1 C 97 % 1031,5 hPa 0,0 l/m 2,3 km/h (1 Bft) N-NW 339 0 min 0,000 mm 0,0 UV-I 7 W/m 5,3 C 5,7 C 3,2 km/h (1 Bft) 97,37 %
14.11.2018 07:18 5,7 C 9,4 C 6,1 C 97 % 1031,5 hPa 0,0 l/m 2,0 km/h (1 Bft) N-NW 339 0 min 0,000 mm 0,0 UV-I 7 W/m 5,3 C 5,7 C 3,2 km/h (1 Bft) 93,62 %
14.11.2018 07:20 5,7 C 9,4 C 6,1 C 97 % 1031,4 hPa 0,0 l/m 2,9 km/h (1 Bft) N-NW 339 0 min 0,000 mm 0,0 UV-I 7 W/m 5,3 C 5,7 C 3,2 km/h (1 Bft) 93,62 %
14.11.2018 07:22 5,8 C 9,4 C 6,1 C 97 % 1031,4 hPa 0,0 l/m 3,0 km/h (1 Bft) N-NW 339 0 min 0,000 mm 0,0 UV-I 7 W/m 5,4 C 5,8 C 4,8 km/h (1 Bft) 93,62 %
14.11.2018 07:24 5,8 C 9,4 C 6,1 C 97 % 1031,5 hPa 0,0 l/m 1,7 km/h (1 Bft) N-NW 339 0 min 0,000 mm 0,0 UV-I 7 W/m 5,4 C 5,8 C 3,2 km/h (1 Bft) 95,74 %
14.11.2018 07:26 5,9 C 9,4 C 6,1 C 97 % 1031,5 hPa 0,0 l/m 0,7 km/h (0 Bft) N-NW 339 0 min 0,000 mm 0,0 UV-I 7 W/m 5,5 C 5,9 C 1,6 km/h (1 Bft) 91,49 %
14.11.2018 07:28 5,9 C 9,4 C 6,1 C 97 % 1031,5 hPa 0,0 l/m 2,0 km/h (1 Bft) N-NW 340 0 min 0,000 mm 0,0 UV-I 8 W/m 5,5 C 5,9 C 3,2 km/h (1 Bft) 93,62 %
14.11.2018 07:30 5,9 C 9,4 C 6,1 C 97 % 1031,6 hPa 0,0 l/m 3,3 km/h (1 Bft) SO 144 0 min 0,000 mm 0,0 UV-I 9 W/m 5,5 C 5,9 C 4,8 km/h (1 Bft) 93,62 %
14.11.2018 07:32 6,0 C 9,4 C 6,1 C 97 % 1031,6 hPa 0,0 l/m 2,4 km/h (1 Bft) SO 144 0 min 0,000 mm 0,0 UV-I 9 W/m 5,6 C 6,0 C 3,2 km/h (1 Bft) 91,49 %
14.11.2018 07:34 6,1 C 9,4 C 6,1 C 97 % 1031,6 hPa 0,0 l/m 1,3 km/h (1 Bft) SO 144 0 min 0,000 mm 0,0 UV-I 10 W/m 5,7 C 6,1 C 3,2 km/h (1 Bft) 91,49 %
14.11.2018 07:36 6,1 C 9,4 C 6,7 C 97 % 1031,6 hPa 0,0 l/m 1,1 km/h (1 Bft) SO 144 0 min 0,000 mm 0,0 UV-I 11 W/m 5,7 C 6,1 C 1,6 km/h (1 Bft) 91,49 %
14.11.2018 07:38 6,2 C 9,4 C 6,7 C 97 % 1031,6 hPa 0,0 l/m 0,9 km/h (0 Bft) SO 144 0 min 0,000 mm 0,0 UV-I 12 W/m 5,8 C 6,2 C 1,6 km/h (1 Bft) 91,49 %
14.11.2018 07:40 6,2 C 9,4 C 6,7 C 98 % 1031,6 hPa 0,0 l/m 0,7 km/h (0 Bft) SO 144 0 min 0,000 mm 0,0 UV-I 13 W/m 5,9 C 6,2 C 1,6 km/h (1 Bft) 94,00 %
14.11.2018 07:42 6,3 C 9,4 C 6,7 C 98 % 1031,6 hPa 0,0 l/m 1,0 km/h (0 Bft) SO 144 0 min 0,000 mm 0,0 UV-I 15 W/m 6,0 C 6,3 C 1,6 km/h (1 Bft) 93,62 %
14.11.2018 07:44 6,2 C 9,4 C 6,7 C 98 % 1031,6 hPa 0,0 l/m 1,8 km/h (1 Bft) SO 144 0 min 0,000 mm 0,0 UV-I 16 W/m 5,9 C 6,2 C 3,2 km/h (1 Bft) 95,83 %
14.11.2018 07:46 6,2 C 9,4 C 6,7 C 98 % 1031,6 hPa 0,0 l/m 2,9 km/h (1 Bft) SO 145 0 min 0,000 mm 0,0 UV-I 17 W/m 5,9 C 6,2 C 3,2 km/h (1 Bft) 95,74 %
14.11.2018 07:48 6,2 C 9,4 C 6,7 C 98 % 1031,6 hPa 0,0 l/m 2,8 km/h (1 Bft) SO 145 0 min 0,000 mm 0,0 UV-I 18 W/m 5,9 C 6,2 C 4,8 km/h (1 Bft) 89,36 %
14.11.2018 07:50 6,2 C 9,4 C 6,7 C 97 % 1031,6 hPa 0,0 l/m 2,6 km/h (1 Bft) SO 145 0 min 0,000 mm 0,0 UV-I 18 W/m 5,8 C 6,2 C 3,2 km/h (1 Bft) 93,62 %
14.11.2018 07:52 6,2 C 9,4 C 6,7 C 97 % 1031,6 hPa 0,0 l/m 2,1 km/h (1 Bft) SO 145 0 min 0,000 mm 0,0 UV-I 18 W/m 5,8 C 6,2 C 3,2 km/h (1 Bft) 98,00 %
14.11.2018 07:54 6,2 C 9,4 C 6,7 C 97 % 1031,6 hPa 0,0 l/m 1,7 km/h (1 Bft) SO 145 0 min 0,000 mm 0,0 UV-I 18 W/m 5,8 C 6,2 C 3,2 km/h (1 Bft) 97,37 %
14.11.2018 07:56 6,2 C 9,4 C 6,7 C 97 % 1031,6 hPa 0,0 l/m 2,2 km/h (1 Bft) SO 145 0 min 0,000 mm 0,0 UV-I 18 W/m 5,8 C 6,2 C 3,2 km/h (1 Bft) 95,74 %
14.11.2018 07:58 6,2 C 9,4 C 6,7 C 97 % 1031,7 hPa 0,0 l/m 1,7 km/h (1 Bft) SO 145 0 min 0,000 mm 0,0 UV-I 19 W/m 5,8 C 6,2 C 3,2 km/h (1 Bft) 93,62 %
14.11.2018 08:00 6,3 C 9,4 C 6,7 C 97 % 1031,6 hPa 0,0 l/m 1,8 km/h (1 Bft) SO 145 0 min 0,000 mm 0,0 UV-I 20 W/m 5,9 C 6,3 C 3,2 km/h (1 Bft) 97,87 %
14.11.2018 08:02 6,3 C 9,4 C 6,7 C 97 % 1031,6 hPa 0,0 l/m 1,8 km/h (1 Bft) SO 145 0 min 0,000 mm 0,0 UV-I 22 W/m 5,9 C 6,3 C 3,2 km/h (1 Bft) 95,74 %
14.11.2018 08:04 6,3 C 9,4 C 6,7 C 97 % 1031,7 hPa 0,0 l/m 2,4 km/h (1 Bft) SO 145 0 min 0,000 mm 0,0 UV-I 23 W/m 5,9 C 6,3 C 3,2 km/h (1 Bft) 96,00 %
14.11.2018 08:06 6,3 C 9,4 C 6,7 C 97 % 1031,7 hPa 0,0 l/m 2,2 km/h (1 Bft) SO 145 0 min 0,000 mm 0,0 UV-I 23 W/m 5,9 C 6,3 C 3,2 km/h (1 Bft) 98,00 %
14.11.2018 08:08 6,4 C 9,4 C 7,2 C 97 % 1031,7 hPa 0,0 l/m 1,6 km/h (1 Bft) SO 145 0 min 0,000 mm 0,0 UV-I 23 W/m 6,0 C 6,4 C 3,2 km/h (1 Bft) 97,87 %
14.11.2018 08:10 6,4 C 9,4 C 7,2 C 97 % 1031,7 hPa 0,0 l/m 1,3 km/h (1 Bft) SO 145 0 min 0,000 mm 0,0 UV-I 24 W/m 6,0 C 6,4 C 1,6 km/h (1 Bft) 93,62 %
14.11.2018 08:12 6,4 C 9,4 C 7,2 C 97 % 1031,7 hPa 0,0 l/m 1,0 km/h (0 Bft) SO 145 0 min 0,000 mm 0,0 UV-I 25 W/m 6,0 C 6,4 C 1,6 km/h (1 Bft) 97,87 %
14.11.2018 08:14 6,4 C 9,4 C 7,2 C 97 % 1031,7 hPa 0,0 l/m 1,7 km/h (1 Bft) SO 145 0 min 0,000 mm 0,0 UV-I 27 W/m 6,0 C 6,4 C 3,2 km/h (1 Bft) 97,37 %
14.11.2018 08:16 6,4 C 9,4 C 7,2 C 97 % 1031,7 hPa 0,0 l/m 3,1 km/h (1 Bft) SO 145 0 min 0,000 mm 0,0 UV-I 29 W/m 6,0 C 6,4 C 4,8 km/h (1 Bft) 95,83 %
14.11.2018 08:18 6,4 C 9,4 C 7,2 C 97 % 1031,6 hPa 0,0 l/m 2,9 km/h (1 Bft) S-SO 161 0 min 0,000 mm 0,0 UV-I 32 W/m 6,0 C 6,4 C 6,4 km/h (2 Bft) 95,74 %
14.11.2018 08:20 6,4 C 9,4 C 7,2 C 97 % 1031,5 hPa 0,0 l/m 1,4 km/h (1 Bft) S-SO 161 0 min 0,000 mm 0,0 UV-I 33 W/m 6,0 C 6,4 C 3,2 km/h (1 Bft) 95,74 %
14.11.2018 08:22 6,5 C 9,4 C 7,2 C 97 % 1031,5 hPa 0,0 l/m 1,1 km/h (1 Bft) S-SO 160 0 min 0,000 mm 0,0 UV-I 35 W/m 6,1 C 6,5 C 1,6 km/h (1 Bft) 97,87 %
14.11.2018 08:25 6,6 C 9,4 C 7,2 C 97 % 1031,5 hPa 0,0 l/m 1,4 km/h (1 Bft) S-SO 160 0 min 0,000 mm 0,0 UV-I 33 W/m 6,2 C 6,6 C 3,2 km/h (1 Bft) 97,56 %
14.11.2018 08:26 6,7 C 9,4 C 7,2 C 97 % 1031,5 hPa 0,0 l/m 1,9 km/h (1 Bft) S-SO 160 0 min 0,000 mm 0,0 UV-I 33 W/m 6,3 C 6,7 C 3,2 km/h (1 Bft) 100,00 %
14.11.2018 08:28 6,7 C 9,4 C 7,2 C 97 % 1031,5 hPa 0,0 l/m 1,1 km/h (1 Bft) S-SO 160 0 min 0,000 mm 0,0 UV-I 33 W/m 6,3 C 6,7 C 1,6 km/h (1 Bft) 97,87 %
14.11.2018 08:30 6,7 C 9,4 C 7,2 C 97 % 1031,5 hPa 0,0 l/m 1,5 km/h (1 Bft) W 261 0 min 0,000 mm 0,0 UV-I 33 W/m 6,3 C 6,7 C 3,2 km/h (1 Bft) 97,87 %
14.11.2018 08:32 6,6 C 9,4 C 7,2 C 97 % 1031,5 hPa 0,0 l/m 2,0 km/h (1 Bft) W 261 0 min 0,000 mm 0,0 UV-I 33 W/m 6,2 C 6,6 C 4,8 km/h (1 Bft) 100,00 %
14.11.2018 08:34 6,6 C 9,4 C 7,2 C 97 % 1031,5 hPa 0,0 l/m 1,9 km/h (1 Bft) W 261 0 min 0,000 mm 0,0 UV-I 33 W/m 6,2 C 6,6 C 3,2 km/h (1 Bft) 100,00 %
14.11.2018 08:36 6,6 C 9,4 C 7,2 C 97 % 1031,5 hPa 0,0 l/m 0,2 km/h (0 Bft) W 261 0 min 0,000 mm 0,0 UV-I 34 W/m 6,2 C 6,6 C 1,6 km/h (1 Bft) 100,00 %
14.11.2018 08:38 6,7 C 9,4 C 7,2 C 97 % 1031,5 hPa 0,0 l/m 0,3 km/h (0 Bft) W 261 0 min 0,000 mm 0,0 UV-I 37 W/m 6,3 C 6,7 C 1,6 km/h (1 Bft) 97,87 %
14.11.2018 08:40 6,7 C 9,4 C 7,2 C 97 % 1031,5 hPa 0,0 l/m 1,2 km/h (1 Bft) W 261 0 min 0,000 mm 0,0 UV-I 40 W/m 6,3 C 6,7 C 3,2 km/h (1 Bft) 100,00 %
14.11.2018 08:42 6,7 C 9,4 C 7,2 C 97 % 1031,6 hPa 0,0 l/m 0,0 km/h (0 Bft) W 261 0 min 0,000 mm 0,0 UV-I 42 W/m 6,3 C 6,7 C 0,0 km/h (0 Bft) 100,00 %
14.11.2018 08:44 6,8 C 9,4 C 7,8 C 97 % 1031,5 hPa 0,0 l/m 1,3 km/h (1 Bft) W 261 0 min 0,000 mm 0,0 UV-I 43 W/m 6,4 C 6,8 C 3,2 km/h (1 Bft) 97,87 %
14.11.2018 08:46 6,8 C 9,4 C 7,8 C 97 % 1031,6 hPa 0,0 l/m 1,6 km/h (1 Bft) W 261 0 min 0,000 mm 0,0 UV-I 47 W/m 6,4 C 6,8 C 3,2 km/h (1 Bft) 97,87 %
14.11.2018 08:48 6,8 C 9,4 C 7,8 C 97 % 1031,6 hPa 0,0 l/m 2,1 km/h (1 Bft) W 261 0 min 0,000 mm 0,0 UV-I 51 W/m 6,4 C 6,8 C 3,2 km/h (1 Bft) 97,37 %
14.11.2018 08:50 6,8 C 9,4 C 7,8 C 97 % 1031,6 hPa 0,0 l/m 1,7 km/h (1 Bft) W 261 0 min 0,000 mm 0,0 UV-I 53 W/m 6,4 C 6,8 C 3,2 km/h (1 Bft) 97,87 %
14.11.2018 08:52 6,8 C 9,4 C 7,8 C 97 % 1031,6 hPa 0,0 l/m 2,5 km/h (1 Bft) N 5 0 min 0,000 mm 0,0 UV-I 58 W/m 6,4 C 6,8 C 4,8 km/h (1 Bft) 97,87 %
14.11.2018 08:54 6,8 C 9,4 C 7,8 C 97 % 1031,6 hPa 0,0 l/m 5,4 km/h (1 Bft) N-NO 17 0 min 0,000 mm 0,0 UV-I 63 W/m 6,4 C 6,8 C 6,4 km/h (2 Bft) 97,87 %
14.11.2018 08:56 6,8 C 9,4 C 7,8 C 97 % 1031,5 hPa 0,0 l/m 5,1 km/h (1 Bft) N 9 0 min 0,000 mm 0,0 UV-I 63 W/m 6,4 C 6,8 C 6,4 km/h (2 Bft) 94,00 %
14.11.2018 08:58 6,9 C 9,4 C 7,8 C 97 % 1031,5 hPa 0,0 l/m 3,0 km/h (1 Bft) N 9 0 min 0,000 mm 0,0 UV-I 68 W/m 6,5 C 6,9 C 4,8 km/h (1 Bft) 95,74 %
14.11.2018 09:00 6,9 C 9,4 C 7,8 C 97 % 1031,5 hPa 0,0 l/m 2,3 km/h (1 Bft) N 9 0 min 0,025 mm 0,0 UV-I 71 W/m 6,5 C 6,9 C 4,8 km/h (1 Bft) 97,92 %
14.11.2018 09:02 6,8 C 9,4 C 8,3 C 97 % 1031,5 hPa 0,0 l/m 3,0 km/h (1 Bft) NW 313 0 min 0,000 mm 0,0 UV-I 77 W/m 6,4 C 6,8 C 4,8 km/h (1 Bft) 98,00 %
14.11.2018 09:04 6,9 C 9,4 C 8,3 C 97 % 1031,5 hPa 0,0 l/m 2,8 km/h (1 Bft) NW 313 0 min 0,000 mm 0,0 UV-I 84 W/m 6,5 C 6,9 C 4,8 km/h (1 Bft) 97,87 %
14.11.2018 09:06 6,9 C 9,4 C 8,3 C 97 % 1031,5 hPa 0,0 l/m 2,6 km/h (1 Bft) NW 313 0 min 0,000 mm 0,0 UV-I 83 W/m 6,5 C 6,9 C 4,8 km/h (1 Bft) 100,00 %
14.11.2018 09:08 6,9 C 9,4 C 8,3 C 97 % 1031,5 hPa 0,0 l/m 4,2 km/h (1 Bft) SW 236 0 min 0,000 mm 0,0 UV-I 91 W/m 6,5 C 6,9 C 6,4 km/h (2 Bft) 100,00 %
14.11.2018 09:10 6,9 C 9,4 C 8,3 C 97 % 1031,4 hPa 0,0 l/m 4,8 km/h (1 Bft) SW 223 0 min 0,000 mm 0,0 UV-I 104 W/m 6,5 C 6,9 C 6,4 km/h (2 Bft) 100,00 %
14.11.2018 09:12 7,0 C 9,4 C 8,3 C 97 % 1031,4 hPa 0,0 l/m 3,1 km/h (1 Bft) W-SW 250 0 min 0,000 mm 0,0 UV-I 101 W/m 6,6 C 7,0 C 4,8 km/h (1 Bft) 97,87 %
14.11.2018 09:14 7,1 C 9,4 C 8,3 C 97 % 1031,5 hPa 0,0 l/m 0,7 km/h (0 Bft) W-SW 250 0 min 0,000 mm 0,0 UV-I 97 W/m 6,7 C 7,1 C 3,2 km/h (1 Bft) 100,00 %
14.11.2018 09:16 7,2 C 9,4 C 8,3 C 97 % 1031,5 hPa 0,0 l/m 2,3 km/h (1 Bft) W-SW 251 0 min 0,000 mm 0,0 UV-I 97 W/m 6,8 C 7,2 C 4,8 km/h (1 Bft) 100,00 %
14.11.2018 09:18 7,2 C 9,4 C 8,9 C 97 % 1031,5 hPa 0,0 l/m 2,7 km/h (1 Bft) W-SW 251 0 min 0,000 mm 0,0 UV-I 102 W/m 6,8 C 7,2 C 3,2 km/h (1 Bft) 95,74 %
14.11.2018 09:20 7,2 C 9,4 C 8,9 C 96 % 1031,5 hPa 0,0 l/m 2,9 km/h (1 Bft) W-SW 252 0 min 0,000 mm 0,0 UV-I 92 W/m 6,6 C 7,2 C 4,8 km/h (1 Bft) 97,87 %
14.11.2018 09:22 7,1 C 9,4 C 8,9 C 96 % 1031,4 hPa 0,0 l/m 3,4 km/h (1 Bft) W-SW 255 0 min 0,000 mm 0,0 UV-I 110 W/m 6,5 C 7,1 C 4,8 km/h (1 Bft) 97,87 %
14.11.2018 09:24 7,2 C 9,4 C 8,3 C 96 % 1031,4 hPa 0,0 l/m 3,8 km/h (1 Bft) SW 225 0 min 0,000 mm 0,0 UV-I 109 W/m 6,6 C 7,2 C 4,8 km/h (1 Bft) 95,74 %
14.11.2018 09:26 7,2 C 9,4 C 8,9 C 96 % 1031,4 hPa 0,0 l/m 2,7 km/h (1 Bft) SW 227 0 min 0,000 mm 0,0 UV-I 117 W/m 6,6 C 7,2 C 3,2 km/h (1 Bft) 94,00 %
14.11.2018 09:28 7,2 C 9,4 C 8,9 C 96 % 1031,4 hPa 0,0 l/m 2,2 km/h (1 Bft) SW 233 0 min 0,000 mm 0,0 UV-I 121 W/m 6,6 C 7,2 C 4,8 km/h (1 Bft) 94,00 %
14.11.2018 09:30 7,3 C 9,4 C 8,9 C 96 % 1031,3 hPa 0,0 l/m 2,0 km/h (1 Bft) SW 233 0 min 0,000 mm 0,0 UV-I 120 W/m 6,7 C 7,3 C 3,2 km/h (1 Bft) 97,87 %
14.11.2018 09:32 7,2 C 9,4 C 8,9 C 96 % 1031,3 hPa 0,0 l/m 2,5 km/h (1 Bft) SW 233 0 min 0,000 mm 0,0 UV-I 113 W/m 6,6 C 7,2 C 3,2 km/h (1 Bft) 96,00 %
14.11.2018 09:34 7,3 C 9,4 C 8,9 C 96 % 1031,4 hPa 0,0 l/m 4,0 km/h (1 Bft) W-SW 255 0 min 0,000 mm 0,0 UV-I 119 W/m 6,7 C 7,3 C 6,4 km/h (2 Bft) 100,00 %
14.11.2018 09:36 7,2 C 9,4 C 8,9 C 96 % 1031,4 hPa 0,0 l/m 3,5 km/h (1 Bft) W-SW 255 0 min 0,000 mm 0,0 UV-I 126 W/m 6,6 C 7,2 C 4,8 km/h (1 Bft) 95,74 %
14.11.2018 09:38 7,2 C 9,4 C 9,4 C 96 % 1031,4 hPa 0,0 l/m 5,0 km/h (1 Bft) W-SW 238 0 min 0,000 mm 0,0 UV-I 126 W/m 6,6 C 7,2 C 6,4 km/h (2 Bft) 93,62 %
14.11.2018 09:40 7,3 C 9,4 C 9,4 C 96 % 1031,4 hPa 0,0 l/m 4,3 km/h (1 Bft) W-SW 248 0 min 0,000 mm 0,0 UV-I 131 W/m 6,7 C 7,3 C 6,4 km/h (2 Bft) 96,00 %
14.11.2018 09:42 7,3 C 9,4 C 9,4 C 95 % 1031,4 hPa 0,0 l/m 3,2 km/h (1 Bft) W-SW 242 0 min 0,000 mm 0,0 UV-I 136 W/m 6,6 C 7,3 C 6,4 km/h (2 Bft) 98,00 %
14.11.2018 09:44 7,3 C 9,4 C 9,4 C 95 % 1031,4 hPa 0,0 l/m 1,8 km/h (1 Bft) W-SW 242 0 min 0,000 mm 0,0 UV-I 139 W/m 6,6 C 7,3 C 3,2 km/h (1 Bft) 95,74 %
14.11.2018 09:46 7,3 C 9,4 C 9,4 C 95 % 1031,4 hPa 0,0 l/m 2,6 km/h (1 Bft) W-SW 245 0 min 0,000 mm 0,0 UV-I 139 W/m 6,6 C 7,3 C 4,8 km/h (1 Bft) 100,00 %
14.11.2018 09:48 7,4 C 9,4 C 9,4 C 95 % 1031,4 hPa 0,0 l/m 2,8 km/h (1 Bft) W-SW 243 0 min 0,000 mm 0,0 UV-I 131 W/m 6,7 C 7,4 C 4,8 km/h (1 Bft) 97,37 %
14.11.2018 09:50 7,3 C 9,4 C 9,4 C 95 % 1031,4 hPa 0,0 l/m 3,3 km/h (1 Bft) W-SW 242 0 min 0,000 mm 0,0 UV-I 111 W/m 6,6 C 7,3 C 4,8 km/h (1 Bft) 95,74 %
14.11.2018 09:52 7,3 C 9,4 C 9,4 C 95 % 1031,5 hPa 0,0 l/m 5,3 km/h (1 Bft) W-SW 246 0 min 0,000 mm 0,0 UV-I 95 W/m 6,6 C 7,3 C 6,4 km/h (2 Bft) 98,00 %
14.11.2018 09:54 7,3 C 9,4 C 8,9 C 95 % 1031,4 hPa 0,0 l/m 5,3 km/h (1 Bft) SW 236 0 min 0,000 mm 0,4 UV-I 98 W/m 6,6 C 7,3 C 6,4 km/h (2 Bft) 98,00 %
14.11.2018 09:56 7,3 C 9,4 C 8,9 C 95 % 1031,4 hPa 0,0 l/m 4,5 km/h (1 Bft) S-SW 213 0 min 0,000 mm 0,5 UV-I 105 W/m 6,6 C 7,3 C 6,4 km/h (2 Bft) 97,87 %
14.11.2018 09:58 7,4 C 9,4 C 8,9 C 94 % 1031,4 hPa 0,0 l/m 3,4 km/h (1 Bft) W-SW 245 0 min 0,000 mm 0,5 UV-I 104 W/m 6,5 C 7,4 C 4,8 km/h (1 Bft) 95,74 %
14.11.2018 10:00 7,3 C 9,4 C 8,9 C 94 % 1031,4 hPa 0,0 l/m 4,5 km/h (1 Bft) W-SW 242 0 min 0,051 mm 0,5 UV-I 105 W/m 6,4 C 7,3 C 6,4 km/h (2 Bft) 98,00 %
14.11.2018 10:02 7,3 C 9,4 C 8,9 C 94 % 1031,3 hPa 0,0 l/m 3,7 km/h (1 Bft) W-SW 242 0 min 0,000 mm 0,5 UV-I 107 W/m 6,4 C 7,3 C 4,8 km/h (1 Bft) 97,87 %
14.11.2018 10:04 7,3 C 9,4 C 9,4 C 94 % 1031,3 hPa 0,0 l/m 3,3 km/h (1 Bft) W-SW 242 0 min 0,000 mm 0,4 UV-I 121 W/m 6,4 C 7,3 C 4,8 km/h (1 Bft) 95,74 %
14.11.2018 10:06 7,3 C 9,4 C 9,4 C 94 % 1031,4 hPa 0,0 l/m 4,3 km/h (1 Bft) SW 234 0 min 0,000 mm 0,0 UV-I 132 W/m 6,4 C 7,3 C 6,4 km/h (2 Bft) 92,11 %
14.11.2018 10:08 7,4 C 9,4 C 9,4 C 94 % 1031,4 hPa 0,0 l/m 5,7 km/h (1 Bft) W-SW 242 0 min 0,000 mm 0,5 UV-I 141 W/m 6,5 C 7,4 C 8,0 km/h (2 Bft) 97,87 %
14.11.2018 10:10 7,4 C 9,4 C 9,4 C 94 % 1031,2 hPa 0,0 l/m 4,7 km/h (1 Bft) SW 236 0 min 0,000 mm 0,5 UV-I 146 W/m 6,5 C 7,4 C 6,4 km/h (2 Bft) 98,00 %
14.11.2018 10:12 7,5 C 9,4 C 10,0 C 94 % 1031,3 hPa 0,0 l/m 4,2 km/h (1 Bft) W-SW 248 0 min 0,000 mm 0,5 UV-I 134 W/m 6,6 C 7,5 C 8,0 km/h (2 Bft) 98,00 %
14.11.2018 10:14 7,6 C 9,4 C 10,0 C 94 % 1031,3 hPa 0,0 l/m 4,5 km/h (1 Bft) W-SW 240 0 min 0,000 mm 0,0 UV-I 133 W/m 6,7 C 7,6 C 6,4 km/h (2 Bft) 95,74 %
14.11.2018 10:16 7,6 C 9,4 C 10,0 C 94 % 1031,2 hPa 0,0 l/m 2,7 km/h (1 Bft) W-SW 239 0 min 0,000 mm 0,0 UV-I 125 W/m 6,7 C 7,6 C 4,8 km/h (1 Bft) 93,62 %
14.11.2018 10:18 7,6 C 9,4 C 10,6 C 94 % 1031,2 hPa 0,0 l/m 4,0 km/h (1 Bft) W-SW 242 0 min 0,000 mm 0,0 UV-I 128 W/m 6,7 C 7,6 C 6,4 km/h (2 Bft) 97,92 %
14.11.2018 10:20 7,7 C 9,4 C 10,0 C 94 % 1031,1 hPa 0,0 l/m 5,2 km/h (1 Bft) W-SW 245 0 min 0,000 mm 0,0 UV-I 121 W/m 6,8 C 7,7 C 6,4 km/h (2 Bft) 97,87 %
14.11.2018 10:22 7,6 C 9,4 C 10,0 C 94 % 1031,1 hPa 0,0 l/m 5,9 km/h (2 Bft) W-SW 247 0 min 0,000 mm 0,0 UV-I 93 W/m 6,7 C 7,6 C 8,0 km/h (2 Bft) 97,14 %
14.11.2018 10:24 7,6 C 9,4 C 10,0 C 93 % 1031,1 hPa 0,0 l/m 3,9 km/h (1 Bft) W-SW 238 0 min 0,000 mm 0,0 UV-I 118 W/m 6,5 C 7,6 C 6,4 km/h (2 Bft) 100,00 %
14.11.2018 10:26 7,7 C 9,4 C 10,0 C 93 % 1031,1 hPa 0,0 l/m 4,6 km/h (1 Bft) W-SW 250 0 min 0,000 mm 0,0 UV-I 110 W/m 6,6 C 7,7 C 6,4 km/h (2 Bft) 100,00 %
14.11.2018 10:28 7,7 C 9,4 C 10,0 C 93 % 1031,1 hPa 0,0 l/m 4,0 km/h (1 Bft) W 262 0 min 0,000 mm 0,0 UV-I 112 W/m 6,6 C 7,7 C 6,4 km/h (2 Bft) 100,00 %
14.11.2018 10:30 7,7 C 9,4 C 10,0 C 93 % 1031,1 hPa 0,0 l/m 4,5 km/h (1 Bft) W 259 0 min 0,000 mm 0,0 UV-I 108 W/m 6,6 C 7,7 C 6,4 km/h (2 Bft) 100,00 %
14.11.2018 10:32 7,7 C 9,4 C 10,0 C 93 % 1031,1 hPa 0,0 l/m 4,6 km/h (1 Bft) W-SW 245 0 min 0,000 mm 0,0 UV-I 105 W/m 6,6 C 7,7 C 6,4 km/h (2 Bft) 100,00 %
14.11.2018 10:34 7,7 C 9,4 C 10,0 C 93 % 1031,0 hPa 0,0 l/m 3,5 km/h (1 Bft) SW 229 0 min 0,000 mm 0,0 UV-I 107 W/m 6,6 C 7,7 C 6,4 km/h (2 Bft) 100,00 %
14.11.2018 10:36 7,8 C 9,4 C 10,0 C 93 % 1031,1 hPa 0,0 l/m 4,7 km/h (1 Bft) SW 226 0 min 0,000 mm 0,0 UV-I 107 W/m 6,7 C 7,8 C 8,0 km/h (2 Bft) 100,00 %
14.11.2018 10:38 7,8 C 9,4 C 10,0 C 93 % 1031,1 hPa 0,0 l/m 5,5 km/h (1 Bft) W-SW 241 0 min 0,000 mm 0,0 UV-I 107 W/m 6,7 C 7,8 C 8,0 km/h (2 Bft) 100,00 %
14.11.2018 10:40 7,7 C 9,4 C 9,4 C 93 % 1031,1 hPa 0,0 l/m 5,2 km/h (1 Bft) SW 235 0 min 0,000 mm 0,0 UV-I 104 W/m 6,6 C 7,7 C 8,0 km/h (2 Bft) 100,00 %
14.11.2018 10:42 7,7 C 9,4 C 9,4 C 93 % 1031,0 hPa 0,0 l/m 3,9 km/h (1 Bft) SW 223 0 min 0,000 mm 0,0 UV-I 101 W/m 6,6 C 7,7 C 6,4 km/h (2 Bft) 97,87 %
14.11.2018 10:44 7,7 C 9,4 C 9,4 C 93 % 1031,0 hPa 0,0 l/m 3,8 km/h (1 Bft) SW 222 0 min 0,000 mm 0,0 UV-I 99 W/m 6,6 C 7,7 C 6,4 km/h (2 Bft) 100,00 %
14.11.2018 10:46 7,7 C 9,4 C 9,4 C 93 % 1030,9 hPa 0,0 l/m 3,7 km/h (1 Bft) W-SW 246 0 min 0,000 mm 0,0 UV-I 100 W/m 6,6 C 7,7 C 6,4 km/h (2 Bft) 100,00 %
14.11.2018 10:48 7,7 C 9,4 C 9,4 C 93 % 1030,9 hPa 0,0 l/m 6,8 km/h (2 Bft) W-SW 240 0 min 0,000 mm 0,0 UV-I 101 W/m 6,6 C 7,4 C 11,3 km/h (2 Bft) 100,00 %
14.11.2018 10:50 7,6 C 9,4 C 9,4 C 93 % 1030,9 hPa 0,0 l/m 6,6 km/h (2 Bft) SW 234 0 min 0,000 mm 0,0 UV-I 112 W/m 6,5 C 7,5 C 9,7 km/h (2 Bft) 100,00 %
14.11.2018 10:52 7,7 C 9,4 C 9,4 C 93 % 1030,8 hPa 0,0 l/m 5,9 km/h (2 Bft) SW 235 0 min 0,000 mm 0,0 UV-I 121 W/m 6,6 C 7,7 C 9,7 km/h (2 Bft) 100,00 %
14.11.2018 10:54 7,7 C 9,4 C 10,0 C 93 % 1030,8 hPa 0,0 l/m 3,2 km/h (1 Bft) SW 232 0 min 0,000 mm 0,0 UV-I 118 W/m 6,6 C 7,7 C 6,4 km/h (2 Bft) 100,00 %
14.11.2018 10:56 7,8 C 9,4 C 10,0 C 93 % 1030,8 hPa 0,0 l/m 1,7 km/h (1 Bft) S-SW 210 0 min 0,000 mm 0,0 UV-I 117 W/m 6,7 C 7,8 C 3,2 km/h (1 Bft) 100,00 %
14.11.2018 10:58 7,9 C 9,4 C 10,6 C 93 % 1030,8 hPa 0,0 l/m 3,1 km/h (1 Bft) SW 226 0 min 0,000 mm 0,0 UV-I 118 W/m 6,8 C 7,9 C 6,4 km/h (2 Bft) 100,00 %
14.11.2018 11:00 7,9 C 9,4 C 10,6 C 93 % 1030,9 hPa 0,0 l/m 3,8 km/h (1 Bft) W-SW 244 0 min 0,051 mm 0,0 UV-I 116 W/m 6,8 C 7,9 C 6,4 km/h (2 Bft) 100,00 %
14.11.2018 11:02 8,0 C 9,4 C 10,6 C 93 % 1030,8 hPa 0,0 l/m 4,0 km/h (1 Bft) SW 224 0 min 0,000 mm 0,0 UV-I 122 W/m 6,9 C 8,0 C 6,4 km/h (2 Bft) 97,87 %
14.11.2018 11:04 7,9 C 9,4 C 10,6 C 92 % 1030,8 hPa 0,0 l/m 4,9 km/h (1 Bft) SO 133 0 min 0,000 mm 0,0 UV-I 127 W/m 6,7 C 7,9 C 8,0 km/h (2 Bft) 100,00 %
14.11.2018 11:06 7,9 C 9,4 C 10,6 C 92 % 1030,7 hPa 0,0 l/m 7,1 km/h (2 Bft) S-SO 162 0 min 0,000 mm 0,0 UV-I 125 W/m 6,7 C 7,3 C 11,3 km/h (2 Bft) 100,00 %
14.11.2018 11:08 7,8 C 9,4 C 10,6 C 92 % 1030,7 hPa 0,0 l/m 4,9 km/h (1 Bft) S-SW 202 0 min 0,000 mm 0,0 UV-I 125 W/m 6,6 C 7,8 C 9,7 km/h (2 Bft) 100,00 %
14.11.2018 11:10 7,8 C 9,4 C 10,6 C 92 % 1030,7 hPa 0,0 l/m 4,5 km/h (1 Bft) S-SW 205 0 min 0,000 mm 0,0 UV-I 127 W/m 6,6 C 7,8 C 6,4 km/h (2 Bft) 100,00 %
14.11.2018 11:12 7,8 C 9,4 C 10,6 C 92 % 1030,7 hPa 0,0 l/m 4,8 km/h (1 Bft) S-SW 197 0 min 0,000 mm 0,0 UV-I 127 W/m 6,6 C 7,8 C 8,0 km/h (2 Bft) 100,00 %
14.11.2018 11:14 7,8 C 9,4 C 10,6 C 92 % 1030,7 hPa 0,0 l/m 4,4 km/h (1 Bft) S-SW 207 0 min 0,000 mm 0,0 UV-I 128 W/m 6,6 C 7,8 C 6,4 km/h (2 Bft) 100,00 %
14.11.2018 11:16 7,7 C 9,4 C 10,6 C 92 % 1030,7 hPa 0,0 l/m 4,5 km/h (1 Bft) W-SW 239 0 min 0,000 mm 0,0 UV-I 130 W/m 6,5 C 7,7 C 6,4 km/h (2 Bft) 100,00 %
14.11.2018 11:18 7,8 C 9,4 C 10,6 C 92 % 1030,6 hPa 0,0 l/m 3,3 km/h (1 Bft) W-SW 238 0 min 0,000 mm 0,0 UV-I 132 W/m 6,6 C 7,8 C 4,8 km/h (1 Bft) 100,00 %
14.11.2018 11:20 7,8 C 9,4 C 10,6 C 92 % 1030,6 hPa 0,0 l/m 1,8 km/h (1 Bft) S-SO 148 0 min 0,000 mm 0,0 UV-I 129 W/m 6,6 C 7,8 C 3,2 km/h (1 Bft) 100,00 %
14.11.2018 11:22 7,9 C 9,4 C 10,6 C 92 % 1030,6 hPa 0,0 l/m 1,3 km/h (1 Bft) S-SO 148 0 min 0,000 mm 0,0 UV-I 129 W/m 6,7 C 7,9 C 3,2 km/h (1 Bft) 93,62 %
14.11.2018 11:24 7,9 C 9,4 C 10,6 C 92 % 1030,7 hPa 0,0 l/m 2,1 km/h (1 Bft) S-SO 147 0 min 0,000 mm 0,0 UV-I 123 W/m 6,7 C 7,9 C 4,8 km/h (1 Bft) 92,11 %
14.11.2018 11:26 7,9 C 9,4 C 10,6 C 92 % 1030,6 hPa 0,0 l/m 0,2 km/h (0 Bft) S-SO 148 0 min 0,000 mm 0,0 UV-I 116 W/m 6,7 C 7,9 C 1,6 km/h (1 Bft) 91,49 %
14.11.2018 11:28 7,9 C 9,4 C 11,1 C 91 % 1030,6 hPa 0,0 l/m 2,5 km/h (1 Bft) O-SO 108 0 min 0,000 mm 0,0 UV-I 120 W/m 6,5 C 7,9 C 4,8 km/h (1 Bft) 91,67 %
14.11.2018 11:30 7,9 C 9,4 C 11,1 C 92 % 1030,5 hPa 0,0 l/m 2,1 km/h (1 Bft) S-SO 166 0 min 0,000 mm 0,0 UV-I 130 W/m 6,7 C 7,9 C 6,4 km/h (2 Bft) 95,74 %
14.11.2018 11:32 7,9 C 9,4 C 11,1 C 91 % 1030,5 hPa 0,0 l/m 4,5 km/h (1 Bft) S-SO 165 0 min 0,000 mm 0,0 UV-I 138 W/m 6,5 C 7,9 C 6,4 km/h (2 Bft) 93,62 %
14.11.2018 11:34 7,9 C 9,4 C 11,1 C 91 % 1030,5 hPa 0,0 l/m 1,5 km/h (1 Bft) S-SO 165 0 min 0,000 mm 0,0 UV-I 136 W/m 6,5 C 7,9 C 4,8 km/h (1 Bft) 91,49 %
14.11.2018 11:36 7,8 C 9,4 C 11,1 C 91 % 1030,5 hPa 0,0 l/m 2,4 km/h (1 Bft) S-SO 166 0 min 0,000 mm 0,0 UV-I 134 W/m 6,4 C 7,8 C 4,8 km/h (1 Bft) 92,00 %
14.11.2018 11:38 7,8 C 9,4 C 11,1 C 92 % 1030,4 hPa 0,0 l/m 1,3 km/h (1 Bft) S-SO 166 0 min 0,000 mm 0,0 UV-I 136 W/m 6,6 C 7,8 C 4,8 km/h (1 Bft) 90,00 %
14.11.2018 11:40 7,8 C 9,4 C 11,1 C 92 % 1030,4 hPa 0,0 l/m 1,1 km/h (1 Bft) S-SO 165 0 min 0,000 mm 0,0 UV-I 139 W/m 6,6 C 7,8 C 3,2 km/h (1 Bft) 89,36 %
14.11.2018 11:42 7,8 C 9,4 C 11,1 C 91 % 1030,4 hPa 0,0 l/m 2,9 km/h (1 Bft) S-SO 165 0 min 0,000 mm 0,5 UV-I 142 W/m 6,4 C 7,8 C 6,4 km/h (2 Bft) 89,36 %
14.11.2018 11:44 7,8 C 9,4 C 11,1 C 91 % 1030,4 hPa 0,0 l/m 2,0 km/h (1 Bft) S-SO 157 0 min 0,000 mm 0,5 UV-I 146 W/m 6,4 C 7,8 C 4,8 km/h (1 Bft) 94,74 %
14.11.2018 11:46 7,9 C 9,4 C 11,1 C 92 % 1030,4 hPa 0,0 l/m 2,7 km/h (1 Bft) SO 145 0 min 0,000 mm 0,3 UV-I 146 W/m 6,7 C 7,9 C 4,8 km/h (1 Bft) 95,74 %
14.11.2018 11:48 8,0 C 9,4 C 11,7 C 92 % 1030,5 hPa 0,0 l/m 2,3 km/h (1 Bft) SO 145 0 min 0,000 mm 0,0 UV-I 144 W/m 6,8 C 8,0 C 4,8 km/h (1 Bft) 93,62 %
14.11.2018 11:50 7,9 C 9,4 C 11,7 C 91 % 1030,4 hPa 0,0 l/m 2,3 km/h (1 Bft) SO 145 0 min 0,000 mm 0,0 UV-I 141 W/m 6,5 C 7,9 C 3,2 km/h (1 Bft) 93,62 %
14.11.2018 11:52 7,9 C 9,4 C 11,7 C 91 % 1030,3 hPa 0,0 l/m 2,7 km/h (1 Bft) SO 145 0 min 0,000 mm 0,0 UV-I 145 W/m 6,5 C 7,9 C 4,8 km/h (1 Bft) 94,00 %
14.11.2018 11:54 7,9 C 9,4 C 11,7 C 91 % 1030,3 hPa 0,0 l/m 0,5 km/h (0 Bft) SO 145 0 min 0,000 mm 0,3 UV-I 155 W/m 6,5 C 7,9 C 3,2 km/h (1 Bft) 91,49 %
14.11.2018 11:56 8,0 C 9,4 C 11,7 C 91 % 1030,3 hPa 0,0 l/m 0,8 km/h (0 Bft) SO 145 0 min 0,000 mm 0,5 UV-I 163 W/m 6,6 C 8,0 C 1,6 km/h (1 Bft) 94,00 %
14.11.2018 11:58 8,1 C 9,4 C 12,2 C 91 % 1030,4 hPa 0,0 l/m 0,6 km/h (0 Bft) SO 145 0 min 0,000 mm 0,5 UV-I 164 W/m 6,7 C 8,1 C 3,2 km/h (1 Bft) 97,87 %
14.11.2018 12:00 8,1 C 9,4 C 11,7 C 91 % 1030,3 hPa 0,0 l/m 1,6 km/h (1 Bft) N-NW 336 0 min 0,051 mm 0,5 UV-I 162 W/m 6,7 C 8,1 C 4,8 km/h (1 Bft) 97,87 %
14.11.2018 12:02 8,2 C 9,4 C 11,7 C 91 % 1030,3 hPa 0,0 l/m 3,0 km/h (1 Bft) N-NW 336 0 min 0,000 mm 0,5 UV-I 163 W/m 6,8 C 8,2 C 4,8 km/h (1 Bft) 97,87 %
14.11.2018 12:04 8,2 C 9,4 C 11,7 C 91 % 1030,3 hPa 0,0 l/m 1,2 km/h (1 Bft) N-NW 336 0 min 0,000 mm 0,5 UV-I 158 W/m 6,8 C 8,2 C 1,6 km/h (1 Bft) 95,74 %
14.11.2018 12:06 8,3 C 9,4 C 11,7 C 92 % 1030,2 hPa 0,0 l/m 2,2 km/h (1 Bft) N-NW 336 0 min 0,000 mm 0,5 UV-I 159 W/m 7,1 C 8,3 C 4,8 km/h (1 Bft) 97,44 %
14.11.2018 12:08 8,3 C 9,4 C 11,7 C 91 % 1030,2 hPa 0,0 l/m 0,7 km/h (0 Bft) N 5 0 min 0,000 mm 0,5 UV-I 153 W/m 6,9 C 8,3 C 1,6 km/h (1 Bft) 97,87 %
14.11.2018 12:10 8,3 C 9,4 C 11,7 C 91 % 1030,3 hPa 0,0 l/m 3,3 km/h (1 Bft) N 5 0 min 0,000 mm 0,3 UV-I 143 W/m 6,9 C 8,3 C 6,4 km/h (2 Bft) 93,62 %
14.11.2018 12:12 8,4 C 9,4 C 11,7 C 91 % 1030,2 hPa 0,0 l/m 4,0 km/h (1 Bft) N-NW 346 0 min 0,000 mm 0,5 UV-I 137 W/m 7,0 C 8,4 C 6,4 km/h (2 Bft) 97,87 %
14.11.2018 12:14 8,3 C 9,4 C 11,1 C 90 % 1030,2 hPa 0,0 l/m 3,5 km/h (1 Bft) N-NO 26 0 min 0,000 mm 0,5 UV-I 134 W/m 6,8 C 8,3 C 4,8 km/h (1 Bft) 95,74 %
14.11.2018 12:16 8,3 C 9,4 C 11,1 C 91 % 1030,2 hPa 0,0 l/m 3,4 km/h (1 Bft) NW 319 0 min 0,000 mm 0,5 UV-I 140 W/m 6,9 C 8,3 C 4,8 km/h (1 Bft) 91,49 %
14.11.2018 12:18 8,3 C 9,4 C 11,1 C 91 % 1030,2 hPa 0,0 l/m 3,5 km/h (1 Bft) N-NW 341 0 min 0,000 mm 0,5 UV-I 142 W/m 6,9 C 8,3 C 4,8 km/h (1 Bft) 95,74 %
14.11.2018 12:20 8,3 C 9,4 C 11,1 C 91 % 1030,2 hPa 0,0 l/m 3,8 km/h (1 Bft) N-NW 341 0 min 0,000 mm 0,5 UV-I 140 W/m 6,9 C 8,3 C 4,8 km/h (1 Bft) 95,74 %
14.11.2018 12:22 8,4 C 9,4 C 11,1 C 91 % 1030,2 hPa 0,0 l/m 3,9 km/h (1 Bft) NO 51 0 min 0,000 mm 0,5 UV-I 142 W/m 7,0 C 8,4 C 6,4 km/h (2 Bft) 97,87 %
14.11.2018 12:24 8,4 C 9,4 C 11,1 C 91 % 1030,2 hPa 0,0 l/m 4,2 km/h (1 Bft) NO 49 0 min 0,000 mm 0,5 UV-I 136 W/m 7,0 C 8,4 C 6,4 km/h (2 Bft) 97,87 %
14.11.2018 12:26 8,4 C 9,4 C 11,1 C 91 % 1030,2 hPa 0,0 l/m 4,8 km/h (1 Bft) N 349 0 min 0,000 mm 0,5 UV-I 130 W/m 7,0 C 8,4 C 6,4 km/h (2 Bft) 97,87 %
14.11.2018 12:28 8,4 C 9,4 C 11,1 C 91 % 1030,2 hPa 0,0 l/m 4,6 km/h (1 Bft) N-NO 25 0 min 0,000 mm 0,5 UV-I 137 W/m 7,0 C 8,4 C 6,4 km/h (2 Bft) 98,00 %
14.11.2018 12:30 8,4 C 9,4 C 11,1 C 91 % 1030,1 hPa 0,0 l/m 7,3 km/h (2 Bft) NO 36 0 min 0,000 mm 0,5 UV-I 133 W/m 7,0 C 7,7 C 11,3 km/h (2 Bft) 97,87 %
14.11.2018 12:32 8,4 C 9,4 C 10,6 C 91 % 1030,1 hPa 0,0 l/m 6,8 km/h (2 Bft) NO 47 0 min 0,000 mm 0,6 UV-I 123 W/m 7,0 C 8,1 C 9,7 km/h (2 Bft) 97,87 %
14.11.2018 12:34 8,3 C 9,4 C 10,6 C 91 % 1030,1 hPa 0,0 l/m 4,9 km/h (1 Bft) NO 46 0 min 0,000 mm 0,6 UV-I 114 W/m 6,9 C 8,3 C 8,0 km/h (2 Bft) 97,87 %
14.11.2018 12:36 8,3 C 9,4 C 10,6 C 90 % 1030,1 hPa 0,0 l/m 3,2 km/h (1 Bft) NO 46 0 min 0,000 mm 0,6 UV-I 112 W/m 6,8 C 8,3 C 4,8 km/h (1 Bft) 97,87 %
14.11.2018 12:38 8,2 C 9,4 C 10,6 C 90 % 1030,0 hPa 0,0 l/m 4,0 km/h (1 Bft) NO 49 0 min 0,000 mm 0,6 UV-I 117 W/m 6,7 C 8,2 C 6,4 km/h (2 Bft) 100,00 %
14.11.2018 12:40 8,2 C 9,4 C 10,6 C 90 % 1030,0 hPa 0,0 l/m 2,9 km/h (1 Bft) NO 48 0 min 0,000 mm 0,6 UV-I 130 W/m 6,7 C 8,2 C 4,8 km/h (1 Bft) 97,87 %
14.11.2018 12:42 8,2 C 9,4 C 10,6 C 91 % 1029,9 hPa 0,0 l/m 2,1 km/h (1 Bft) NO 48 0 min 0,000 mm 0,6 UV-I 141 W/m 6,8 C 8,2 C 3,2 km/h (1 Bft) 100,00 %
14.11.2018 12:44 8,2 C 9,4 C 10,6 C 90 % 1029,9 hPa 0,0 l/m 2,4 km/h (1 Bft) NO 48 0 min 0,000 mm 0,6 UV-I 141 W/m 6,7 C 8,2 C 3,2 km/h (1 Bft) 97,87 %
14.11.2018 12:46 8,3 C 9,4 C 10,6 C 90 % 1029,8 hPa 0,0 l/m 1,5 km/h (1 Bft) NO 48 0 min 0,000 mm 0,6 UV-I 103 W/m 6,8 C 8,3 C 3,2 km/h (1 Bft) 97,87 %
14.11.2018 12:48 8,3 C 9,4 C 10,6 C 90 % 1029,8 hPa 0,0 l/m 0,9 km/h (0 Bft) NO 48 0 min 0,000 mm 0,6 UV-I 126 W/m 6,8 C 8,3 C 3,2 km/h (1 Bft) 100,00 %
14.11.2018 12:50 8,3 C 9,4 C 10,6 C 90 % 1029,8 hPa 0,0 l/m 1,2 km/h (1 Bft) NO 48 0 min 0,000 mm 0,5 UV-I 136 W/m 6,8 C 8,3 C 3,2 km/h (1 Bft) 95,74 %
14.11.2018 12:52 8,3 C 9,4 C 10,6 C 90 % 1029,9 hPa 0,0 l/m 0,6 km/h (0 Bft) NO 48 0 min 0,000 mm 0,5 UV-I 138 W/m 6,8 C 8,3 C 1,6 km/h (1 Bft) 95,74 %
14.11.2018 12:54 8,3 C 9,4 C 11,1 C 90 % 1029,8 hPa 0,0 l/m 1,5 km/h (1 Bft) NO 48 0 min 0,000 mm 0,5 UV-I 145 W/m 6,8 C 8,3 C 3,2 km/h (1 Bft) 95,74 %
14.11.2018 12:56 8,4 C 9,4 C 11,7 C 90 % 1029,9 hPa 0,0 l/m 3,7 km/h (1 Bft) W 277 0 min 0,000 mm 0,5 UV-I 178 W/m 6,9 C 8,4 C 4,8 km/h (1 Bft) 95,74 %
14.11.2018 12:59 8,4 C 9,4 C 11,7 C 89 % 1029,9 hPa 0,0 l/m 1,9 km/h (1 Bft) W 281 0 min 0,000 mm 0,6 UV-I 190 W/m 6,7 C 8,4 C 3,2 km/h (1 Bft) 94,52 %
14.11.2018 13:00 8,4 C 9,4 C 11,7 C 90 % 1029,9 hPa 0,0 l/m 1,8 km/h (1 Bft) W 281 0 min 0,076 mm 0,5 UV-I 190 W/m 6,9 C 8,4 C 3,2 km/h (1 Bft) 100,00 %
14.11.2018 13:02 8,5 C 9,4 C 12,2 C 90 % 1029,9 hPa 0,0 l/m 1,9 km/h (1 Bft) W 281 0 min 0,000 mm 0,5 UV-I 183 W/m 7,0 C 8,5 C 3,2 km/h (1 Bft) 97,87 %
14.11.2018 13:04 8,6 C 9,4 C 12,2 C 89 % 1029,9 hPa 0,0 l/m 0,7 km/h (0 Bft) W 281 0 min 0,000 mm 0,5 UV-I 177 W/m 6,9 C 8,6 C 1,6 km/h (1 Bft) 97,87 %
14.11.2018 13:06 8,6 C 9,4 C 12,2 C 89 % 1029,9 hPa 0,0 l/m 0,4 km/h (0 Bft) W 281 0 min 0,000 mm 0,5 UV-I 181 W/m 6,9 C 8,6 C 1,6 km/h (1 Bft) 98,00 %
14.11.2018 13:08 8,5 C 9,4 C 12,2 C 89 % 1029,8 hPa 0,0 l/m 0,2 km/h (0 Bft) W 281 0 min 0,000 mm 0,5 UV-I 185 W/m 6,8 C 8,5 C 1,6 km/h (1 Bft) 97,87 %
14.11.2018 13:10 8,6 C 9,4 C 12,2 C 90 % 1029,8 hPa 0,0 l/m 0,4 km/h (0 Bft) W 281 0 min 0,000 mm 0,6 UV-I 189 W/m 7,1 C 8,6 C 1,6 km/h (1 Bft) 97,87 %
14.11.2018 13:12 8,7 C 9,4 C 12,2 C 90 % 1029,8 hPa 0,0 l/m 1,7 km/h (1 Bft) W 281 0 min 0,000 mm 0,6 UV-I 188 W/m 7,2 C 8,7 C 3,2 km/h (1 Bft) 100,00 %
14.11.2018 13:14 8,7 C 9,4 C 12,2 C 89 % 1029,7 hPa 0,0 l/m 2,0 km/h (1 Bft) W 281 0 min 0,000 mm 0,6 UV-I 184 W/m 7,0 C 8,7 C 3,2 km/h (1 Bft) 100,00 %
14.11.2018 13:16 8,7 C 9,4 C 12,2 C 89 % 1029,6 hPa 0,0 l/m 1,5 km/h (1 Bft) W 281 0 min 0,000 mm 0,6 UV-I 193 W/m 7,0 C 8,7 C 3,2 km/h (1 Bft) 100,00 %
14.11.2018 13:18 8,7 C 9,4 C 12,2 C 89 % 1029,6 hPa 0,0 l/m 0,9 km/h (0 Bft) W 281 2 min 0,000 mm 0,6 UV-I 197 W/m 7,0 C 8,7 C 3,2 km/h (1 Bft) 100,00 %
14.11.2018 13:20 8,7 C 9,4 C 12,2 C 89 % 1029,6 hPa 0,0 l/m 0,0 km/h (0 Bft) W 281 2 min 0,000 mm 0,6 UV-I 196 W/m 7,0 C 8,7 C 0,0 km/h (0 Bft) 96,00 %
14.11.2018 13:22 8,7 C 9,4 C 12,2 C 90 % 1029,6 hPa 0,0 l/m 0,0 km/h (0 Bft) W 281 0 min 0,000 mm 0,6 UV-I 188 W/m 7,2 C 8,7 C 1,6 km/h (1 Bft) 97,87 %
14.11.2018 13:24 8,8 C 9,4 C 12,2 C 89 % 1029,5 hPa 0,0 l/m 1,0 km/h (0 Bft) W 281 2 min 0,000 mm 0,6 UV-I 246 W/m 7,1 C 8,8 C 3,2 km/h (1 Bft) 95,74 %
14.11.2018 13:26 8,9 C 9,4 C 12,2 C 89 % 1029,6 hPa 0,0 l/m 1,6 km/h (1 Bft) W 281 2 min 0,000 mm 0,6 UV-I 230 W/m 7,2 C 8,9 C 3,2 km/h (1 Bft) 97,44 %
14.11.2018 13:28 8,9 C 9,4 C 11,7 C 88 % 1029,5 hPa 0,0 l/m 2,1 km/h (1 Bft) W 281 0 min 0,000 mm 0,6 UV-I 184 W/m 7,0 C 8,9 C 4,8 km/h (1 Bft) 98,00 %
14.11.2018 13:30 8,8 C 9,4 C 11,7 C 88 % 1029,5 hPa 0,0 l/m 0,7 km/h (0 Bft) W 281 0 min 0,000 mm 0,6 UV-I 168 W/m 6,9 C 8,8 C 3,2 km/h (1 Bft) 95,74 %
14.11.2018 13:32 8,9 C 9,4 C 11,1 C 89 % 1029,4 hPa 0,0 l/m 2,2 km/h (1 Bft) W 281 0 min 0,000 mm 0,5 UV-I 162 W/m 7,2 C 8,9 C 4,8 km/h (1 Bft) 97,87 %
14.11.2018 13:34 8,8 C 9,4 C 11,1 C 88 % 1029,4 hPa 0,0 l/m 1,6 km/h (1 Bft) W 281 0 min 0,000 mm 0,6 UV-I 186 W/m 6,9 C 8,8 C 4,8 km/h (1 Bft) 97,87 %
14.11.2018 13:36 8,9 C 9,4 C 10,6 C 88 % 1029,4 hPa 0,0 l/m 2,7 km/h (1 Bft) W 281 2 min 0,000 mm 0,6 UV-I 201 W/m 7,0 C 8,9 C 4,8 km/h (1 Bft) 94,34 %
14.11.2018 13:38 8,9 C 9,4 C 10,6 C 89 % 1029,3 hPa 0,0 l/m 2,0 km/h (1 Bft) NW 305 2 min 0,000 mm 0,6 UV-I 251 W/m 7,2 C 8,9 C 4,8 km/h (1 Bft) 95,74 %
14.11.2018 13:40 9,0 C 9,4 C 10,6 C 88 % 1029,3 hPa 0,0 l/m 2,0 km/h (1 Bft) NW 305 2 min 0,000 mm 0,6 UV-I 289 W/m 7,1 C 9,0 C 3,2 km/h (1 Bft) 93,62 %
14.11.2018 13:42 9,1 C 9,4 C 10,6 C 88 % 1029,3 hPa 0,0 l/m 2,2 km/h (1 Bft) NW 305 2 min 0,000 mm 0,5 UV-I 265 W/m 7,2 C 9,1 C 3,2 km/h (1 Bft) 94,74 %
14.11.2018 13:44 9,1 C 9,4 C 10,6 C 88 % 1029,3 hPa 0,0 l/m 1,5 km/h (1 Bft) NW 305 2 min 0,000 mm 0,5 UV-I 270 W/m 7,2 C 9,1 C 3,2 km/h (1 Bft) 97,87 %
14.11.2018 13:46 9,2 C 9,4 C 10,6 C 87 % 1029,2 hPa 0,0 l/m 0,9 km/h (0 Bft) NW 305 2 min 0,000 mm 0,5 UV-I 280 W/m 7,2 C 9,2 C 3,2 km/h (1 Bft) 96,00 %
14.11.2018 13:48 9,2 C 9,4 C 11,1 C 88 % 1029,2 hPa 0,0 l/m 0,1 km/h (0 Bft) NW 305 2 min 0,000 mm 0,5 UV-I 276 W/m 7,3 C 9,2 C 1,6 km/h (1 Bft) 97,87 %
14.11.2018 13:50 9,3 C 9,4 C 11,1 C 87 % 1029,2 hPa 0,0 l/m 2,1 km/h (1 Bft) NW 321 2 min 0,000 mm 0,5 UV-I 262 W/m 7,2 C 9,3 C 4,8 km/h (1 Bft) 95,74 %
14.11.2018 13:52 9,3 C 9,4 C 10,6 C 87 % 1029,3 hPa 0,0 l/m 2,2 km/h (1 Bft) NW 319 2 min 0,000 mm 0,5 UV-I 247 W/m 7,2 C 9,3 C 4,8 km/h (1 Bft) 98,00 %
14.11.2018 13:54 9,2 C 9,4 C 11,1 C 87 % 1029,3 hPa 0,0 l/m 1,7 km/h (1 Bft) NW 319 2 min 0,000 mm 0,5 UV-I 269 W/m 7,2 C 9,2 C 3,2 km/h (1 Bft) 100,00 %
14.11.2018 13:56 9,1 C 9,4 C 11,1 C 87 % 1029,2 hPa 0,0 l/m 2,0 km/h (1 Bft) NW 323 2 min 0,000 mm 0,5 UV-I 275 W/m 7,1 C 9,1 C 4,8 km/h (1 Bft) 97,87 %
14.11.2018 13:58 9,3 C 9,4 C 11,1 C 88 % 1029,2 hPa 0,0 l/m 1,7 km/h (1 Bft) N-NW 336 2 min 0,000 mm 0,5 UV-I 281 W/m 7,4 C 9,3 C 3,2 km/h (1 Bft) 100,00 %
14.11.2018 14:00 9,4 C 9,4 C 11,1 C 88 % 1029,2 hPa 0,0 l/m 1,6 km/h (1 Bft) N-NW 336 2 min 0,102 mm 0,5 UV-I 281 W/m 7,5 C 9,4 C 3,2 km/h (1 Bft) 97,62 %
14.11.2018 14:02 9,5 C 9,4 C 11,1 C 87 % 1029,1 hPa 0,0 l/m 1,1 km/h (1 Bft) N-NW 336 2 min 0,000 mm 0,5 UV-I 275 W/m 7,4 C 9,5 C 3,2 km/h (1 Bft) 97,87 %
14.11.2018 14:04 9,7 C 9,4 C 11,1 C 87 % 1029,1 hPa 0,0 l/m 2,3 km/h (1 Bft) N-NW 336 2 min 0,000 mm 0,5 UV-I 264 W/m 7,6 C 9,7 C 4,8 km/h (1 Bft) 97,87 %
14.11.2018 14:06 9,7 C 9,4 C 11,1 C 86 % 1029,1 hPa 0,0 l/m 3,0 km/h (1 Bft) N-NW 336 2 min 0,000 mm 0,5 UV-I 261 W/m 7,5 C 9,7 C 3,2 km/h (1 Bft) 97,87 %
14.11.2018 14:08 9,7 C 9,4 C 11,1 C 86 % 1029,1 hPa 0,0 l/m 2,2 km/h (1 Bft) N-NW 336 2 min 0,000 mm 0,2 UV-I 264 W/m 7,5 C 9,7 C 3,2 km/h (1 Bft) 97,87 %
14.11.2018 14:10 9,7 C 9,4 C 11,7 C 86 % 1029,0 hPa 0,0 l/m 2,5 km/h (1 Bft) NW 310 2 min 0,000 mm 0,0 UV-I 255 W/m 7,5 C 9,7 C 4,8 km/h (1 Bft) 98,00 %
14.11.2018 14:12 9,6 C 9,4 C 10,6 C 86 % 1029,0 hPa 0,0 l/m 1,2 km/h (1 Bft) NW 310 2 min 0,000 mm 0,0 UV-I 224 W/m 7,4 C 9,6 C 3,2 km/h (1 Bft) 95,74 %
14.11.2018 14:14 9,5 C 9,4 C 10,6 C 86 % 1029,0 hPa 0,0 l/m 0,6 km/h (0 Bft) NW 310 2 min 0,000 mm 0,0 UV-I 211 W/m 7,3 C 9,5 C 1,6 km/h (1 Bft) 95,74 %
14.11.2018 14:16 9,4 C 9,4 C 10,0 C 86 % 1029,0 hPa 0,0 l/m 0,9 km/h (0 Bft) NW 310 2 min 0,000 mm 0,0 UV-I 209 W/m 7,2 C 9,4 C 3,2 km/h (1 Bft) 97,87 %
14.11.2018 14:18 9,3 C 9,4 C 10,0 C 86 % 1029,0 hPa 0,0 l/m 0,9 km/h (0 Bft) NW 310 2 min 0,000 mm 0,0 UV-I 202 W/m 7,1 C 9,3 C 1,6 km/h (1 Bft) 96,00 %
14.11.2018 14:20 9,2 C 9,4 C 9,4 C 86 % 1029,0 hPa 0,0 l/m 0,8 km/h (0 Bft) NW 310 2 min 0,000 mm 0,0 UV-I 189 W/m 7,0 C 9,2 C 1,6 km/h (1 Bft) 94,74 %
14.11.2018 14:22 9,3 C 9,4 C 9,4 C 87 % 1028,9 hPa 0,0 l/m 1,9 km/h (1 Bft) NW 309 2 min 0,000 mm 0,0 UV-I 218 W/m 7,2 C 9,3 C 3,2 km/h (1 Bft) 95,74 %
14.11.2018 14:24 9,4 C 9,4 C 8,9 C 87 % 1028,9 hPa 0,0 l/m 2,4 km/h (1 Bft) SW 226 2 min 0,000 mm 0,0 UV-I 227 W/m 7,3 C 9,4 C 4,8 km/h (1 Bft) 95,74 %
14.11.2018 14:26 9,4 C 9,4 C 8,9 C 86 % 1028,9 hPa 0,0 l/m 4,6 km/h (1 Bft) S-SW 201 2 min 0,000 mm 0,0 UV-I 215 W/m 7,2 C 9,4 C 6,4 km/h (2 Bft) 100,00 %
14.11.2018 14:28 9,4 C 9,4 C 8,9 C 86 % 1029,0 hPa 0,0 l/m 2,0 km/h (1 Bft) S-SW 201 2 min 0,000 mm 0,0 UV-I 210 W/m 7,2 C 9,4 C 4,8 km/h (1 Bft) 100,00 %
14.11.2018 14:30 9,4 C 9,4 C 8,9 C 86 % 1028,9 hPa 0,0 l/m 1,7 km/h (1 Bft) S-SW 201 2 min 0,000 mm 0,0 UV-I 219 W/m 7,2 C 9,4 C 3,2 km/h (1 Bft) 95,74 %
14.11.2018 14:32 9,5 C 9,4 C 8,9 C 86 % 1028,9 hPa 0,0 l/m 1,7 km/h (1 Bft) S-SW 201 2 min 0,000 mm 0,0 UV-I 216 W/m 7,3 C 9,5 C 4,8 km/h (1 Bft) 100,00 %
14.11.2018 14:34 9,6 C 9,4 C 8,9 C 86 % 1028,9 hPa 0,0 l/m 2,1 km/h (1 Bft) S-SW 201 2 min 0,000 mm 0,0 UV-I 212 W/m 7,4 C 9,6 C 4,8 km/h (1 Bft) 97,87 %
14.11.2018 14:36 9,7 C 9,4 C 9,4 C 86 % 1028,9 hPa 0,0 l/m 2,5 km/h (1 Bft) S-SW 201 2 min 0,000 mm 0,0 UV-I 211 W/m 7,5 C 9,7 C 6,4 km/h (2 Bft) 100,00 %
14.11.2018 14:38 9,7 C 9,4 C 9,4 C 85 % 1028,9 hPa 0,0 l/m 3,7 km/h (1 Bft) S-SW 201 2 min 0,000 mm 0,0 UV-I 208 W/m 7,3 C 9,7 C 6,4 km/h (2 Bft) 100,00 %
14.11.2018 14:40 9,5 C 9,4 C 9,4 C 85 % 1028,9 hPa 0,0 l/m 2,5 km/h (1 Bft) S-SW 201 2 min 0,000 mm 0,0 UV-I 203 W/m 7,1 C 9,5 C 4,8 km/h (1 Bft) 100,00 %
14.11.2018 14:42 9,5 C 9,4 C 9,4 C 86 % 1028,9 hPa 0,0 l/m 1,1 km/h (1 Bft) S-SW 201 2 min 0,000 mm 0,0 UV-I 199 W/m 7,3 C 9,5 C 3,2 km/h (1 Bft) 97,92 %
14.11.2018 14:44 9,6 C 9,4 C 8,9 C 86 % 1028,8 hPa 0,0 l/m 1,6 km/h (1 Bft) S-SW 201 2 min 0,000 mm 0,0 UV-I 190 W/m 7,4 C 9,6 C 4,8 km/h (1 Bft) 100,00 %
14.11.2018 14:46 9,6 C 9,4 C 8,9 C 86 % 1028,8 hPa 0,0 l/m 3,6 km/h (1 Bft) S-SW 198 2 min 0,000 mm 0,0 UV-I 190 W/m 7,4 C 9,6 C 4,8 km/h (1 Bft) 97,87 %
14.11.2018 14:48 9,4 C 9,4 C 8,9 C 86 % 1028,9 hPa 0,0 l/m 1,7 km/h (1 Bft) S-SW 198 2 min 0,000 mm 0,0 UV-I 189 W/m 7,2 C 9,4 C 3,2 km/h (1 Bft) 97,87 %
14.11.2018 14:50 9,4 C 9,4 C 8,9 C 85 % 1028,8 hPa 0,0 l/m 0,2 km/h (0 Bft) S-SW 198 2 min 0,000 mm 0,0 UV-I 180 W/m 7,0 C 9,4 C 1,6 km/h (1 Bft) 100,00 %
14.11.2018 14:52 9,3 C 9,4 C 8,3 C 86 % 1028,9 hPa 0,0 l/m 0,4 km/h (0 Bft) S-SW 198 2 min 0,000 mm 0,0 UV-I 168 W/m 7,1 C 9,3 C 1,6 km/h (1 Bft) 100,00 %
14.11.2018 14:54 9,3 C 9,4 C 8,3 C 86 % 1028,9 hPa 0,0 l/m 0,8 km/h (0 Bft) S-SW 198 2 min 0,000 mm 0,0 UV-I 169 W/m 7,1 C 9,3 C 1,6 km/h (1 Bft) 100,00 %
14.11.2018 14:56 9,3 C 9,4 C 7,8 C 86 % 1028,9 hPa 0,0 l/m 1,5 km/h (1 Bft) SW 234 2 min 0,000 mm 0,0 UV-I 161 W/m 7,1 C 9,3 C 3,2 km/h (1 Bft) 100,00 %
14.11.2018 14:58 9,4 C 9,4 C 7,8 C 86 % 1028,9 hPa 0,0 l/m 2,4 km/h (1 Bft) SW 235 2 min 0,000 mm 0,0 UV-I 158 W/m 7,2 C 9,4 C 3,2 km/h (1 Bft) 100,00 %
14.11.2018 15:00 9,4 C 9,4 C 7,8 C 86 % 1028,9 hPa 0,0 l/m 1,8 km/h (1 Bft) SW 235 2 min 0,101 mm 0,0 UV-I 152 W/m 7,2 C 9,4 C 3,2 km/h (1 Bft) 95,74 %
14.11.2018 15:02 9,4 C 9,4 C 7,8 C 86 % 1028,7 hPa 0,0 l/m 1,7 km/h (1 Bft) SW 235 2 min 0,000 mm 0,0 UV-I 139 W/m 7,2 C 9,4 C 3,2 km/h (1 Bft) 97,87 %
14.11.2018 15:04 9,3 C 9,4 C 7,8 C 86 % 1028,7 hPa 0,0 l/m 0,8 km/h (0 Bft) SW 235 2 min 0,000 mm 0,0 UV-I 134 W/m 7,1 C 9,3 C 3,2 km/h (1 Bft) 100,00 %
14.11.2018 15:06 9,3 C 9,4 C 7,2 C 86 % 1028,7 hPa 0,0 l/m 0,7 km/h (0 Bft) SW 235 2 min 0,000 mm 0,0 UV-I 125 W/m 7,1 C 9,3 C 1,6 km/h (1 Bft) 100,00 %
14.11.2018 15:08 9,3 C 9,4 C 7,2 C 86 % 1028,8 hPa 0,0 l/m 1,0 km/h (0 Bft) SW 235 2 min 0,000 mm 0,0 UV-I 132 W/m 7,1 C 9,3 C 3,2 km/h (1 Bft) 97,87 %
14.11.2018 15:10 9,3 C 9,4 C 7,2 C 86 % 1028,8 hPa 0,0 l/m 0,0 km/h (0 Bft) SW 235 2 min 0,000 mm 0,0 UV-I 134 W/m 7,1 C 9,3 C 1,6 km/h (1 Bft) 100,00 %
14.11.2018 15:12 9,3 C 9,4 C 6,7 C 86 % 1028,8 hPa 0,0 l/m 0,7 km/h (0 Bft) SW 235 2 min 0,000 mm 0,0 UV-I 127 W/m 7,1 C 9,3 C 1,6 km/h (1 Bft) 100,00 %
14.11.2018 15:14 9,3 C 9,4 C 6,7 C 86 % 1028,8 hPa 0,0 l/m 0,0 km/h (0 Bft) SW 235 2 min 0,000 mm 0,0 UV-I 124 W/m 7,1 C 9,3 C 0,0 km/h (0 Bft) 97,87 %
14.11.2018 15:16 9,3 C 9,4 C 6,7 C 86 % 1028,8 hPa 0,0 l/m 0,7 km/h (0 Bft) SW 235 2 min 0,000 mm 0,0 UV-I 121 W/m 7,1 C 9,3 C 1,6 km/h (1 Bft) 100,00 %
14.11.2018 15:18 9,3 C 9,4 C 6,7 C 86 % 1028,8 hPa 0,0 l/m 0,1 km/h (0 Bft) SW 234 2 min 0,000 mm 0,0 UV-I 116 W/m 7,1 C 9,3 C 1,6 km/h (1 Bft) 100,00 %
14.11.2018 15:20 9,3 C 9,4 C 6,1 C 86 % 1028,8 hPa 0,0 l/m 1,4 km/h (1 Bft) SW 235 2 min 0,000 mm 0,0 UV-I 113 W/m 7,1 C 9,3 C 3,2 km/h (1 Bft) 97,87 %
14.11.2018 15:22 9,3 C 9,4 C 6,7 C 86 % 1028,9 hPa 0,0 l/m 0,1 km/h (0 Bft) SW 234 2 min 0,000 mm 0,0 UV-I 108 W/m 7,1 C 9,3 C 1,6 km/h (1 Bft) 96,00 %
14.11.2018 15:24 9,3 C 9,4 C 6,1 C 86 % 1028,9 hPa 0,0 l/m 0,3 km/h (0 Bft) SW 234 2 min 0,000 mm 0,0 UV-I 104 W/m 7,1 C 9,3 C 1,6 km/h (1 Bft) 95,74 %
14.11.2018 15:26 9,3 C 9,4 C 6,1 C 86 % 1028,8 hPa 0,0 l/m 0,2 km/h (0 Bft) SW 234 2 min 0,000 mm 0,0 UV-I 101 W/m 7,1 C 9,3 C 1,6 km/h (1 Bft) 97,87 %
14.11.2018 15:28 9,3 C 9,4 C 5,6 C 86 % 1028,8 hPa 0,0 l/m 0,0 km/h (0 Bft) SW 234 2 min 0,000 mm 0,0 UV-I 97 W/m 7,1 C 9,3 C 0,0 km/h (0 Bft) 97,87 %
14.11.2018 15:30 9,3 C 9,4 C 5,6 C 86 % 1028,8 hPa 0,0 l/m 0,7 km/h (0 Bft) SW 234 2 min 0,000 mm 0,0 UV-I 91 W/m 7,1 C 9,3 C 1,6 km/h (1 Bft) 97,14 %
14.11.2018 15:32 9,3 C 9,4 C 6,1 C 86 % 1028,8 hPa 0,0 l/m 0,9 km/h (0 Bft) SW 234 2 min 0,000 mm 0,0 UV-I 87 W/m 7,1 C 9,3 C 1,6 km/h (1 Bft) 96,00 %
14.11.2018 15:34 9,3 C 9,4 C 5,6 C 86 % 1028,8 hPa 0,0 l/m 0,0 km/h (0 Bft) SW 234 2 min 0,000 mm 0,0 UV-I 85 W/m 7,1 C 9,3 C 0,0 km/h (0 Bft) 97,87 %
14.11.2018 15:36 9,3 C 9,4 C 5,6 C 86 % 1028,8 hPa 0,0 l/m 0,0 km/h (0 Bft) SW 234 2 min 0,000 mm 0,0 UV-I 83 W/m 7,1 C 9,3 C 0,0 km/h (0 Bft) 97,87 %
14.11.2018 15:38 9,3 C 9,4 C 5,0 C 86 % 1028,8 hPa 0,0 l/m 0,1 km/h (0 Bft) SW 234 2 min 0,000 mm 0,0 UV-I 79 W/m 7,1 C 9,3 C 1,6 km/h (1 Bft) 97,87 %
14.11.2018 15:40 9,3 C 9,4 C 5,0 C 86 % 1028,7 hPa 0,0 l/m 0,0 km/h (0 Bft) SW 234 2 min 0,000 mm 0,0 UV-I 76 W/m 7,1 C 9,3 C 0,0 km/h (0 Bft) 97,87 %
14.11.2018 15:42 9,3 C 9,4 C 5,0 C 86 % 1028,7 hPa 0,0 l/m 0,0 km/h (0 Bft) SW 234 2 min 0,000 mm 0,0 UV-I 72 W/m 7,1 C 9,3 C 0,0 km/h (0 Bft) 91,49 %
14.11.2018 15:44 9,2 C 9,4 C 4,4 C 86 % 1028,8 hPa 0,0 l/m 0,0 km/h (0 Bft) SW 234 2 min 0,000 mm 0,0 UV-I 70 W/m 7,0 C 9,2 C 0,0 km/h (0 Bft) 96,23 %
14.11.2018 15:46 9,2 C 9,4 C 4,4 C 86 % 1028,8 hPa 0,0 l/m 0,1 km/h (0 Bft) SW 234 2 min 0,000 mm 0,0 UV-I 66 W/m 7,0 C 9,2 C 1,6 km/h (1 Bft) 97,87 %
14.11.2018 15:48 9,1 C 9,4 C 4,4 C 86 % 1028,8 hPa 0,0 l/m 0,7 km/h (0 Bft) SW 234 2 min 0,000 mm 0,0 UV-I 62 W/m 6,9 C 9,1 C 1,6 km/h (1 Bft) 97,87 %
14.11.2018 15:50 9,1 C 9,4 C 3,9 C 87 % 1028,7 hPa 0,0 l/m 0,0 km/h (0 Bft) SW 234 2 min 0,000 mm 0,0 UV-I 58 W/m 7,1 C 9,1 C 1,6 km/h (1 Bft) 97,87 %
14.11.2018 15:52 9,1 C 9,4 C 3,9 C 87 % 1028,8 hPa 0,0 l/m 0,1 km/h (0 Bft) SW 234 2 min 0,000 mm 0,0 UV-I 54 W/m 7,1 C 9,1 C 1,6 km/h (1 Bft) 97,87 %
14.11.2018 15:54 9,1 C 9,4 C 4,4 C 88 % 1028,7 hPa 0,0 l/m 1,3 km/h (1 Bft) SW 234 2 min 0,000 mm 0,0 UV-I 51 W/m 7,2 C 9,1 C 3,2 km/h (1 Bft) 95,74 %
14.11.2018 15:56 9,1 C 9,4 C 4,4 C 88 % 1028,6 hPa 0,0 l/m 2,6 km/h (1 Bft) SW 234 2 min 0,000 mm 0,0 UV-I 48 W/m 7,2 C 9,1 C 3,2 km/h (1 Bft) 97,87 %
14.11.2018 15:58 9,1 C 9,4 C 4,4 C 88 % 1028,7 hPa 0,0 l/m 2,7 km/h (1 Bft) SW 234 2 min 0,000 mm 0,0 UV-I 45 W/m 7,2 C 9,1 C 4,8 km/h (1 Bft) 95,74 %
14.11.2018 16:00 9,0 C 9,4 C 4,4 C 88 % 1028,7 hPa 0,0 l/m 2,1 km/h (1 Bft) SW 234 2 min 0,051 mm 0,0 UV-I 40 W/m 7,1 C 9,0 C 3,2 km/h (1 Bft) 91,67 %
14.11.2018 16:02 8,9 C 9,4 C 4,4 C 88 % 1028,7 hPa 0,0 l/m 1,1 km/h (1 Bft) SW 234 2 min 0,000 mm 0,0 UV-I 38 W/m 7,0 C 8,9 C 1,6 km/h (1 Bft) 98,00 %
14.11.2018 16:04 8,9 C 9,4 C 3,9 C 88 % 1028,6 hPa 0,0 l/m 2,7 km/h (1 Bft) SW 234 2 min 0,000 mm 0,0 UV-I 34 W/m 7,0 C 8,9 C 3,2 km/h (1 Bft) 96,00 %
14.11.2018 16:06 8,8 C 9,4 C 4,4 C 89 % 1028,8 hPa 0,0 l/m 2,2 km/h (1 Bft) SW 234 2 min 0,000 mm 0,0 UV-I 32 W/m 7,1 C 8,8 C 4,8 km/h (1 Bft) 96,00 %
14.11.2018 16:08 8,8 C 9,4 C 3,9 C 89 % 1028,8 hPa 0,0 l/m 1,2 km/h (1 Bft) SW 234 2 min 0,000 mm 0,0 UV-I 28 W/m 7,1 C 8,8 C 3,2 km/h (1 Bft) 98,00 %
14.11.2018 16:10 8,7 C 9,4 C 3,9 C 89 % 1028,8 hPa 0,0 l/m 1,0 km/h (0 Bft) SW 234 2 min 0,000 mm 0,0 UV-I 26 W/m 7,0 C 8,7 C 1,6 km/h (1 Bft) 97,87 %
14.11.2018 16:12 8,6 C 9,4 C 3,3 C 89 % 1028,7 hPa 0,0 l/m 1,3 km/h (1 Bft) SW 234 2 min 0,000 mm 0,0 UV-I 24 W/m 6,9 C 8,6 C 3,2 km/h (1 Bft) 95,74 %
14.11.2018 16:14 8,6 C 9,4 C 2,8 C 89 % 1028,7 hPa 0,0 l/m 2,3 km/h (1 Bft) SW 234 2 min 0,000 mm 0,0 UV-I 20 W/m 6,9 C 8,6 C 3,2 km/h (1 Bft) 94,74 %
14.11.2018 16:16 8,3 C 9,4 C 2,8 C 89 % 1028,7 hPa 0,0 l/m 2,5 km/h (1 Bft) SW 234 0 min 0,000 mm 0,0 UV-I 18 W/m 6,6 C 8,3 C 3,2 km/h (1 Bft) 97,87 %
14.11.2018 16:18 8,0 C 9,4 C 2,8 C 90 % 1028,8 hPa 0,0 l/m 2,0 km/h (1 Bft) SW 234 0 min 0,000 mm 0,0 UV-I 14 W/m 6,5 C 8,0 C 3,2 km/h (1 Bft) 95,74 %
14.11.2018 16:20 8,0 C 9,4 C 2,2 C 90 % 1028,8 hPa 0,0 l/m 1,1 km/h (1 Bft) SW 234 0 min 0,000 mm 0,0 UV-I 12 W/m 6,5 C 8,0 C 1,6 km/h (1 Bft) 95,74 %
14.11.2018 16:22 8,0 C 9,4 C 2,2 C 91 % 1028,8 hPa 0,0 l/m 1,0 km/h (0 Bft) SW 234 0 min 0,000 mm 0,0 UV-I 11 W/m 6,6 C 8,0 C 1,6 km/h (1 Bft) 96,00 %
14.11.2018 16:24 7,9 C 9,4 C 2,2 C 90 % 1028,8 hPa 0,0 l/m 1,5 km/h (1 Bft) SW 234 0 min 0,000 mm 0,0 UV-I 10 W/m 6,4 C 7,9 C 3,2 km/h (1 Bft) 97,87 %
14.11.2018 16:26 7,8 C 9,4 C 2,2 C 90 % 1028,8 hPa 0,0 l/m 1,4 km/h (1 Bft) SW 234 0 min 0,000 mm 0,0 UV-I 9 W/m 6,3 C 7,8 C 3,2 km/h (1 Bft) 94,00 %
14.11.2018 16:28 7,8 C 9,4 C 1,7 C 91 % 1028,9 hPa 0,0 l/m 0,8 km/h (0 Bft) SW 234 0 min 0,000 mm 0,0 UV-I 9 W/m 6,4 C 7,8 C 1,6 km/h (1 Bft) 93,62 %
14.11.2018 16:30 7,7 C 9,4 C 1,7 C 91 % 1028,8 hPa 0,0 l/m 0,5 km/h (0 Bft) SW 234 0 min 0,000 mm 0,0 UV-I 7 W/m 6,3 C 7,7 C 1,6 km/h (1 Bft) 91,49 %
14.11.2018 16:32 7,7 C 9,4 C 1,1 C 91 % 1028,8 hPa 0,0 l/m 0,4 km/h (0 Bft) SW 234 0 min 0,000 mm 0,0 UV-I 7 W/m 6,3 C 7,7 C 1,6 km/h (1 Bft) 95,74 %
14.11.2018 16:34 7,7 C 9,4 C 1,1 C 91 % 1028,9 hPa 0,0 l/m 0,2 km/h (0 Bft) SW 234 0 min 0,000 mm 0,0 UV-I 7 W/m 6,3 C 7,7 C 1,6 km/h (1 Bft) 93,62 %
14.11.2018 16:36 7,6 C 9,4 C 1,1 C 91 % 1028,9 hPa 0,0 l/m 0,8 km/h (0 Bft) SW 234 0 min 0,000 mm 0,0 UV-I 5 W/m 6,2 C 7,6 C 1,6 km/h (1 Bft) 95,74 %
14.11.2018 16:38 7,5 C 9,4 C 0,6 C 92 % 1028,9 hPa 0,0 l/m 0,9 km/h (0 Bft) SW 234 0 min 0,000 mm 0,0 UV-I 5 W/m 6,3 C 7,5 C 1,6 km/h (1 Bft) 91,67 %
14.11.2018 16:40 7,4 C 9,4 C 0,6 C 92 % 1028,9 hPa 0,0 l/m 0,5 km/h (0 Bft) SW 234 0 min 0,000 mm 0,0 UV-I 5 W/m 6,2 C 7,4 C 1,6 km/h (1 Bft) 92,11 %
14.11.2018 16:42 7,4 C 9,4 C 0,6 C 92 % 1029,0 hPa 0,0 l/m 1,0 km/h (0 Bft) SW 234 0 min 0,000 mm 0,0 UV-I 5 W/m 6,2 C 7,4 C 1,6 km/h (1 Bft) 92,00 %
14.11.2018 16:44 7,4 C 9,4 C 0,0 C 92 % 1029,0 hPa 0,0 l/m 0,6 km/h (0 Bft) SW 234 0 min 0,000 mm 0,0 UV-I 5 W/m 6,2 C 7,4 C 1,6 km/h (1 Bft) 95,74 %
14.11.2018 16:46 7,4 C 9,4 C 0,0 C 92 % 1029,0 hPa 0,0 l/m 1,0 km/h (0 Bft) SW 234 0 min 0,000 mm 0,0 UV-I 1 W/m 6,2 C 7,4 C 1,6 km/h (1 Bft) 92,00 %
14.11.2018 16:48 7,3 C 9,4 C 0,0 C 92 % 1029,0 hPa 0,0 l/m 1,1 km/h (1 Bft) SW 234 0 min 0,000 mm 0,0 UV-I 0 W/m 6,1 C 7,3 C 1,6 km/h (1 Bft) 93,62 %
14.11.2018 16:50 7,1 C 9,4 C 0,0 C 92 % 1029,1 hPa 0,0 l/m 0,5 km/h (0 Bft) SW 234 0 min 0,000 mm 0,0 UV-I 0 W/m 5,9 C 7,1 C 1,6 km/h (1 Bft) 92,11 %
14.11.2018 16:52 7,0 C 9,4 C 0,0 C 92 % 1029,1 hPa 0,0 l/m 1,7 km/h (1 Bft) SW 235 0 min 0,000 mm 0,0 UV-I 0 W/m 5,8 C 7,0 C 3,2 km/h (1 Bft) 96,00 %
14.11.2018 16:54 6,9 C 9,4 C 0,0 C 92 % 1029,1 hPa 0,0 l/m 1,3 km/h (1 Bft) SW 235 0 min 0,000 mm 0,0 UV-I 0 W/m 5,7 C 6,9 C 1,6 km/h (1 Bft) 94,00 %
14.11.2018 16:56 6,8 C 9,4 C 0,0 C 93 % 1029,0 hPa 0,0 l/m 0,1 km/h (0 Bft) SW 235 0 min 0,000 mm 0,0 UV-I 0 W/m 5,7 C 6,8 C 1,6 km/h (1 Bft) 96,00 %
14.11.2018 16:58 6,7 C 9,4 C 0,0 C 93 % 1029,0 hPa 0,0 l/m 0,0 km/h (0 Bft) SW 235 0 min 0,000 mm 0,0 UV-I 0 W/m 5,6 C 6,7 C 0,0 km/h (0 Bft) 95,74 %
14.11.2018 17:00 6,4 C 9,4 C 0,0 C 92 % 1029,0 hPa 0,0 l/m 0,0 km/h (0 Bft) SW 235 0 min 0,000 mm 0,0 UV-I 0 W/m 5,2 C 6,4 C 0,0 km/h (0 Bft) 95,74 %
14.11.2018 17:02 6,2 C 9,4 C 0,0 C 92 % 1028,9 hPa 0,0 l/m 0,0 km/h (0 Bft) SW 234 0 min 0,000 mm 0,0 UV-I 0 W/m 5,0 C 6,2 C 0,0 km/h (0 Bft) 97,87 %
14.11.2018 17:04 6,0 C 9,4 C 0,0 C 93 % 1028,9 hPa 0,0 l/m 0,4 km/h (0 Bft) SW 234 0 min 0,000 mm 0,0 UV-I 0 W/m 5,0 C 6,0 C 3,2 km/h (1 Bft) 97,37 %
14.11.2018 17:06 5,7 C 9,4 C 0,0 C 93 % 1028,9 hPa 0,0 l/m 2,8 km/h (1 Bft) SW 234 0 min 0,000 mm 0,0 UV-I 0 W/m 4,7 C 5,7 C 3,2 km/h (1 Bft) 98,00 %
14.11.2018 17:08 5,3 C 9,4 C 0,0 C 92 % 1028,9 hPa 0,0 l/m 3,1 km/h (1 Bft) SW 234 0 min 0,000 mm 0,0 UV-I 0 W/m 4,1 C 5,3 C 3,2 km/h (1 Bft) 95,74 %
14.11.2018 17:10 5,2 C 9,4 C 0,0 C 93 % 1029,0 hPa 0,0 l/m 2,9 km/h (1 Bft) SW 234 0 min 0,000 mm 0,0 UV-I 0 W/m 4,2 C 5,2 C 3,2 km/h (1 Bft) 97,87 %
14.11.2018 17:12 5,2 C 9,4 C 0,0 C 94 % 1029,0 hPa 0,0 l/m 2,4 km/h (1 Bft) SW 234 0 min 0,000 mm 0,0 UV-I 0 W/m 4,3 C 5,2 C 3,2 km/h (1 Bft) 98,00 %
14.11.2018 17:14 5,1 C 9,4 C 0,0 C 94 % 1029,0 hPa 0,0 l/m 2,5 km/h (1 Bft) SW 234 0 min 0,000 mm 0,0 UV-I 0 W/m 4,2 C 5,1 C 3,2 km/h (1 Bft) 93,62 %
14.11.2018 17:16 5,3 C 9,4 C 0,0 C 95 % 1029,0 hPa 0,0 l/m 3,0 km/h (1 Bft) SW 234 0 min 0,000 mm 0,0 UV-I 0 W/m 4,6 C 5,3 C 3,2 km/h (1 Bft) 97,92 %
14.11.2018 17:18 5,3 C 9,4 C 0,0 C 95 % 1029,0 hPa 0,0 l/m 2,6 km/h (1 Bft) SW 234 0 min 0,000 mm 0,0 UV-I 0 W/m 4,6 C 5,3 C 3,2 km/h (1 Bft) 100,00 %
14.11.2018 17:20 5,2 C 9,4 C 0,0 C 95 % 1029,0 hPa 0,0 l/m 3,1 km/h (1 Bft) SW 234 0 min 0,000 mm 0,0 UV-I 0 W/m 4,5 C 5,2 C 3,2 km/h (1 Bft) 100,00 %
14.11.2018 17:22 4,9 C 9,4 C 0,0 C 94 % 1029,1 hPa 0,0 l/m 2,5 km/h (1 Bft) SW 234 0 min 0,000 mm 0,0 UV-I 0 W/m 4,0 C 4,9 C 3,2 km/h (1 Bft) 100,00 %
14.11.2018 17:24 4,8 C 9,4 C 0,0 C 94 % 1029,0 hPa 0,0 l/m 3,0 km/h (1 Bft) SW 234 0 min 0,000 mm 0,0 UV-I 0 W/m 3,9 C 4,8 C 4,8 km/h (1 Bft) 100,00 %
14.11.2018 17:26 4,8 C 9,4 C 0,0 C 94 % 1029,0 hPa 0,0 l/m 3,3 km/h (1 Bft) SW 234 0 min 0,000 mm 0,0 UV-I 0 W/m 3,9 C 4,8 C 4,8 km/h (1 Bft) 100,00 %
14.11.2018 17:28 4,9 C 9,4 C 0,0 C 95 % 1029,0 hPa 0,0 l/m 2,9 km/h (1 Bft) SW 234 0 min 0,000 mm 0,0 UV-I 0 W/m 4,2 C 4,9 C 3,2 km/h (1 Bft) 97,87 %
14.11.2018 17:30 4,9 C 9,4 C 0,0 C 95 % 1029,0 hPa 0,0 l/m 3,0 km/h (1 Bft) SW 234 0 min 0,000 mm 0,0 UV-I 0 W/m 4,2 C 4,9 C 4,8 km/h (1 Bft) 100,00 %
14.11.2018 17:32 4,9 C 9,4 C 0,0 C 95 % 1028,9 hPa 0,0 l/m 3,7 km/h (1 Bft) SW 234 0 min 0,000 mm 0,0 UV-I 0 W/m 4,2 C 4,9 C 4,8 km/h (1 Bft) 100,00 %
14.11.2018 17:34 5,0 C 9,4 C 1,1 C 95 % 1028,9 hPa 0,0 l/m 3,4 km/h (1 Bft) SW 234 0 min 0,000 mm 0,0 UV-I 0 W/m 4,3 C 5,0 C 4,8 km/h (1 Bft) 95,74 %
14.11.2018 17:36 5,0 C 9,4 C 0,6 C 95 % 1028,9 hPa 0,0 l/m 3,0 km/h (1 Bft) SW 234 0 min 0,000 mm 0,0 UV-I 0 W/m 4,3 C 5,0 C 3,2 km/h (1 Bft) 97,87 %
14.11.2018 17:38 4,8 C 9,4 C 0,6 C 95 % 1028,9 hPa 0,0 l/m 4,0 km/h (1 Bft) SW 231 0 min 0,000 mm 0,0 UV-I 0 W/m 4,1 C 4,8 C 4,8 km/h (1 Bft) 100,00 %
14.11.2018 17:40 4,6 C 9,4 C 1,1 C 95 % 1028,9 hPa 0,0 l/m 4,4 km/h (1 Bft) S-SW 212 0 min 0,000 mm 0,0 UV-I 0 W/m 3,9 C 4,6 C 6,4 km/h (2 Bft) 97,87 %
14.11.2018 17:42 4,5 C 9,4 C 0,6 C 95 % 1028,9 hPa 0,0 l/m 4,3 km/h (1 Bft) S-SW 212 0 min 0,000 mm 0,0 UV-I 0 W/m 3,8 C 4,5 C 4,8 km/h (1 Bft) 97,14 %
14.11.2018 17:44 4,5 C 9,4 C 0,6 C 95 % 1028,9 hPa 0,0 l/m 3,9 km/h (1 Bft) S-SW 212 0 min 0,000 mm 0,0 UV-I 0 W/m 3,8 C 4,5 C 4,8 km/h (1 Bft) 100,00 %
14.11.2018 17:46 4,5 C 9,4 C 0,0 C 95 % 1028,8 hPa 0,0 l/m 3,7 km/h (1 Bft) S-SW 212 0 min 0,000 mm 0,0 UV-I 0 W/m 3,8 C 4,5 C 4,8 km/h (1 Bft) 100,00 %
14.11.2018 17:48 4,5 C 9,4 C 0,0 C 95 % 1028,8 hPa 0,0 l/m 3,9 km/h (1 Bft) S-SW 212 0 min 0,000 mm 0,0 UV-I 0 W/m 3,8 C 4,5 C 4,8 km/h (1 Bft) 100,00 %
14.11.2018 17:50 4,4 C 9,4 C 0,0 C 95 % 1028,7 hPa 0,0 l/m 4,6 km/h (1 Bft) S-SW 212 0 min 0,000 mm 0,0 UV-I 0 W/m 3,7 C 4,4 C 6,4 km/h (2 Bft) 100,00 %
14.11.2018 17:52 4,3 C 9,4 C 0,0 C 95 % 1028,7 hPa 0,0 l/m 4,5 km/h (1 Bft) S-SW 212 0 min 0,000 mm 0,0 UV-I 0 W/m 3,6 C 4,3 C 4,8 km/h (1 Bft) 100,00 %
14.11.2018 17:54 4,4 C 9,4 C -0,6 C 96 % 1028,7 hPa 0,0 l/m 5,4 km/h (1 Bft) S-SW 212 0 min 0,000 mm 0,0 UV-I 0 W/m 3,8 C 4,4 C 6,4 km/h (2 Bft) 98,11 %
14.11.2018 17:56 4,6 C 9,4 C -0,6 C 96 % 1028,7 hPa 0,0 l/m 4,4 km/h (1 Bft) S-SW 212 0 min 0,000 mm 0,0 UV-I 0 W/m 4,0 C 4,6 C 6,4 km/h (2 Bft) 97,14 %
14.11.2018 17:58 4,6 C 9,4 C -0,6 C 96 % 1028,7 hPa 0,0 l/m 3,8 km/h (1 Bft) S-SW 212 0 min 0,000 mm 0,0 UV-I 0 W/m 4,0 C 4,6 C 4,8 km/h (1 Bft) 96,00 %
14.11.2018 18:00 4,6 C 9,4 C -0,6 C 96 % 1028,7 hPa 0,0 l/m 3,7 km/h (1 Bft) S-SW 212 0 min 0,000 mm 0,0 UV-I 0 W/m 4,0 C 4,6 C 4,8 km/h (1 Bft) 97,87 %
14.11.2018 18:02 4,5 C 9,4 C -0,6 C 96 % 1028,7 hPa 0,0 l/m 3,9 km/h (1 Bft) S-SW 212 0 min 0,000 mm 0,0 UV-I 0 W/m 3,9 C 4,5 C 4,8 km/h (1 Bft) 96,00 %
14.11.2018 18:04 4,4 C 9,4 C -1,1 C 95 % 1028,8 hPa 0,0 l/m 4,0 km/h (1 Bft) S-SW 212 0 min 0,000 mm 0,0 UV-I 0 W/m 3,7 C 4,4 C 4,8 km/h (1 Bft) 94,00 %
14.11.2018 18:06 4,3 C 9,4 C -1,1 C 95 % 1028,7 hPa 0,0 l/m 3,9 km/h (1 Bft) S-SW 212 0 min 0,000 mm 0,0 UV-I 0 W/m 3,6 C 4,3 C 4,8 km/h (1 Bft) 97,87 %
14.11.2018 18:08 4,3 C 9,4 C -1,1 C 96 % 1028,8 hPa 0,0 l/m 3,2 km/h (1 Bft) S-SW 212 0 min 0,000 mm 0,0 UV-I 0 W/m 3,7 C 4,3 C 4,8 km/h (1 Bft) 95,74 %
14.11.2018 18:10 4,3 C 9,4 C -1,1 C 96 % 1028,9 hPa 0,0 l/m 3,6 km/h (1 Bft) S-SW 212 0 min 0,000 mm 0,0 UV-I 0 W/m 3,7 C 4,3 C 4,8 km/h (1 Bft) 95,74 %
14.11.2018 18:12 4,3 C 9,4 C -1,1 C 96 % 1028,9 hPa 0,0 l/m 3,4 km/h (1 Bft) S-SW 212 0 min 0,000 mm 0,0 UV-I 0 W/m 3,7 C 4,3 C 4,8 km/h (1 Bft) 100,00 %
14.11.2018 18:14 4,2 C 9,4 C -1,1 C 96 % 1028,9 hPa 0,0 l/m 2,3 km/h (1 Bft) S-SW 212 0 min 0,000 mm 0,0 UV-I 0 W/m 3,6 C 4,2 C 3,2 km/h (1 Bft) 97,87 %
14.11.2018 18:16 4,3 C 9,4 C -1,1 C 96 % 1029,0 hPa 0,0 l/m 1,9 km/h (1 Bft) S-SW 212 0 min 0,000 mm 0,0 UV-I 0 W/m 3,7 C 4,3 C 3,2 km/h (1 Bft) 97,87 %
14.11.2018 18:18 4,6 C 9,4 C -1,7 C 96 % 1028,9 hPa 0,0 l/m 1,9 km/h (1 Bft) S-SW 212 0 min 0,000 mm 0,0 UV-I 0 W/m 4,0 C 4,6 C 3,2 km/h (1 Bft) 100,00 %
14.11.2018 18:20 4,9 C 9,4 C -1,7 C 96 % 1028,9 hPa 0,0 l/m 1,7 km/h (1 Bft) S-SW 212 0 min 0,000 mm 0,0 UV-I 0 W/m 4,3 C 4,9 C 3,2 km/h (1 Bft) 100,00 %
14.11.2018 18:22 5,0 C 9,4 C -1,1 C 96 % 1028,9 hPa 0,0 l/m 1,6 km/h (1 Bft) S-SW 212 0 min 0,000 mm 0,0 UV-I 0 W/m 4,4 C 5,0 C 3,2 km/h (1 Bft) 100,00 %
14.11.2018 18:24 5,1 C 9,4 C -1,1 C 97 % 1028,9 hPa 0,0 l/m 1,0 km/h (0 Bft) S-SW 212 0 min 0,000 mm 0,0 UV-I 0 W/m 4,7 C 5,1 C 1,6 km/h (1 Bft) 100,00 %
14.11.2018 18:26 5,0 C 9,4 C -1,1 C 97 % 1029,0 hPa 0,0 l/m 0,9 km/h (0 Bft) S-SW 212 0 min 0,000 mm 0,0 UV-I 0 W/m 4,6 C 5,0 C 1,6 km/h (1 Bft) 100,00 %
14.11.2018 18:28 4,8 C 9,4 C -1,1 C 96 % 1028,9 hPa 0,0 l/m 0,2 km/h (0 Bft) S-SW 212 0 min 0,000 mm 0,0 UV-I 0 W/m 4,2 C 4,8 C 1,6 km/h (1 Bft) 100,00 %
14.11.2018 18:30 4,7 C 9,4 C -1,1 C 96 % 1028,9 hPa 0,0 l/m 0,8 km/h (0 Bft) S-SW 212 0 min 0,000 mm 0,0 UV-I 0 W/m 4,1 C 4,7 C 1,6 km/h (1 Bft) 97,22 %
14.11.2018 18:32 4,6 C 9,4 C -1,1 C 96 % 1029,0 hPa 0,0 l/m 1,9 km/h (1 Bft) S-SW 212 0 min 0,000 mm 0,0 UV-I 0 W/m 4,0 C 4,6 C 3,2 km/h (1 Bft) 98,39 %
14.11.2018 18:34 4,5 C 9,4 C -1,7 C 96 % 1029,0 hPa 0,0 l/m 1,5 km/h (1 Bft) S-SW 212 0 min 0,000 mm 0,0 UV-I 0 W/m 3,9 C 4,5 C 3,2 km/h (1 Bft) 100,00 %
14.11.2018 18:36 4,4 C 9,4 C -1,7 C 96 % 1029,0 hPa 0,0 l/m 0,0 km/h (0 Bft) S-SW 212 0 min 0,000 mm 0,0 UV-I 0 W/m 3,8 C 4,4 C 1,6 km/h (1 Bft) 95,74 %
14.11.2018 18:38 4,2 C 9,4 C -1,1 C 96 % 1029,0 hPa 0,0 l/m 0,0 km/h (0 Bft) S-SW 212 0 min 0,000 mm 0,0 UV-I 0 W/m 3,6 C 4,2 C 0,0 km/h (0 Bft) 91,49 %
14.11.2018 18:40 4,2 C 9,4 C -1,1 C 96 % 1029,0 hPa 0,0 l/m 0,0 km/h (0 Bft) S-SW 212 0 min 0,000 mm 0,0 UV-I 0 W/m 3,6 C 4,2 C 0,0 km/h (0 Bft) 97,87 %
14.11.2018 18:42 4,2 C 9,4 C -1,1 C 96 % 1029,0 hPa 0,0 l/m 0,0 km/h (0 Bft) S-SW 212 0 min 0,000 mm 0,0 UV-I 0 W/m 3,6 C 4,2 C 0,0 km/h (0 Bft) 95,74 %
14.11.2018 18:44 4,1 C 9,4 C -1,1 C 96 % 1029,0 hPa 0,0 l/m 0,2 km/h (0 Bft) S-SW 212 0 min 0,000 mm 0,0 UV-I 0 W/m 3,5 C 4,1 C 1,6 km/h (1 Bft) 95,74 %
14.11.2018 18:46 3,9 C 9,4 C -1,1 C 96 % 1029,0 hPa 0,0 l/m 1,4 km/h (1 Bft) S-SW 212 0 min 0,000 mm 0,0 UV-I 0 W/m 3,3 C 3,9 C 1,6 km/h (1 Bft) 97,37 %
14.11.2018 18:48 3,7 C 9,4 C -1,1 C 95 % 1029,0 hPa 0,0 l/m 1,7 km/h (1 Bft) S-SW 212 0 min 0,000 mm 0,0 UV-I 0 W/m 3,0 C 3,7 C 3,2 km/h (1 Bft) 97,87 %
14.11.2018 18:50 3,7 C 8,9 C -1,1 C 95 % 1029,0 hPa 0,0 l/m 1,8 km/h (1 Bft) S-SW 212 0 min 0,000 mm 0,0 UV-I 0 W/m 3,0 C 3,7 C 3,2 km/h (1 Bft) 96,00 %
14.11.2018 18:52 3,7 C 8,9 C -1,1 C 96 % 1029,0 hPa 0,0 l/m 1,3 km/h (1 Bft) S-SW 212 0 min 0,000 mm 0,0 UV-I 0 W/m 3,1 C 3,7 C 1,6 km/h (1 Bft) 97,87 %
14.11.2018 18:54 3,7 C 8,9 C -1,7 C 96 % 1029,0 hPa 0,0 l/m 1,3 km/h (1 Bft) S-SW 212 0 min 0,000 mm 0,0 UV-I 0 W/m 3,1 C 3,7 C 1,6 km/h (1 Bft) 97,87 %
14.11.2018 18:56 3,8 C 8,9 C -1,7 C 96 % 1029,0 hPa 0,0 l/m 1,9 km/h (1 Bft) S-SW 212 0 min 0,000 mm 0,0 UV-I 0 W/m 3,2 C 3,8 C 3,2 km/h (1 Bft) 93,62 %
14.11.2018 18:58 3,7 C 8,9 C -1,7 C 96 % 1029,0 hPa 0,0 l/m 2,2 km/h (1 Bft) S-SW 212 0 min 0,000 mm 0,0 UV-I 0 W/m 3,1 C 3,7 C 3,2 km/h (1 Bft) 95,74 %
14.11.2018 19:00 3,7 C 8,9 C -1,7 C 96 % 1029,0 hPa 0,0 l/m 2,0 km/h (1 Bft) S-SW 212 0 min 0,000 mm 0,0 UV-I 0 W/m 3,1 C 3,7 C 3,2 km/h (1 Bft) 95,74 %
14.11.2018 19:02 3,6 C 8,9 C -1,7 C 96 % 1029,0 hPa 0,0 l/m 2,1 km/h (1 Bft) S-SW 212 0 min 0,000 mm 0,0 UV-I 0 W/m 3,0 C 3,6 C 3,2 km/h (1 Bft) 95,74 %
14.11.2018 19:04 3,4 C 8,9 C -1,1 C 96 % 1029,0 hPa 0,0 l/m 2,1 km/h (1 Bft) S-SW 212 0 min 0,000 mm 0,0 UV-I 0 W/m 2,8 C 3,4 C 3,2 km/h (1 Bft) 94,87 %
14.11.2018 19:06 3,2 C 9,4 C -1,1 C 96 % 1029,0 hPa 0,0 l/m 2,3 km/h (1 Bft) S-SW 212 0 min 0,000 mm 0,0 UV-I 0 W/m 2,6 C 3,2 C 3,2 km/h (1 Bft) 96,00 %
14.11.2018 19:08 3,2 C 9,4 C -1,1 C 96 % 1029,0 hPa 0,0 l/m 2,8 km/h (1 Bft) S-SW 212 0 min 0,000 mm 0,0 UV-I 0 W/m 2,6 C 3,2 C 3,2 km/h (1 Bft) 89,36 %
14.11.2018 19:10 3,2 C 9,4 C -1,1 C 96 % 1029,0 hPa 0,0 l/m 1,9 km/h (1 Bft) S-SW 212 0 min 0,000 mm 0,0 UV-I 0 W/m 2,6 C 3,2 C 3,2 km/h (1 Bft) 95,74 %
14.11.2018 19:12 3,2 C 9,4 C -1,1 C 96 % 1029,0 hPa 0,0 l/m 1,5 km/h (1 Bft) S-SW 212 0 min 0,000 mm 0,0 UV-I 0 W/m 2,6 C 3,2 C 1,6 km/h (1 Bft) 95,74 %
14.11.2018 19:14 3,2 C 9,4 C -1,1 C 96 % 1029,1 hPa 0,0 l/m 1,8 km/h (1 Bft) S-SW 212 0 min 0,000 mm 0,0 UV-I 0 W/m 2,6 C 3,2 C 3,2 km/h (1 Bft) 96,00 %
14.11.2018 19:16 3,1 C 9,4 C -1,1 C 96 % 1029,1 hPa 0,0 l/m 2,1 km/h (1 Bft) S-SW 212 0 min 0,000 mm 0,0 UV-I 0 W/m 2,5 C 3,1 C 3,2 km/h (1 Bft) 96,23 %
14.11.2018 19:19 3,3 C 9,4 C -1,1 C 96 % 1029,1 hPa 0,0 l/m 1,5 km/h (1 Bft) S-SW 212 0 min 0,000 mm 0,0 UV-I 0 W/m 2,7 C 3,3 C 1,6 km/h (1 Bft) 94,29 %
14.11.2018 19:20 3,4 C 9,4 C -1,1 C 96 % 1029,1 hPa 0,0 l/m 1,6 km/h (1 Bft) S-SW 212 0 min 0,000 mm 0,0 UV-I 0 W/m 2,8 C 3,4 C 1,6 km/h (1 Bft) 100,00 %
14.11.2018 19:22 3,5 C 9,4 C -1,7 C 96 % 1029,1 hPa 0,0 l/m 1,7 km/h (1 Bft) S-SW 212 0 min 0,000 mm 0,0 UV-I 0 W/m 2,9 C 3,5 C 3,2 km/h (1 Bft) 97,87 %
14.11.2018 19:24 3,6 C 8,9 C -1,7 C 96 % 1029,1 hPa 0,0 l/m 2,3 km/h (1 Bft) S-SW 212 0 min 0,000 mm 0,0 UV-I 0 W/m 3,0 C 3,6 C 3,2 km/h (1 Bft) 95,74 %
14.11.2018 19:26 3,3 C 8,9 C -1,7 C 96 % 1029,1 hPa 0,0 l/m 2,9 km/h (1 Bft) S-SW 211 0 min 0,000 mm 0,0 UV-I 0 W/m 2,7 C 3,3 C 4,8 km/h (1 Bft) 100,00 %
14.11.2018 19:28 3,2 C 9,4 C -1,7 C 96 % 1029,1 hPa 0,0 l/m 2,8 km/h (1 Bft) S-SW 211 0 min 0,000 mm 0,0 UV-I 0 W/m 2,6 C 3,2 C 4,8 km/h (1 Bft) 100,00 %
14.11.2018 19:30 3,2 C 9,4 C -1,7 C 96 % 1029,1 hPa 0,0 l/m 1,9 km/h (1 Bft) S-SW 211 0 min 0,000 mm 0,0 UV-I 0 W/m 2,6 C 3,2 C 3,2 km/h (1 Bft) 100,00 %
14.11.2018 19:32 3,2 C 8,9 C -1,7 C 96 % 1029,1 hPa 0,0 l/m 0,8 km/h (0 Bft) S-SW 211 0 min 0,000 mm 0,0 UV-I 0 W/m 2,6 C 3,2 C 1,6 km/h (1 Bft) 100,00 %
14.11.2018 19:34 3,2 C 8,9 C -1,7 C 96 % 1029,1 hPa 0,0 l/m 1,3 km/h (1 Bft) S-SW 211 0 min 0,000 mm 0,0 UV-I 0 W/m 2,6 C 3,2 C 3,2 km/h (1 Bft) 100,00 %
14.11.2018 19:36 3,3 C 8,9 C -1,7 C 96 % 1029,1 hPa 0,0 l/m 3,2 km/h (1 Bft) S-SW 211 0 min 0,000 mm 0,0 UV-I 0 W/m 2,7 C 3,3 C 4,8 km/h (1 Bft) 100,00 %
14.11.2018 19:38 3,3 C 8,9 C -1,7 C 96 % 1029,1 hPa 0,0 l/m 3,4 km/h (1 Bft) O-SO 102 0 min 0,000 mm 0,0 UV-I 0 W/m 2,7 C 3,3 C 6,4 km/h (2 Bft) 100,00 %
14.11.2018 19:40 3,3 C 8,9 C -1,7 C 96 % 1029,0 hPa 0,0 l/m 3,4 km/h (1 Bft) O-SO 102 0 min 0,000 mm 0,0 UV-I 0 W/m 2,7 C 3,3 C 4,8 km/h (1 Bft) 97,87 %
14.11.2018 19:42 3,3 C 8,9 C -1,7 C 97 % 1029,0 hPa 0,0 l/m 0,6 km/h (0 Bft) O-SO 102 0 min 0,000 mm 0,0 UV-I 0 W/m 2,9 C 3,3 C 1,6 km/h (1 Bft) 98,00 %
14.11.2018 19:44 3,3 C 8,9 C -1,7 C 96 % 1029,1 hPa 0,0 l/m 0,1 km/h (0 Bft) O-SO 102 0 min 0,000 mm 0,0 UV-I 0 W/m 2,7 C 3,3 C 1,6 km/h (1 Bft) 100,00 %
14.11.2018 19:46 3,1 C 8,9 C -1,7 C 96 % 1029,1 hPa 0,0 l/m 0,0 km/h (0 Bft) O-SO 102 0 min 0,000 mm 0,0 UV-I 0 W/m 2,5 C 3,1 C 0,0 km/h (0 Bft) 96,00 %
14.11.2018 19:48 2,9 C 8,9 C -1,7 C 96 % 1029,0 hPa 0,0 l/m 0,0 km/h (0 Bft) O-SO 102 0 min 0,000 mm 0,0 UV-I 0 W/m 2,3 C 2,9 C 0,0 km/h (0 Bft) 97,87 %
14.11.2018 19:50 2,8 C 8,9 C -1,7 C 96 % 1029,1 hPa 0,0 l/m 0,0 km/h (0 Bft) O-SO 102 0 min 0,000 mm 0,0 UV-I 0 W/m 2,2 C 2,8 C 0,0 km/h (0 Bft) 95,74 %
14.11.2018 19:52 2,7 C 8,9 C -1,7 C 96 % 1029,0 hPa 0,0 l/m 0,0 km/h (0 Bft) O-SO 102 0 min 0,000 mm 0,0 UV-I 0 W/m 2,1 C 2,7 C 0,0 km/h (0 Bft) 98,00 %
14.11.2018 19:54 2,5 C 8,9 C -1,7 C 96 % 1028,9 hPa 0,0 l/m 0,0 km/h (0 Bft) O-SO 102 0 min 0,000 mm 0,0 UV-I 0 W/m 1,9 C 2,5 C 0,0 km/h (0 Bft) 97,87 %
14.11.2018 19:56 2,3 C 8,9 C -1,7 C 96 % 1029,0 hPa 0,0 l/m 0,0 km/h (0 Bft) O-SO 102 0 min 0,000 mm 0,0 UV-I 0 W/m 1,7 C 2,3 C 0,0 km/h (0 Bft) 93,62 %
14.11.2018 19:58 2,3 C 8,9 C -1,7 C 96 % 1028,9 hPa 0,0 l/m 0,0 km/h (0 Bft) O-SO 102 0 min 0,000 mm 0,0 UV-I 0 W/m 1,7 C 2,3 C 0,0 km/h (0 Bft) 95,74 %
14.11.2018 20:00 2,3 C 8,9 C -1,7 C 96 % 1029,0 hPa 0,0 l/m 0,0 km/h (0 Bft) O-SO 102 0 min 0,000 mm 0,0 UV-I 0 W/m 1,7 C 2,3 C 0,0 km/h (0 Bft) 95,74 %
14.11.2018 20:02 2,4 C 8,9 C -1,1 C 96 % 1028,9 hPa 0,0 l/m 0,1 km/h (0 Bft) O-SO 102 0 min 0,000 mm 0,0 UV-I 0 W/m 1,8 C 2,4 C 1,6 km/h (1 Bft) 95,74 %
14.11.2018 20:04 2,4 C 8,9 C -0,6 C 96 % 1028,9 hPa 0,0 l/m 1,3 km/h (1 Bft) O-SO 102 0 min 0,000 mm 0,0 UV-I 0 W/m 1,8 C 2,4 C 1,6 km/h (1 Bft) 97,87 %
14.11.2018 20:06 2,5 C 8,9 C 0,0 C 96 % 1029,0 hPa 0,0 l/m 1,0 km/h (0 Bft) O-SO 102 0 min 0,000 mm 0,0 UV-I 0 W/m 1,9 C 2,5 C 1,6 km/h (1 Bft) 95,74 %
14.11.2018 20:08 2,6 C 8,9 C 0,0 C 96 % 1029,0 hPa 0,0 l/m 1,1 km/h (1 Bft) O-SO 102 0 min 0,000 mm 0,0 UV-I 0 W/m 2,0 C 2,6 C 1,6 km/h (1 Bft) 95,74 %
14.11.2018 20:10 2,6 C 8,9 C 0,6 C 96 % 1029,0 hPa 0,0 l/m 2,3 km/h (1 Bft) O-SO 102 0 min 0,000 mm 0,0 UV-I 0 W/m 2,0 C 2,6 C 3,2 km/h (1 Bft) 97,87 %
14.11.2018 20:12 2,7 C 8,9 C 0,6 C 96 % 1029,0 hPa 0,0 l/m 2,5 km/h (1 Bft) O-SO 102 0 min 0,000 mm 0,0 UV-I 0 W/m 2,1 C 2,7 C 3,2 km/h (1 Bft) 97,87 %
14.11.2018 20:14 2,8 C 8,9 C 1,1 C 97 % 1029,0 hPa 0,0 l/m 1,8 km/h (1 Bft) O-SO 102 0 min 0,000 mm 0,0 UV-I 0 W/m 2,4 C 2,8 C 3,2 km/h (1 Bft) 97,87 %
14.11.2018 20:16 2,9 C 8,9 C 1,1 C 97 % 1029,0 hPa 0,0 l/m 1,2 km/h (1 Bft) O-SO 102 0 min 0,000 mm 0,0 UV-I 0 W/m 2,5 C 2,9 C 1,6 km/h (1 Bft) 93,62 %
14.11.2018 20:18 2,9 C 8,9 C 1,1 C 97 % 1029,0 hPa 0,0 l/m 0,8 km/h (0 Bft) O-SO 102 0 min 0,000 mm 0,0 UV-I 0 W/m 2,5 C 2,9 C 1,6 km/h (1 Bft) 97,37 %
14.11.2018 20:20 2,9 C 8,9 C 1,7 C 97 % 1029,0 hPa 0,0 l/m 0,4 km/h (0 Bft) O-SO 102 0 min 0,000 mm 0,0 UV-I 0 W/m 2,5 C 2,9 C 1,6 km/h (1 Bft) 95,74 %
14.11.2018 20:22 2,9 C 8,9 C 1,7 C 97 % 1029,0 hPa 0,0 l/m 1,4 km/h (1 Bft) O-SO 102 0 min 0,000 mm 0,0 UV-I 0 W/m 2,5 C 2,9 C 3,2 km/h (1 Bft) 93,62 %
14.11.2018 20:24 2,8 C 8,9 C 2,2 C 97 % 1029,0 hPa 0,0 l/m 0,9 km/h (0 Bft) O-SO 102 0 min 0,000 mm 0,0 UV-I 0 W/m 2,4 C 2,8 C 1,6 km/h (1 Bft) 95,83 %
14.11.2018 20:26 2,7 C 8,9 C 2,2 C 96 % 1029,0 hPa 0,0 l/m 0,2 km/h (0 Bft) O-SO 102 0 min 0,000 mm 0,0 UV-I 0 W/m 2,1 C 2,7 C 1,6 km/h (1 Bft) 93,62 %
14.11.2018 20:28 2,7 C 8,9 C 2,8 C 96 % 1029,1 hPa 0,0 l/m 0,5 km/h (0 Bft) O-SO 102 0 min 0,000 mm 0,0 UV-I 0 W/m 2,1 C 2,7 C 1,6 km/h (1 Bft) 95,74 %
14.11.2018 20:30 2,8 C 8,9 C 2,8 C 96 % 1029,1 hPa 0,0 l/m 0,0 km/h (0 Bft) O-SO 102 0 min 0,000 mm 0,0 UV-I 0 W/m 2,2 C 2,8 C 1,6 km/h (1 Bft) 93,62 %
14.11.2018 20:32 2,9 C 8,9 C 2,8 C 97 % 1029,2 hPa 0,0 l/m 0,6 km/h (0 Bft) O-SO 102 0 min 0,000 mm 0,0 UV-I 0 W/m 2,5 C 2,9 C 1,6 km/h (1 Bft) 95,74 %
14.11.2018 20:34 3,1 C 8,9 C 2,8 C 97 % 1029,1 hPa 0,0 l/m 1,6 km/h (1 Bft) O-SO 102 0 min 0,000 mm 0,0 UV-I 0 W/m 2,7 C 3,1 C 3,2 km/h (1 Bft) 95,74 %
14.11.2018 20:36 3,2 C 8,9 C 2,8 C 97 % 1029,1 hPa 0,0 l/m 2,4 km/h (1 Bft) O-SO 102 0 min 0,000 mm 0,0 UV-I 0 W/m 2,8 C 3,2 C 4,8 km/h (1 Bft) 95,74 %
14.11.2018 20:38 3,5 C 8,9 C 2,8 C 97 % 1029,1 hPa 0,0 l/m 2,8 km/h (1 Bft) O-SO 102 0 min 0,000 mm 0,0 UV-I 0 W/m 3,1 C 3,5 C 4,8 km/h (1 Bft) 97,87 %
14.11.2018 20:40 3,7 C 8,9 C 3,3 C 97 % 1029,2 hPa 0,0 l/m 3,3 km/h (1 Bft) O-SO 102 0 min 0,000 mm 0,0 UV-I 0 W/m 3,3 C 3,7 C 4,8 km/h (1 Bft) 100,00 %
14.11.2018 20:42 3,8 C 8,9 C 3,3 C 97 % 1029,2 hPa 0,0 l/m 3,7 km/h (1 Bft) O-SO 102 0 min 0,000 mm 0,0 UV-I 0 W/m 3,4 C 3,8 C 4,8 km/h (1 Bft) 100,00 %
14.11.2018 20:44 3,8 C 8,9 C 3,9 C 97 % 1029,2 hPa 0,0 l/m 3,1 km/h (1 Bft) O 101 0 min 0,000 mm 0,0 UV-I 0 W/m 3,4 C 3,8 C 4,8 km/h (1 Bft) 98,00 %
14.11.2018 20:46 3,8 C 8,9 C 3,9 C 97 % 1029,2 hPa 0,0 l/m 3,4 km/h (1 Bft) O 90 0 min 0,000 mm 0,0 UV-I 0 W/m 3,4 C 3,8 C 4,8 km/h (1 Bft) 95,74 %
14.11.2018 20:48 3,8 C 8,9 C 3,9 C 97 % 1029,2 hPa 0,0 l/m 4,8 km/h (1 Bft) NO 50 0 min 0,000 mm 0,0 UV-I 0 W/m 3,4 C 3,8 C 6,4 km/h (2 Bft) 100,00 %
14.11.2018 20:50 3,8 C 8,9 C 3,9 C 97 % 1029,3 hPa 0,0 l/m 4,3 km/h (1 Bft) NO 50 0 min 0,000 mm 0,0 UV-I 0 W/m 3,4 C 3,8 C 6,4 km/h (2 Bft) 100,00 %
14.11.2018 20:52 3,8 C 8,9 C 3,9 C 97 % 1029,3 hPa 0,0 l/m 4,0 km/h (1 Bft) NO 50 0 min 0,000 mm 0,0 UV-I 0 W/m 3,4 C 3,8 C 4,8 km/h (1 Bft) 97,87 %
14.11.2018 20:54 3,7 C 8,9 C 3,9 C 97 % 1029,3 hPa 0,0 l/m 3,8 km/h (1 Bft) NO 50 0 min 0,000 mm 0,0 UV-I 0 W/m 3,3 C 3,7 C 4,8 km/h (1 Bft) 97,87 %
14.11.2018 20:56 3,7 C 8,9 C 3,9 C 97 % 1029,4 hPa 0,0 l/m 4,8 km/h (1 Bft) NO 50 0 min 0,000 mm 0,0 UV-I 0 W/m 3,3 C 3,7 C 6,4 km/h (2 Bft) 100,00 %
14.11.2018 20:58 3,7 C 8,9 C 3,9 C 97 % 1029,4 hPa 0,0 l/m 5,0 km/h (1 Bft) O-NO 65 0 min 0,000 mm 0,0 UV-I 0 W/m 3,3 C 3,7 C 6,4 km/h (2 Bft) 97,87 %
14.11.2018 21:00 3,6 C 8,9 C 3,9 C 97 % 1029,3 hPa 0,0 l/m 3,8 km/h (1 Bft) O-NO 75 0 min 0,000 mm 0,0 UV-I 0 W/m 3,2 C 3,6 C 4,8 km/h (1 Bft) 100,00 %
14.11.2018 21:02 3,6 C 8,9 C 3,9 C 97 % 1029,4 hPa 0,0 l/m 3,7 km/h (1 Bft) O-NO 75 0 min 0,000 mm 0,0 UV-I 0 W/m 3,2 C 3,6 C 6,4 km/h (2 Bft) 100,00 %
14.11.2018 21:04 3,6 C 8,9 C 3,9 C 97 % 1029,3 hPa 0,0 l/m 3,8 km/h (1 Bft) O-NO 75 0 min 0,000 mm 0,0 UV-I 0 W/m 3,2 C 3,6 C 4,8 km/h (1 Bft) 100,00 %
14.11.2018 21:06 3,6 C 8,9 C 3,9 C 97 % 1029,3 hPa 0,0 l/m 4,9 km/h (1 Bft) O-NO 76 0 min 0,000 mm 0,0 UV-I 0 W/m 3,2 C 3,6 C 6,4 km/h (2 Bft) 100,00 %
14.11.2018 21:08 3,6 C 8,9 C 3,9 C 97 % 1029,3 hPa 0,0 l/m 4,7 km/h (1 Bft) O 94 0 min 0,000 mm 0,0 UV-I 0 W/m 3,2 C 3,6 C 6,4 km/h (2 Bft) 100,00 %
14.11.2018 21:10 3,5 C 8,9 C 3,9 C 97 % 1029,3 hPa 0,0 l/m 5,5 km/h (1 Bft) O 101 0 min 0,000 mm 0,0 UV-I 0 W/m 3,1 C 3,5 C 9,7 km/h (2 Bft) 98,08 %
14.11.2018 21:12 3,4 C 8,9 C 3,9 C 97 % 1029,3 hPa 0,0 l/m 6,7 km/h (2 Bft) O-NO 72 0 min 0,000 mm 0,0 UV-I 0 W/m 3,0 C 3,1 C 9,7 km/h (2 Bft) 98,00 %
14.11.2018 21:14 3,3 C 8,9 C 3,9 C 97 % 1029,3 hPa 0,0 l/m 6,9 km/h (2 Bft) O-NO 65 0 min 0,000 mm 0,0 UV-I 0 W/m 2,9 C 2,8 C 9,7 km/h (2 Bft) 97,87 %
14.11.2018 21:16 3,3 C 8,9 C 3,9 C 97 % 1029,3 hPa 0,0 l/m 7,5 km/h (2 Bft) O 89 0 min 0,000 mm 0,0 UV-I 0 W/m 2,9 C 2,3 C 11,3 km/h (2 Bft) 97,87 %
14.11.2018 21:18 3,2 C 8,9 C 3,9 C 97 % 1029,3 hPa 0,0 l/m 6,0 km/h (2 Bft) O-NO 76 0 min 0,000 mm 0,0 UV-I 0 W/m 2,8 C 3,2 C 9,7 km/h (2 Bft) 96,00 %
14.11.2018 21:20 3,2 C 8,9 C 3,9 C 97 % 1029,3 hPa 0,0 l/m 5,2 km/h (1 Bft) O 80 0 min 0,000 mm 0,0 UV-I 0 W/m 2,8 C 3,2 C 9,7 km/h (2 Bft) 92,11 %
14.11.2018 21:22 3,2 C 8,9 C 3,9 C 97 % 1029,3 hPa 0,0 l/m 6,0 km/h (2 Bft) O-NO 65 0 min 0,000 mm 0,0 UV-I 0 W/m 2,8 C 3,2 C 8,0 km/h (2 Bft) 95,74 %
14.11.2018 21:24 3,2 C 8,9 C 3,3 C 97 % 1029,2 hPa 0,0 l/m 5,6 km/h (1 Bft) O-NO 71 0 min 0,000 mm 0,0 UV-I 0 W/m 2,8 C 3,2 C 8,0 km/h (2 Bft) 97,87 %
14.11.2018 21:26 3,2 C 8,9 C 3,3 C 97 % 1029,3 hPa 0,0 l/m 6,2 km/h (2 Bft) O-NO 63 0 min 0,000 mm 0,0 UV-I 0 W/m 2,8 C 3,2 C 8,0 km/h (2 Bft) 94,00 %
14.11.2018 21:28 3,2 C 8,9 C 3,3 C 97 % 1029,3 hPa 0,0 l/m 6,4 km/h (2 Bft) O 88 0 min 0,000 mm 0,0 UV-I 0 W/m 2,8 C 3,2 C 11,3 km/h (2 Bft) 96,00 %
14.11.2018 21:30 3,2 C 8,9 C 3,3 C 97 % 1029,3 hPa 0,0 l/m 8,4 km/h (2 Bft) O-NO 74 0 min 0,000 mm 0,0 UV-I 0 W/m 2,8 C 1,4 C 12,9 km/h (3 Bft) 97,87 %
14.11.2018 21:32 3,2 C 8,9 C 3,3 C 97 % 1029,3 hPa 0,0 l/m 8,0 km/h (2 Bft) O 99 0 min 0,000 mm 0,0 UV-I 0 W/m 2,8 C 1,7 C 12,9 km/h (3 Bft) 97,87 %
14.11.2018 21:34 3,2 C 8,9 C 3,3 C 97 % 1029,2 hPa 0,0 l/m 5,4 km/h (1 Bft) O-NO 74 0 min 0,000 mm 0,0 UV-I 0 W/m 2,8 C 3,2 C 9,7 km/h (2 Bft) 95,74 %
14.11.2018 21:36 3,2 C 8,9 C 3,3 C 97 % 1029,2 hPa 0,0 l/m 4,5 km/h (1 Bft) O 84 0 min 0,000 mm 0,0 UV-I 0 W/m 2,8 C 3,2 C 6,4 km/h (2 Bft) 93,62 %
14.11.2018 21:38 3,2 C 8,9 C 3,9 C 97 % 1029,2 hPa 0,0 l/m 3,6 km/h (1 Bft) O 97 0 min 0,000 mm 0,0 UV-I 0 W/m 2,8 C 3,2 C 4,8 km/h (1 Bft) 97,37 %
14.11.2018 21:40 3,3 C 8,9 C 3,9 C 97 % 1029,2 hPa 0,0 l/m 4,0 km/h (1 Bft) O 87 0 min 0,000 mm 0,0 UV-I 0 W/m 2,9 C 3,3 C 6,4 km/h (2 Bft) 95,83 %
14.11.2018 21:42 3,3 C 8,9 C 3,9 C 97 % 1029,2 hPa 0,0 l/m 5,3 km/h (1 Bft) SO 125 0 min 0,000 mm 0,0 UV-I 0 W/m 2,9 C 3,3 C 9,7 km/h (2 Bft) 93,62 %
14.11.2018 21:44 3,3 C 8,9 C 3,9 C 97 % 1029,2 hPa 0,0 l/m 3,4 km/h (1 Bft) O-SO 105 0 min 0,000 mm 0,0 UV-I 0 W/m 2,9 C 3,3 C 4,8 km/h (1 Bft) 95,74 %
14.11.2018 21:46 3,4 C 8,9 C 3,9 C 97 % 1029,2 hPa 0,0 l/m 1,3 km/h (1 Bft) O-SO 105 0 min 0,000 mm 0,0 UV-I 0 W/m 3,0 C 3,4 C 3,2 km/h (1 Bft) 98,00 %
14.11.2018 21:48 3,4 C 8,9 C 3,9 C 97 % 1029,3 hPa 0,0 l/m 2,1 km/h (1 Bft) O-SO 111 0 min 0,000 mm 0,0 UV-I 0 W/m 3,0 C 3,4 C 4,8 km/h (1 Bft) 95,74 %
14.11.2018 21:50 3,4 C 8,9 C 3,9 C 97 % 1029,2 hPa 0,0 l/m 1,8 km/h (1 Bft) O-SO 111 0 min 0,000 mm 0,0 UV-I 0 W/m 3,0 C 3,4 C 3,2 km/h (1 Bft) 97,87 %
14.11.2018 21:52 3,4 C 8,9 C 3,9 C 97 % 1029,2 hPa 0,0 l/m 2,1 km/h (1 Bft) O-SO 111 0 min 0,000 mm 0,0 UV-I 0 W/m 3,0 C 3,4 C 4,8 km/h (1 Bft) 95,74 %
14.11.2018 21:54 3,4 C 8,9 C 3,9 C 97 % 1029,2 hPa 0,0 l/m 2,0 km/h (1 Bft) O-SO 111 0 min 0,000 mm 0,0 UV-I 0 W/m 3,0 C 3,4 C 3,2 km/h (1 Bft) 93,62 %
14.11.2018 21:56 3,5 C 8,9 C 3,9 C 97 % 1029,2 hPa 0,0 l/m 1,4 km/h (1 Bft) O-SO 111 0 min 0,000 mm 0,0 UV-I 0 W/m 3,1 C 3,5 C 3,2 km/h (1 Bft) 100,00 %
14.11.2018 21:58 3,5 C 8,9 C 3,9 C 97 % 1029,2 hPa 0,0 l/m 0,9 km/h (0 Bft) O-SO 111 0 min 0,000 mm 0,0 UV-I 0 W/m 3,1 C 3,5 C 3,2 km/h (1 Bft) 97,87 %
14.11.2018 22:00 3,4 C 8,9 C 3,9 C 97 % 1029,3 hPa 0,0 l/m 4,1 km/h (1 Bft) O-SO 111 0 min 0,000 mm 0,0 UV-I 0 W/m 3,0 C 3,4 C 6,4 km/h (2 Bft) 100,00 %
14.11.2018 22:02 3,4 C 8,9 C 3,9 C 97 % 1029,2 hPa 0,0 l/m 4,3 km/h (1 Bft) O-SO 105 0 min 0,000 mm 0,0 UV-I 0 W/m 3,0 C 3,4 C 6,4 km/h (2 Bft) 97,87 %
14.11.2018 22:04 3,4 C 8,9 C 3,9 C 97 % 1029,2 hPa 0,0 l/m 2,7 km/h (1 Bft) O-SO 105 0 min 0,000 mm 0,0 UV-I 0 W/m 3,0 C 3,4 C 4,8 km/h (1 Bft) 100,00 %
14.11.2018 22:06 3,4 C 8,9 C 3,9 C 97 % 1029,2 hPa 0,0 l/m 1,9 km/h (1 Bft) O-SO 105 0 min 0,000 mm 0,0 UV-I 0 W/m 3,0 C 3,4 C 3,2 km/h (1 Bft) 100,00 %
14.11.2018 22:08 3,5 C 8,9 C 3,9 C 97 % 1029,3 hPa 0,0 l/m 2,8 km/h (1 Bft) O-SO 105 0 min 0,000 mm 0,0 UV-I 0 W/m 3,1 C 3,5 C 3,2 km/h (1 Bft) 100,00 %
14.11.2018 22:10 3,6 C 8,9 C 3,9 C 97 % 1029,2 hPa 0,0 l/m 4,5 km/h (1 Bft) O 94 0 min 0,000 mm 0,0 UV-I 0 W/m 3,2 C 3,6 C 6,4 km/h (2 Bft) 96,36 %
14.11.2018 22:12 3,6 C 8,9 C 3,9 C 97 % 1029,2 hPa 0,0 l/m 6,0 km/h (2 Bft) O 86 0 min 0,000 mm 0,0 UV-I 0 W/m 3,2 C 3,6 C 11,3 km/h (2 Bft) 97,87 %
14.11.2018 22:14 3,6 C 8,9 C 3,9 C 97 % 1029,2 hPa 0,0 l/m 4,5 km/h (1 Bft) O 92 0 min 0,000 mm 0,0 UV-I 0 W/m 3,2 C 3,6 C 9,7 km/h (2 Bft) 100,00 %
14.11.2018 22:16 3,6 C 8,9 C 3,9 C 97 % 1029,2 hPa 0,0 l/m 6,2 km/h (2 Bft) O 94 0 min 0,000 mm 0,0 UV-I 0 W/m 3,2 C 3,6 C 9,7 km/h (2 Bft) 100,00 %
14.11.2018 22:18 3,6 C 8,9 C 3,9 C 97 % 1029,3 hPa 0,0 l/m 5,8 km/h (2 Bft) O-SO 105 0 min 0,000 mm 0,0 UV-I 0 W/m 3,2 C 3,6 C 8,0 km/h (2 Bft) 97,87 %
14.11.2018 22:20 3,6 C 8,9 C 3,9 C 97 % 1029,3 hPa 0,0 l/m 7,1 km/h (2 Bft) O-SO 103 0 min 0,000 mm 0,0 UV-I 0 W/m 3,2 C 3,0 C 11,3 km/h (2 Bft) 97,44 %
14.11.2018 22:22 3,6 C 8,9 C 3,9 C 98 % 1029,3 hPa 0,0 l/m 8,7 km/h (2 Bft) O 101 0 min 0,000 mm 0,0 UV-I 0 W/m 3,3 C 1,5 C 11,3 km/h (2 Bft) 98,08 %
14.11.2018 22:24 3,6 C 8,9 C 3,9 C 98 % 1029,3 hPa 0,0 l/m 5,6 km/h (1 Bft) O 98 0 min 0,000 mm 0,0 UV-I 0 W/m 3,3 C 3,6 C 9,7 km/h (2 Bft) 97,87 %
14.11.2018 22:26 3,5 C 8,9 C 3,9 C 98 % 1029,3 hPa 0,2 l/m 5,3 km/h (1 Bft) O-NO 67 0 min 0,000 mm 0,0 UV-I 0 W/m 3,2 C 3,5 C 6,4 km/h (2 Bft) 100,00 %
14.11.2018 22:28 3,6 C 8,9 C 3,9 C 98 % 1029,3 hPa 0,0 l/m 5,1 km/h (1 Bft) O-SO 104 0 min 0,000 mm 0,0 UV-I 0 W/m 3,3 C 3,6 C 8,0 km/h (2 Bft) 100,00 %
14.11.2018 22:30 3,6 C 8,9 C 3,9 C 97 % 1029,3 hPa 0,0 l/m 5,3 km/h (1 Bft) O 98 0 min 0,000 mm 0,0 UV-I 0 W/m 3,2 C 3,6 C 6,4 km/h (2 Bft) 100,00 %
14.11.2018 22:32 3,6 C 8,9 C 3,9 C 98 % 1029,3 hPa 0,0 l/m 7,3 km/h (2 Bft) O 98 0 min 0,000 mm 0,0 UV-I 0 W/m 3,3 C 2,8 C 11,3 km/h (2 Bft) 98,08 %
14.11.2018 22:34 3,6 C 8,9 C 3,9 C 98 % 1029,3 hPa 0,0 l/m 6,0 km/h (2 Bft) O 89 0 min 0,000 mm 0,0 UV-I 0 W/m 3,3 C 3,6 C 11,3 km/h (2 Bft) 100,00 %
14.11.2018 22:36 3,6 C 8,9 C 3,9 C 98 % 1029,3 hPa 0,0 l/m 5,1 km/h (1 Bft) O-NO 69 0 min 0,000 mm 0,0 UV-I 0 W/m 3,3 C 3,6 C 9,7 km/h (2 Bft) 100,00 %
14.11.2018 22:38 3,6 C 8,9 C 3,9 C 97 % 1029,3 hPa 0,0 l/m 5,9 km/h (2 Bft) O 83 0 min 0,000 mm 0,0 UV-I 0 W/m 3,2 C 3,6 C 8,0 km/h (2 Bft) 100,00 %
14.11.2018 22:40 3,6 C 8,9 C 3,9 C 97 % 1029,3 hPa 0,0 l/m 4,3 km/h (1 Bft) O 88 0 min 0,000 mm 0,0 UV-I 0 W/m 3,2 C 3,6 C 6,4 km/h (2 Bft) 100,00 %
14.11.2018 22:42 3,6 C 8,9 C 3,9 C 97 % 1029,3 hPa 0,0 l/m 4,6 km/h (1 Bft) O 95 0 min 0,000 mm 0,0 UV-I 0 W/m 3,2 C 3,6 C 6,4 km/h (2 Bft) 100,00 %
14.11.2018 22:44 3,7 C 8,9 C 3,9 C 97 % 1029,3 hPa 0,0 l/m 5,5 km/h (1 Bft) O 96 0 min 0,000 mm 0,0 UV-I 0 W/m 3,3 C 3,7 C 9,7 km/h (2 Bft) 100,00 %
14.11.2018 22:46 3,6 C 8,9 C 3,9 C 97 % 1029,3 hPa 0,0 l/m 3,5 km/h (1 Bft) O 86 0 min 0,000 mm 0,0 UV-I 0 W/m 3,2 C 3,6 C 6,4 km/h (2 Bft) 97,87 %
14.11.2018 22:48 3,6 C 8,9 C 3,9 C 97 % 1029,3 hPa 0,0 l/m 4,7 km/h (1 Bft) O 97 0 min 0,000 mm 0,0 UV-I 0 W/m 3,2 C 3,6 C 6,4 km/h (2 Bft) 97,56 %
14.11.2018 22:50 3,6 C 8,9 C 3,9 C 97 % 1029,2 hPa 0,0 l/m 4,2 km/h (1 Bft) O-SO 102 0 min 0,000 mm 0,0 UV-I 0 W/m 3,2 C 3,6 C 6,4 km/h (2 Bft) 100,00 %
14.11.2018 22:52 3,6 C 8,9 C 3,9 C 97 % 1029,2 hPa 0,0 l/m 4,0 km/h (1 Bft) O 90 0 min 0,000 mm 0,0 UV-I 0 W/m 3,2 C 3,6 C 6,4 km/h (2 Bft) 97,87 %
14.11.2018 22:54 3,7 C 8,9 C 3,9 C 97 % 1029,2 hPa 0,0 l/m 3,4 km/h (1 Bft) O 90 0 min 0,000 mm 0,0 UV-I 0 W/m 3,3 C 3,7 C 4,8 km/h (1 Bft) 95,74 %
14.11.2018 22:56 3,6 C 8,9 C 3,9 C 97 % 1029,2 hPa 0,0 l/m 2,7 km/h (1 Bft) O 90 0 min 0,000 mm 0,0 UV-I 0 W/m 3,2 C 3,6 C 4,8 km/h (1 Bft) 95,74 %
14.11.2018 22:58 3,7 C 8,9 C 3,9 C 97 % 1029,1 hPa 0,0 l/m 4,0 km/h (1 Bft) O-NO 76 0 min 0,000 mm 0,0 UV-I 0 W/m 3,3 C 3,7 C 6,4 km/h (2 Bft) 93,62 %
14.11.2018 23:00 3,7 C 8,9 C 3,9 C 97 % 1029,1 hPa 0,0 l/m 5,0 km/h (1 Bft) O-NO 77 0 min 0,000 mm 0,0 UV-I 0 W/m 3,3 C 3,7 C 8,0 km/h (2 Bft) 91,49 %
14.11.2018 23:02 3,7 C 8,9 C 3,9 C 97 % 1029,1 hPa 0,0 l/m 3,9 km/h (1 Bft) O-SO 117 0 min 0,000 mm 0,0 UV-I 0 W/m 3,3 C 3,7 C 6,4 km/h (2 Bft) 95,74 %
14.11.2018 23:04 3,7 C 8,9 C 3,9 C 98 % 1029,1 hPa 0,0 l/m 4,6 km/h (1 Bft) O-NO 71 0 min 0,000 mm 0,0 UV-I 0 W/m 3,4 C 3,7 C 8,0 km/h (2 Bft) 100,00 %
14.11.2018 23:06 3,8 C 8,9 C 4,4 C 98 % 1029,2 hPa 0,0 l/m 5,1 km/h (1 Bft) O 98 0 min 0,000 mm 0,0 UV-I 0 W/m 3,5 C 3,8 C 9,7 km/h (2 Bft) 93,62 %
14.11.2018 23:08 3,8 C 8,9 C 4,4 C 98 % 1029,2 hPa 0,0 l/m 8,3 km/h (2 Bft) O 88 0 min 0,000 mm 0,0 UV-I 0 W/m 3,5 C 2,1 C 12,9 km/h (3 Bft) 96,23 %
14.11.2018 23:10 3,8 C 8,9 C 4,4 C 98 % 1029,2 hPa 0,0 l/m 5,5 km/h (1 Bft) O-SO 107 0 min 0,000 mm 0,0 UV-I 0 W/m 3,5 C 3,8 C 9,7 km/h (2 Bft) 97,37 %
14.11.2018 23:12 3,8 C 8,9 C 4,4 C 98 % 1029,2 hPa 0,0 l/m 6,5 km/h (2 Bft) O 96 0 min 0,000 mm 0,0 UV-I 0 W/m 3,5 C 3,7 C 11,3 km/h (2 Bft) 96,55 %
14.11.2018 23:14 3,9 C 8,9 C 4,4 C 98 % 1029,2 hPa 0,0 l/m 4,9 km/h (1 Bft) O 99 0 min 0,000 mm 0,0 UV-I 0 W/m 3,6 C 3,9 C 9,7 km/h (2 Bft) 93,62 %
14.11.2018 23:16 3,9 C 8,9 C 4,4 C 98 % 1029,2 hPa 0,0 l/m 4,6 km/h (1 Bft) O 92 0 min 0,000 mm 0,0 UV-I 0 W/m 3,6 C 3,9 C 9,7 km/h (2 Bft) 97,37 %
14.11.2018 23:18 3,9 C 8,9 C 4,4 C 98 % 1029,1 hPa 0,0 l/m 6,6 km/h (2 Bft) O 100 0 min 0,000 mm 0,0 UV-I 0 W/m 3,6 C 3,7 C 11,3 km/h (2 Bft) 97,87 %
14.11.2018 23:20 3,9 C 8,9 C 4,4 C 98 % 1029,1 hPa 0,0 l/m 6,1 km/h (2 Bft) O 87 0 min 0,000 mm 0,0 UV-I 0 W/m 3,6 C 3,9 C 9,7 km/h (2 Bft) 94,34 %
14.11.2018 23:22 3,9 C 8,9 C 4,4 C 98 % 1029,1 hPa 0,0 l/m 5,3 km/h (1 Bft) O 79 0 min 0,000 mm 0,0 UV-I 0 W/m 3,6 C 3,9 C 9,7 km/h (2 Bft) 95,74 %
14.11.2018 23:24 3,9 C 8,9 C 4,4 C 98 % 1029,1 hPa 0,0 l/m 6,3 km/h (2 Bft) O 84 0 min 0,000 mm 0,0 UV-I 0 W/m 3,6 C 3,9 C 11,3 km/h (2 Bft) 93,62 %
14.11.2018 23:26 3,9 C 8,9 C 4,4 C 98 % 1029,1 hPa 0,0 l/m 6,1 km/h (2 Bft) O-NO 73 0 min 0,000 mm 0,0 UV-I 0 W/m 3,6 C 3,9 C 8,0 km/h (2 Bft) 93,62 %
14.11.2018 23:28 4,0 C 8,9 C 4,4 C 98 % 1029,0 hPa 0,0 l/m 6,4 km/h (2 Bft) O-NO 64 0 min 0,000 mm 0,0 UV-I 0 W/m 3,7 C 4,0 C 9,7 km/h (2 Bft) 96,00 %
14.11.2018 23:30 4,1 C 8,9 C 4,4 C 98 % 1029,1 hPa 0,0 l/m 5,4 km/h (1 Bft) O-NO 59 0 min 0,000 mm 0,0 UV-I 0 W/m 3,8 C 4,1 C 8,0 km/h (2 Bft) 93,62 %
14.11.2018 23:32 4,1 C 8,9 C 4,4 C 98 % 1029,2 hPa 0,0 l/m 4,0 km/h (1 Bft) O-NO 78 0 min 0,000 mm 0,0 UV-I 0 W/m 3,8 C 4,1 C 6,4 km/h (2 Bft) 92,11 %
14.11.2018 23:34 4,2 C 8,9 C 4,4 C 98 % 1029,2 hPa 0,0 l/m 5,6 km/h (1 Bft) O-NO 67 0 min 0,000 mm 0,0 UV-I 0 W/m 3,9 C 4,2 C 8,0 km/h (2 Bft) 95,83 %
14.11.2018 23:36 4,2 C 8,9 C 4,4 C 98 % 1029,2 hPa 0,0 l/m 6,5 km/h (2 Bft) O-NO 69 0 min 0,000 mm 0,0 UV-I 0 W/m 3,9 C 4,1 C 9,7 km/h (2 Bft) 95,92 %
14.11.2018 23:38 4,2 C 8,9 C 4,4 C 98 % 1029,2 hPa 0,0 l/m 7,8 km/h (2 Bft) NO 48 0 min 0,000 mm 0,0 UV-I 0 W/m 3,9 C 2,9 C 14,5 km/h (3 Bft) 93,75 %
14.11.2018 23:40 4,2 C 8,9 C 4,4 C 98 % 1029,1 hPa 0,0 l/m 8,3 km/h (2 Bft) O-NO 74 0 min 0,000 mm 0,0 UV-I 0 W/m 3,9 C 2,5 C 12,9 km/h (3 Bft) 92,00 %
14.11.2018 23:42 4,1 C 8,9 C 4,4 C 98 % 1029,1 hPa 0,0 l/m 13,9 km/h (3 Bft) O 84 0 min 0,000 mm 0,0 UV-I 0 W/m 3,8 C -1,4 C 19,3 km/h (3 Bft) 93,62 %
14.11.2018 23:44 4,1 C 8,9 C 4,4 C 98 % 1029,2 hPa 0,0 l/m 12,6 km/h (3 Bft) O 90 0 min 0,000 mm 0,0 UV-I 0 W/m 3,8 C -0,7 C 16,1 km/h (3 Bft) 95,74 %
14.11.2018 23:46 4,1 C 8,9 C 4,4 C 98 % 1029,1 hPa 0,0 l/m 9,7 km/h (2 Bft) O 89 0 min 0,000 mm 0,0 UV-I 0 W/m 3,8 C 1,3 C 12,9 km/h (3 Bft) 97,37 %
14.11.2018 23:49 4,1 C 8,9 C 4,4 C 98 % 1029,0 hPa 0,0 l/m 13,0 km/h (3 Bft) O 79 0 min 0,000 mm 0,0 UV-I 0 W/m 3,8 C -0,9 C 17,7 km/h (3 Bft) 96,34 %
14.11.2018 23:50 4,1 C 8,9 C 4,4 C 98 % 1029,0 hPa 0,0 l/m 12,3 km/h (3 Bft) O-SO 103 0 min 0,000 mm 0,0 UV-I 0 W/m 3,8 C -0,5 C 16,1 km/h (3 Bft) 100,00 %
14.11.2018 23:52 4,1 C 8,9 C 4,4 C 98 % 1029,0 hPa 0,0 l/m 12,3 km/h (3 Bft) O-NO 66 0 min 0,000 mm 0,0 UV-I 0 W/m 3,8 C -0,5 C 16,1 km/h (3 Bft) 95,74 %
14.11.2018 23:54 4,1 C 8,9 C 4,4 C 98 % 1029,0 hPa 0,0 l/m 12,7 km/h (3 Bft) O-SO 106 0 min 0,000 mm 0,0 UV-I 0 W/m 3,8 C -0,7 C 16,1 km/h (3 Bft) 95,74 %
14.11.2018 23:56 4,1 C 8,9 C 4,4 C 98 % 1028,9 hPa 0,0 l/m 10,9 km/h (2 Bft) O-SO 115 0 min 0,000 mm 0,0 UV-I 0 W/m 3,8 C 0,4 C 14,5 km/h (3 Bft) 97,87 %
14.11.2018 23:58 4,1 C 8,9 C 4,4 C 98 % 1029,0 hPa 0,0 l/m 9,8 km/h (2 Bft) O 92 0 min 0,000 mm 0,0 UV-I 0 W/m 3,8 C 1,2 C 12,9 km/h (3 Bft) 95,74 %
_ Min-Zeit 19:56 18:50 18:18 14:38 15:56 - 00:28 - - - - - - 19:56 23:42 00:28 07:48
Minimum _ 2,3 C 8,9 C -1,7 C 85 % 1028,6 hPa - 0,0 km/h (0 Bft) - - - - - - 1,7 C -1,4 C 0,0 km/h (0 Bft) 89,36 %
_ Max-Zeit 14:04 00:00 11:58 06:46 07:58 22:26 23:42 - - 13:18 14:00 12:32 13:40 14:04 14:04 23:42 00:48
Maximum _ 9,7 C 9,4 C 12,2 C 98 % 1031,7 hPa 0,2 l/m 13,9 km/h
O (3 Bft)
- - 2 min 0,102 mm 0,6 UV-I 289 W/m 7,6 C 9,7 C 19,3 km/h
O (3 Bft)
100,00 %
Durchschnitt _ 6,2 C 9,3 C 4,7 C 94 % 1030,2 hPa #0,2 l/m 2,8 km/h (1 Bft) SW - #2:48 h #0,508 mm 0,5 UV-I 111 W/m 5,3 C 6,1 C 4,5 km/h (1 Bft) 97,17 %